<?xml version="1.0" encoding="UTF-8" standalone="no" ?>
<gpx xmlns="http://www.topografix.com/GPX/1/1" xmlns:xsi="http://www.w3.org/2001/XMLSchema-instance" xsi:schemaLocation="http://www.topografix.com/GPX/1/1 http://www.topografix.com/GPX/1/1/gpx.xsd" version="1.1" creator="VisuGPX - https://www.visugpx.com">
  <metadata>
    <name>Lac du Salagou</name>
    <desc><![CDATA[A peine une ébauche de la piste VTT qui fait le tour du lac du Salagou. Retour par la route hélas.
A faire absolument !!! 
Ludique au possible, le Pilotage 3D: marches, devers, pavés !
C'est magique par la couleur de la roche, les reliefs, le lac et ses baignades!!

pat-famille]]></desc>
  </metadata>
  <trk>
    <name><![CDATA[20130816_Salagou_18]]></name>
    <trkseg>
      <trkpt lat="43.66199" lon="3.34008">
        <ele>147.22</ele>
        <time>2013-08-16T07:55:19Z</time>
      </trkpt>
      <trkpt lat="43.66199" lon="3.34007">
        <ele>147.22</ele>
        <time>2013-08-16T07:55:20Z</time>
      </trkpt>
      <trkpt lat="43.66199" lon="3.34007">
        <ele>144.34</ele>
        <time>2013-08-16T07:55:27Z</time>
      </trkpt>
      <trkpt lat="43.66199" lon="3.34007">
        <ele>146.26</ele>
        <time>2013-08-16T07:55:29Z</time>
      </trkpt>
      <trkpt lat="43.662" lon="3.34006">
        <ele>146.26</ele>
        <time>2013-08-16T07:55:48Z</time>
      </trkpt>
      <trkpt lat="43.66197" lon="3.34">
        <ele>144.82</ele>
        <time>2013-08-16T07:55:52Z</time>
      </trkpt>
      <trkpt lat="43.66183" lon="3.33988">
        <ele>142.89</ele>
        <time>2013-08-16T07:55:59Z</time>
      </trkpt>
      <trkpt lat="43.66157" lon="3.34002">
        <ele>143.37</ele>
        <time>2013-08-16T07:56:09Z</time>
      </trkpt>
      <trkpt lat="43.66153" lon="3.34004">
        <ele>143.85</ele>
        <time>2013-08-16T07:56:12Z</time>
      </trkpt>
      <trkpt lat="43.66145" lon="3.34013">
        <ele>144.82</ele>
        <time>2013-08-16T07:56:18Z</time>
      </trkpt>
      <trkpt lat="43.66142" lon="3.34018">
        <ele>144.34</ele>
        <time>2013-08-16T07:56:32Z</time>
      </trkpt>
      <trkpt lat="43.66141" lon="3.3402">
        <ele>144.82</ele>
        <time>2013-08-16T07:57:00Z</time>
      </trkpt>
      <trkpt lat="43.66139" lon="3.34023">
        <ele>144.34</ele>
        <time>2013-08-16T07:57:02Z</time>
      </trkpt>
      <trkpt lat="43.66143" lon="3.34018">
        <ele>144.82</ele>
        <time>2013-08-16T07:57:10Z</time>
      </trkpt>
      <trkpt lat="43.66156" lon="3.34003">
        <ele>144.82</ele>
        <time>2013-08-16T07:57:20Z</time>
      </trkpt>
      <trkpt lat="43.66178" lon="3.33986">
        <ele>143.85</ele>
        <time>2013-08-16T07:57:33Z</time>
      </trkpt>
      <trkpt lat="43.66205" lon="3.33968">
        <ele>143.37</ele>
        <time>2013-08-16T07:57:46Z</time>
      </trkpt>
      <trkpt lat="43.66219" lon="3.33952">
        <ele>143.37</ele>
        <time>2013-08-16T07:57:55Z</time>
      </trkpt>
      <trkpt lat="43.66231" lon="3.33961">
        <ele>144.82</ele>
        <time>2013-08-16T07:57:59Z</time>
      </trkpt>
      <trkpt lat="43.66263" lon="3.33963">
        <ele>145.3</ele>
        <time>2013-08-16T07:58:09Z</time>
      </trkpt>
      <trkpt lat="43.66265" lon="3.33958">
        <ele>145.3</ele>
        <time>2013-08-16T07:58:10Z</time>
      </trkpt>
      <trkpt lat="43.66289" lon="3.33888">
        <ele>147.22</ele>
        <time>2013-08-16T07:58:26Z</time>
      </trkpt>
      <trkpt lat="43.66313" lon="3.3387">
        <ele>145.78</ele>
        <time>2013-08-16T07:58:33Z</time>
      </trkpt>
      <trkpt lat="43.66317" lon="3.33867">
        <ele>145.3</ele>
        <time>2013-08-16T07:58:34Z</time>
      </trkpt>
      <trkpt lat="43.6632" lon="3.33862">
        <ele>146.26</ele>
        <time>2013-08-16T07:58:35Z</time>
      </trkpt>
      <trkpt lat="43.66322" lon="3.33857">
        <ele>145.78</ele>
        <time>2013-08-16T07:58:36Z</time>
      </trkpt>
      <trkpt lat="43.66325" lon="3.33853">
        <ele>145.78</ele>
        <time>2013-08-16T07:58:37Z</time>
      </trkpt>
      <trkpt lat="43.66358" lon="3.3383">
        <ele>146.74</ele>
        <time>2013-08-16T07:58:47Z</time>
      </trkpt>
      <trkpt lat="43.66361" lon="3.33825">
        <ele>145.78</ele>
        <time>2013-08-16T07:58:48Z</time>
      </trkpt>
      <trkpt lat="43.66362" lon="3.33819">
        <ele>146.74</ele>
        <time>2013-08-16T07:58:49Z</time>
      </trkpt>
      <trkpt lat="43.66362" lon="3.33813">
        <ele>146.26</ele>
        <time>2013-08-16T07:58:50Z</time>
      </trkpt>
      <trkpt lat="43.66367" lon="3.33776">
        <ele>150.1</ele>
        <time>2013-08-16T07:59:00Z</time>
      </trkpt>
      <trkpt lat="43.66378" lon="3.33746">
        <ele>151.54</ele>
        <time>2013-08-16T07:59:10Z</time>
      </trkpt>
      <trkpt lat="43.66387" lon="3.33709">
        <ele>154.43</ele>
        <time>2013-08-16T07:59:23Z</time>
      </trkpt>
      <trkpt lat="43.66381" lon="3.33672">
        <ele>157.31</ele>
        <time>2013-08-16T07:59:37Z</time>
      </trkpt>
      <trkpt lat="43.66381" lon="3.3367">
        <ele>157.31</ele>
        <time>2013-08-16T07:59:38Z</time>
      </trkpt>
      <trkpt lat="43.66381" lon="3.33669">
        <ele>156.83</ele>
        <time>2013-08-16T07:59:39Z</time>
      </trkpt>
      <trkpt lat="43.66382" lon="3.33668">
        <ele>157.31</ele>
        <time>2013-08-16T07:59:40Z</time>
      </trkpt>
      <trkpt lat="43.66382" lon="3.33666">
        <ele>157.79</ele>
        <time>2013-08-16T07:59:41Z</time>
      </trkpt>
      <trkpt lat="43.66382" lon="3.33664">
        <ele>157.31</ele>
        <time>2013-08-16T07:59:42Z</time>
      </trkpt>
      <trkpt lat="43.66381" lon="3.33662">
        <ele>157.31</ele>
        <time>2013-08-16T07:59:43Z</time>
      </trkpt>
      <trkpt lat="43.66382" lon="3.3366">
        <ele>158.27</ele>
        <time>2013-08-16T07:59:44Z</time>
      </trkpt>
      <trkpt lat="43.66383" lon="3.33659">
        <ele>157.79</ele>
        <time>2013-08-16T07:59:45Z</time>
      </trkpt>
      <trkpt lat="43.66383" lon="3.33657">
        <ele>157.79</ele>
        <time>2013-08-16T07:59:46Z</time>
      </trkpt>
      <trkpt lat="43.66382" lon="3.33655">
        <ele>158.75</ele>
        <time>2013-08-16T07:59:47Z</time>
      </trkpt>
      <trkpt lat="43.66382" lon="3.33653">
        <ele>158.75</ele>
        <time>2013-08-16T07:59:48Z</time>
      </trkpt>
      <trkpt lat="43.66381" lon="3.33651">
        <ele>158.27</ele>
        <time>2013-08-16T07:59:49Z</time>
      </trkpt>
      <trkpt lat="43.66381" lon="3.33649">
        <ele>159.24</ele>
        <time>2013-08-16T07:59:50Z</time>
      </trkpt>
      <trkpt lat="43.66382" lon="3.33647">
        <ele>159.24</ele>
        <time>2013-08-16T07:59:51Z</time>
      </trkpt>
      <trkpt lat="43.66382" lon="3.33646">
        <ele>158.75</ele>
        <time>2013-08-16T07:59:52Z</time>
      </trkpt>
      <trkpt lat="43.66383" lon="3.33644">
        <ele>159.24</ele>
        <time>2013-08-16T07:59:53Z</time>
      </trkpt>
      <trkpt lat="43.66383" lon="3.33643">
        <ele>159.24</ele>
        <time>2013-08-16T07:59:54Z</time>
      </trkpt>
      <trkpt lat="43.66383" lon="3.33641">
        <ele>159.24</ele>
        <time>2013-08-16T07:59:55Z</time>
      </trkpt>
      <trkpt lat="43.66381" lon="3.33639">
        <ele>160.2</ele>
        <time>2013-08-16T07:59:56Z</time>
      </trkpt>
      <trkpt lat="43.66381" lon="3.33637">
        <ele>160.2</ele>
        <time>2013-08-16T07:59:57Z</time>
      </trkpt>
      <trkpt lat="43.66382" lon="3.33636">
        <ele>159.72</ele>
        <time>2013-08-16T07:59:58Z</time>
      </trkpt>
      <trkpt lat="43.66384" lon="3.33635">
        <ele>160.68</ele>
        <time>2013-08-16T07:59:59Z</time>
      </trkpt>
      <trkpt lat="43.66385" lon="3.33633">
        <ele>160.68</ele>
        <time>2013-08-16T08:00:00Z</time>
      </trkpt>
      <trkpt lat="43.66385" lon="3.33631">
        <ele>160.2</ele>
        <time>2013-08-16T08:00:01Z</time>
      </trkpt>
      <trkpt lat="43.66385" lon="3.33629">
        <ele>160.68</ele>
        <time>2013-08-16T08:00:02Z</time>
      </trkpt>
      <trkpt lat="43.66385" lon="3.33626">
        <ele>161.16</ele>
        <time>2013-08-16T08:00:03Z</time>
      </trkpt>
      <trkpt lat="43.66394" lon="3.33613">
        <ele>162.6</ele>
        <time>2013-08-16T08:00:12Z</time>
      </trkpt>
      <trkpt lat="43.66395" lon="3.33611">
        <ele>164.52</ele>
        <time>2013-08-16T08:00:13Z</time>
      </trkpt>
      <trkpt lat="43.66396" lon="3.3361">
        <ele>163.08</ele>
        <time>2013-08-16T08:00:14Z</time>
      </trkpt>
      <trkpt lat="43.66397" lon="3.33609">
        <ele>163.56</ele>
        <time>2013-08-16T08:00:15Z</time>
      </trkpt>
      <trkpt lat="43.66404" lon="3.33605">
        <ele>164.52</ele>
        <time>2013-08-16T08:00:22Z</time>
      </trkpt>
      <trkpt lat="43.66407" lon="3.33604">
        <ele>164.04</ele>
        <time>2013-08-16T08:00:25Z</time>
      </trkpt>
      <trkpt lat="43.66408" lon="3.33603">
        <ele>164.52</ele>
        <time>2013-08-16T08:00:26Z</time>
      </trkpt>
      <trkpt lat="43.66414" lon="3.33603">
        <ele>165</ele>
        <time>2013-08-16T08:00:30Z</time>
      </trkpt>
      <trkpt lat="43.66415" lon="3.33602">
        <ele>165</ele>
        <time>2013-08-16T08:00:31Z</time>
      </trkpt>
      <trkpt lat="43.66417" lon="3.33602">
        <ele>166.45</ele>
        <time>2013-08-16T08:00:32Z</time>
      </trkpt>
      <trkpt lat="43.66418" lon="3.33602">
        <ele>164.52</ele>
        <time>2013-08-16T08:00:33Z</time>
      </trkpt>
      <trkpt lat="43.6642" lon="3.33601">
        <ele>166.45</ele>
        <time>2013-08-16T08:00:34Z</time>
      </trkpt>
      <trkpt lat="43.66421" lon="3.33601">
        <ele>165.96</ele>
        <time>2013-08-16T08:00:35Z</time>
      </trkpt>
      <trkpt lat="43.66422" lon="3.33601">
        <ele>165.48</ele>
        <time>2013-08-16T08:00:36Z</time>
      </trkpt>
      <trkpt lat="43.66423" lon="3.336">
        <ele>166.45</ele>
        <time>2013-08-16T08:00:37Z</time>
      </trkpt>
      <trkpt lat="43.66429" lon="3.33595">
        <ele>168.37</ele>
        <time>2013-08-16T08:00:43Z</time>
      </trkpt>
      <trkpt lat="43.6643" lon="3.33596">
        <ele>167.41</ele>
        <time>2013-08-16T08:00:44Z</time>
      </trkpt>
      <trkpt lat="43.66432" lon="3.33597">
        <ele>167.89</ele>
        <time>2013-08-16T08:00:45Z</time>
      </trkpt>
      <trkpt lat="43.66434" lon="3.33597">
        <ele>168.37</ele>
        <time>2013-08-16T08:00:47Z</time>
      </trkpt>
      <trkpt lat="43.66435" lon="3.33596">
        <ele>167.89</ele>
        <time>2013-08-16T08:00:48Z</time>
      </trkpt>
      <trkpt lat="43.66436" lon="3.33595">
        <ele>169.33</ele>
        <time>2013-08-16T08:00:49Z</time>
      </trkpt>
      <trkpt lat="43.66438" lon="3.33594">
        <ele>168.85</ele>
        <time>2013-08-16T08:00:50Z</time>
      </trkpt>
      <trkpt lat="43.66439" lon="3.33594">
        <ele>167.89</ele>
        <time>2013-08-16T08:00:51Z</time>
      </trkpt>
      <trkpt lat="43.6646" lon="3.3359">
        <ele>169.81</ele>
        <time>2013-08-16T08:01:06Z</time>
      </trkpt>
      <trkpt lat="43.6647" lon="3.33586">
        <ele>171.25</ele>
        <time>2013-08-16T08:01:13Z</time>
      </trkpt>
      <trkpt lat="43.66471" lon="3.33587">
        <ele>170.77</ele>
        <time>2013-08-16T08:01:14Z</time>
      </trkpt>
      <trkpt lat="43.66473" lon="3.33587">
        <ele>170.29</ele>
        <time>2013-08-16T08:01:15Z</time>
      </trkpt>
      <trkpt lat="43.66474" lon="3.33587">
        <ele>170.77</ele>
        <time>2013-08-16T08:01:16Z</time>
      </trkpt>
      <trkpt lat="43.66476" lon="3.33587">
        <ele>171.25</ele>
        <time>2013-08-16T08:01:17Z</time>
      </trkpt>
      <trkpt lat="43.66477" lon="3.33588">
        <ele>171.25</ele>
        <time>2013-08-16T08:01:18Z</time>
      </trkpt>
      <trkpt lat="43.6648" lon="3.33588">
        <ele>171.25</ele>
        <time>2013-08-16T08:01:20Z</time>
      </trkpt>
      <trkpt lat="43.66481" lon="3.33588">
        <ele>172.69</ele>
        <time>2013-08-16T08:01:21Z</time>
      </trkpt>
      <trkpt lat="43.66483" lon="3.33589">
        <ele>172.21</ele>
        <time>2013-08-16T08:01:22Z</time>
      </trkpt>
      <trkpt lat="43.66484" lon="3.33589">
        <ele>171.73</ele>
        <time>2013-08-16T08:01:23Z</time>
      </trkpt>
      <trkpt lat="43.66486" lon="3.33589">
        <ele>172.69</ele>
        <time>2013-08-16T08:01:24Z</time>
      </trkpt>
      <trkpt lat="43.66487" lon="3.3359">
        <ele>172.69</ele>
        <time>2013-08-16T08:01:25Z</time>
      </trkpt>
      <trkpt lat="43.66488" lon="3.3359">
        <ele>172.69</ele>
        <time>2013-08-16T08:01:26Z</time>
      </trkpt>
      <trkpt lat="43.66508" lon="3.33586">
        <ele>174.62</ele>
        <time>2013-08-16T08:01:39Z</time>
      </trkpt>
      <trkpt lat="43.66512" lon="3.3358">
        <ele>174.14</ele>
        <time>2013-08-16T08:01:43Z</time>
      </trkpt>
      <trkpt lat="43.66514" lon="3.33576">
        <ele>174.62</ele>
        <time>2013-08-16T08:01:45Z</time>
      </trkpt>
      <trkpt lat="43.66513" lon="3.33574">
        <ele>174.62</ele>
        <time>2013-08-16T08:01:46Z</time>
      </trkpt>
      <trkpt lat="43.66513" lon="3.33572">
        <ele>175.58</ele>
        <time>2013-08-16T08:01:47Z</time>
      </trkpt>
      <trkpt lat="43.66513" lon="3.3357">
        <ele>175.58</ele>
        <time>2013-08-16T08:01:48Z</time>
      </trkpt>
      <trkpt lat="43.66512" lon="3.33568">
        <ele>175.1</ele>
        <time>2013-08-16T08:01:49Z</time>
      </trkpt>
      <trkpt lat="43.66511" lon="3.33567">
        <ele>176.06</ele>
        <time>2013-08-16T08:01:50Z</time>
      </trkpt>
      <trkpt lat="43.6651" lon="3.33566">
        <ele>176.54</ele>
        <time>2013-08-16T08:01:51Z</time>
      </trkpt>
      <trkpt lat="43.66509" lon="3.33564">
        <ele>175.58</ele>
        <time>2013-08-16T08:01:52Z</time>
      </trkpt>
      <trkpt lat="43.66508" lon="3.33564">
        <ele>176.06</ele>
        <time>2013-08-16T08:01:53Z</time>
      </trkpt>
      <trkpt lat="43.66506" lon="3.33563">
        <ele>176.06</ele>
        <time>2013-08-16T08:01:54Z</time>
      </trkpt>
      <trkpt lat="43.66505" lon="3.33562">
        <ele>176.54</ele>
        <time>2013-08-16T08:01:55Z</time>
      </trkpt>
      <trkpt lat="43.66504" lon="3.33562">
        <ele>177.02</ele>
        <time>2013-08-16T08:01:56Z</time>
      </trkpt>
      <trkpt lat="43.66503" lon="3.33561">
        <ele>176.54</ele>
        <time>2013-08-16T08:01:57Z</time>
      </trkpt>
      <trkpt lat="43.66501" lon="3.3356">
        <ele>176.06</ele>
        <time>2013-08-16T08:01:58Z</time>
      </trkpt>
      <trkpt lat="43.665" lon="3.33559">
        <ele>177.5</ele>
        <time>2013-08-16T08:01:59Z</time>
      </trkpt>
      <trkpt lat="43.66499" lon="3.33559">
        <ele>176.54</ele>
        <time>2013-08-16T08:02:00Z</time>
      </trkpt>
      <trkpt lat="43.66498" lon="3.33558">
        <ele>177.02</ele>
        <time>2013-08-16T08:02:01Z</time>
      </trkpt>
      <trkpt lat="43.66497" lon="3.33557">
        <ele>177.5</ele>
        <time>2013-08-16T08:02:02Z</time>
      </trkpt>
      <trkpt lat="43.66496" lon="3.33556">
        <ele>177.02</ele>
        <time>2013-08-16T08:02:03Z</time>
      </trkpt>
      <trkpt lat="43.66495" lon="3.33554">
        <ele>177.5</ele>
        <time>2013-08-16T08:02:04Z</time>
      </trkpt>
      <trkpt lat="43.66494" lon="3.33552">
        <ele>177.5</ele>
        <time>2013-08-16T08:02:05Z</time>
      </trkpt>
      <trkpt lat="43.66493" lon="3.33551">
        <ele>177.98</ele>
        <time>2013-08-16T08:02:06Z</time>
      </trkpt>
      <trkpt lat="43.66491" lon="3.33551">
        <ele>177.5</ele>
        <time>2013-08-16T08:02:07Z</time>
      </trkpt>
      <trkpt lat="43.6649" lon="3.3355">
        <ele>177.5</ele>
        <time>2013-08-16T08:02:08Z</time>
      </trkpt>
      <trkpt lat="43.66488" lon="3.3355">
        <ele>177.98</ele>
        <time>2013-08-16T08:02:09Z</time>
      </trkpt>
      <trkpt lat="43.66487" lon="3.33549">
        <ele>178.46</ele>
        <time>2013-08-16T08:02:10Z</time>
      </trkpt>
      <trkpt lat="43.66484" lon="3.33535">
        <ele>178.94</ele>
        <time>2013-08-16T08:02:19Z</time>
      </trkpt>
      <trkpt lat="43.66485" lon="3.33533">
        <ele>178.94</ele>
        <time>2013-08-16T08:02:20Z</time>
      </trkpt>
      <trkpt lat="43.66489" lon="3.33529">
        <ele>178.94</ele>
        <time>2013-08-16T08:02:33Z</time>
      </trkpt>
      <trkpt lat="43.66491" lon="3.33529">
        <ele>179.42</ele>
        <time>2013-08-16T08:02:34Z</time>
      </trkpt>
      <trkpt lat="43.66523" lon="3.33519">
        <ele>179.42</ele>
        <time>2013-08-16T08:02:46Z</time>
      </trkpt>
      <trkpt lat="43.66568" lon="3.33526">
        <ele>180.38</ele>
        <time>2013-08-16T08:02:59Z</time>
      </trkpt>
      <trkpt lat="43.66619" lon="3.3356">
        <ele>181.35</ele>
        <time>2013-08-16T08:03:14Z</time>
      </trkpt>
      <trkpt lat="43.66666" lon="3.33579">
        <ele>181.83</ele>
        <time>2013-08-16T08:03:28Z</time>
      </trkpt>
      <trkpt lat="43.66729" lon="3.33578">
        <ele>184.23</ele>
        <time>2013-08-16T08:03:42Z</time>
      </trkpt>
      <trkpt lat="43.66776" lon="3.33557">
        <ele>183.75</ele>
        <time>2013-08-16T08:03:54Z</time>
      </trkpt>
      <trkpt lat="43.6678" lon="3.33557">
        <ele>183.27</ele>
        <time>2013-08-16T08:03:55Z</time>
      </trkpt>
      <trkpt lat="43.6681" lon="3.3357">
        <ele>185.19</ele>
        <time>2013-08-16T08:04:06Z</time>
      </trkpt>
      <trkpt lat="43.66826" lon="3.33569">
        <ele>186.63</ele>
        <time>2013-08-16T08:04:11Z</time>
      </trkpt>
      <trkpt lat="43.66828" lon="3.33566">
        <ele>188.08</ele>
        <time>2013-08-16T08:04:12Z</time>
      </trkpt>
      <trkpt lat="43.66829" lon="3.33565">
        <ele>187.59</ele>
        <time>2013-08-16T08:04:13Z</time>
      </trkpt>
      <trkpt lat="43.6683" lon="3.33564">
        <ele>187.59</ele>
        <time>2013-08-16T08:04:14Z</time>
      </trkpt>
      <trkpt lat="43.66832" lon="3.33563">
        <ele>188.56</ele>
        <time>2013-08-16T08:04:15Z</time>
      </trkpt>
      <trkpt lat="43.66834" lon="3.33563">
        <ele>188.08</ele>
        <time>2013-08-16T08:04:16Z</time>
      </trkpt>
      <trkpt lat="43.66836" lon="3.33562">
        <ele>188.08</ele>
        <time>2013-08-16T08:04:17Z</time>
      </trkpt>
      <trkpt lat="43.66838" lon="3.33562">
        <ele>188.56</ele>
        <time>2013-08-16T08:04:18Z</time>
      </trkpt>
      <trkpt lat="43.66873" lon="3.33563">
        <ele>187.59</ele>
        <time>2013-08-16T08:04:37Z</time>
      </trkpt>
      <trkpt lat="43.66901" lon="3.33553">
        <ele>187.59</ele>
        <time>2013-08-16T08:04:50Z</time>
      </trkpt>
      <trkpt lat="43.66911" lon="3.33553">
        <ele>187.11</ele>
        <time>2013-08-16T08:04:55Z</time>
      </trkpt>
      <trkpt lat="43.66913" lon="3.33553">
        <ele>187.59</ele>
        <time>2013-08-16T08:04:56Z</time>
      </trkpt>
      <trkpt lat="43.66915" lon="3.33553">
        <ele>187.11</ele>
        <time>2013-08-16T08:04:57Z</time>
      </trkpt>
      <trkpt lat="43.66917" lon="3.33554">
        <ele>187.11</ele>
        <time>2013-08-16T08:04:58Z</time>
      </trkpt>
      <trkpt lat="43.6692" lon="3.33554">
        <ele>187.11</ele>
        <time>2013-08-16T08:04:59Z</time>
      </trkpt>
      <trkpt lat="43.66922" lon="3.33554">
        <ele>187.11</ele>
        <time>2013-08-16T08:05:00Z</time>
      </trkpt>
      <trkpt lat="43.66961" lon="3.33557">
        <ele>186.63</ele>
        <time>2013-08-16T08:05:14Z</time>
      </trkpt>
      <trkpt lat="43.6698" lon="3.3356">
        <ele>185.67</ele>
        <time>2013-08-16T08:05:19Z</time>
      </trkpt>
      <trkpt lat="43.66984" lon="3.33559">
        <ele>185.67</ele>
        <time>2013-08-16T08:05:20Z</time>
      </trkpt>
      <trkpt lat="43.66989" lon="3.33559">
        <ele>185.67</ele>
        <time>2013-08-16T08:05:21Z</time>
      </trkpt>
      <trkpt lat="43.66993" lon="3.33561">
        <ele>185.19</ele>
        <time>2013-08-16T08:05:22Z</time>
      </trkpt>
      <trkpt lat="43.66998" lon="3.33563">
        <ele>185.19</ele>
        <time>2013-08-16T08:05:23Z</time>
      </trkpt>
      <trkpt lat="43.67002" lon="3.33565">
        <ele>185.19</ele>
        <time>2013-08-16T08:05:24Z</time>
      </trkpt>
      <trkpt lat="43.67006" lon="3.33565">
        <ele>185.67</ele>
        <time>2013-08-16T08:05:25Z</time>
      </trkpt>
      <trkpt lat="43.6701" lon="3.33566">
        <ele>185.67</ele>
        <time>2013-08-16T08:05:26Z</time>
      </trkpt>
      <trkpt lat="43.67012" lon="3.33565">
        <ele>185.67</ele>
        <time>2013-08-16T08:05:27Z</time>
      </trkpt>
      <trkpt lat="43.67018" lon="3.33561">
        <ele>184.71</ele>
        <time>2013-08-16T08:05:33Z</time>
      </trkpt>
      <trkpt lat="43.67022" lon="3.3355">
        <ele>182.31</ele>
        <time>2013-08-16T08:05:45Z</time>
      </trkpt>
      <trkpt lat="43.67025" lon="3.33548">
        <ele>180.87</ele>
        <time>2013-08-16T08:05:51Z</time>
      </trkpt>
      <trkpt lat="43.67026" lon="3.33543">
        <ele>179.9</ele>
        <time>2013-08-16T08:05:55Z</time>
      </trkpt>
      <trkpt lat="43.67027" lon="3.33538">
        <ele>179.42</ele>
        <time>2013-08-16T08:06:07Z</time>
      </trkpt>
      <trkpt lat="43.67031" lon="3.33531">
        <ele>179.42</ele>
        <time>2013-08-16T08:06:18Z</time>
      </trkpt>
      <trkpt lat="43.67045" lon="3.33522">
        <ele>177.5</ele>
        <time>2013-08-16T08:06:24Z</time>
      </trkpt>
      <trkpt lat="43.67056" lon="3.33519">
        <ele>175.1</ele>
        <time>2013-08-16T08:06:28Z</time>
      </trkpt>
      <trkpt lat="43.6707" lon="3.33517">
        <ele>173.66</ele>
        <time>2013-08-16T08:06:36Z</time>
      </trkpt>
      <trkpt lat="43.67072" lon="3.33516">
        <ele>173.66</ele>
        <time>2013-08-16T08:06:37Z</time>
      </trkpt>
      <trkpt lat="43.67073" lon="3.33516">
        <ele>173.66</ele>
        <time>2013-08-16T08:06:38Z</time>
      </trkpt>
      <trkpt lat="43.67075" lon="3.33516">
        <ele>173.17</ele>
        <time>2013-08-16T08:06:39Z</time>
      </trkpt>
      <trkpt lat="43.67076" lon="3.33517">
        <ele>172.69</ele>
        <time>2013-08-16T08:06:40Z</time>
      </trkpt>
      <trkpt lat="43.67077" lon="3.33518">
        <ele>172.21</ele>
        <time>2013-08-16T08:06:41Z</time>
      </trkpt>
      <trkpt lat="43.67079" lon="3.33519">
        <ele>172.21</ele>
        <time>2013-08-16T08:06:42Z</time>
      </trkpt>
      <trkpt lat="43.67081" lon="3.33521">
        <ele>172.21</ele>
        <time>2013-08-16T08:06:43Z</time>
      </trkpt>
      <trkpt lat="43.67083" lon="3.33521">
        <ele>171.73</ele>
        <time>2013-08-16T08:06:44Z</time>
      </trkpt>
      <trkpt lat="43.67085" lon="3.33521">
        <ele>171.73</ele>
        <time>2013-08-16T08:06:45Z</time>
      </trkpt>
      <trkpt lat="43.67087" lon="3.3352">
        <ele>172.21</ele>
        <time>2013-08-16T08:06:46Z</time>
      </trkpt>
      <trkpt lat="43.6709" lon="3.3352">
        <ele>171.25</ele>
        <time>2013-08-16T08:06:47Z</time>
      </trkpt>
      <trkpt lat="43.67097" lon="3.33517">
        <ele>171.73</ele>
        <time>2013-08-16T08:06:59Z</time>
      </trkpt>
      <trkpt lat="43.67107" lon="3.33517">
        <ele>171.25</ele>
        <time>2013-08-16T08:07:22Z</time>
      </trkpt>
      <trkpt lat="43.67123" lon="3.33508">
        <ele>168.37</ele>
        <time>2013-08-16T08:07:26Z</time>
      </trkpt>
      <trkpt lat="43.67128" lon="3.33507">
        <ele>168.37</ele>
        <time>2013-08-16T08:07:27Z</time>
      </trkpt>
      <trkpt lat="43.67133" lon="3.33506">
        <ele>167.89</ele>
        <time>2013-08-16T08:07:28Z</time>
      </trkpt>
      <trkpt lat="43.67137" lon="3.33506">
        <ele>167.41</ele>
        <time>2013-08-16T08:07:29Z</time>
      </trkpt>
      <trkpt lat="43.67141" lon="3.33506">
        <ele>167.41</ele>
        <time>2013-08-16T08:07:30Z</time>
      </trkpt>
      <trkpt lat="43.67146" lon="3.33505">
        <ele>166.45</ele>
        <time>2013-08-16T08:07:31Z</time>
      </trkpt>
      <trkpt lat="43.6715" lon="3.33503">
        <ele>165.96</ele>
        <time>2013-08-16T08:07:32Z</time>
      </trkpt>
      <trkpt lat="43.67155" lon="3.33502">
        <ele>165.96</ele>
        <time>2013-08-16T08:07:33Z</time>
      </trkpt>
      <trkpt lat="43.67158" lon="3.335">
        <ele>165.48</ele>
        <time>2013-08-16T08:07:34Z</time>
      </trkpt>
      <trkpt lat="43.67176" lon="3.33489">
        <ele>163.56</ele>
        <time>2013-08-16T08:07:42Z</time>
      </trkpt>
      <trkpt lat="43.67178" lon="3.33489">
        <ele>163.56</ele>
        <time>2013-08-16T08:07:43Z</time>
      </trkpt>
      <trkpt lat="43.6718" lon="3.33491">
        <ele>163.08</ele>
        <time>2013-08-16T08:07:44Z</time>
      </trkpt>
      <trkpt lat="43.67183" lon="3.33492">
        <ele>163.56</ele>
        <time>2013-08-16T08:07:45Z</time>
      </trkpt>
      <trkpt lat="43.67185" lon="3.33494">
        <ele>163.08</ele>
        <time>2013-08-16T08:07:46Z</time>
      </trkpt>
      <trkpt lat="43.67187" lon="3.33497">
        <ele>162.6</ele>
        <time>2013-08-16T08:07:47Z</time>
      </trkpt>
      <trkpt lat="43.67189" lon="3.33501">
        <ele>163.56</ele>
        <time>2013-08-16T08:07:48Z</time>
      </trkpt>
      <trkpt lat="43.6719" lon="3.33503">
        <ele>163.56</ele>
        <time>2013-08-16T08:07:49Z</time>
      </trkpt>
      <trkpt lat="43.67192" lon="3.33506">
        <ele>163.08</ele>
        <time>2013-08-16T08:07:50Z</time>
      </trkpt>
      <trkpt lat="43.67194" lon="3.33507">
        <ele>164.04</ele>
        <time>2013-08-16T08:07:51Z</time>
      </trkpt>
      <trkpt lat="43.67196" lon="3.33509">
        <ele>165</ele>
        <time>2013-08-16T08:07:52Z</time>
      </trkpt>
      <trkpt lat="43.67206" lon="3.33518">
        <ele>165</ele>
        <time>2013-08-16T08:07:57Z</time>
      </trkpt>
      <trkpt lat="43.67208" lon="3.33517">
        <ele>165</ele>
        <time>2013-08-16T08:07:58Z</time>
      </trkpt>
      <trkpt lat="43.67209" lon="3.33516">
        <ele>165</ele>
        <time>2013-08-16T08:07:59Z</time>
      </trkpt>
      <trkpt lat="43.67212" lon="3.33516">
        <ele>165</ele>
        <time>2013-08-16T08:08:01Z</time>
      </trkpt>
      <trkpt lat="43.67216" lon="3.33514">
        <ele>164.52</ele>
        <time>2013-08-16T08:08:18Z</time>
      </trkpt>
      <trkpt lat="43.67217" lon="3.33513">
        <ele>165</ele>
        <time>2013-08-16T08:08:34Z</time>
      </trkpt>
      <trkpt lat="43.67218" lon="3.33514">
        <ele>165</ele>
        <time>2013-08-16T08:09:01Z</time>
      </trkpt>
      <trkpt lat="43.67221" lon="3.33517">
        <ele>163.56</ele>
        <time>2013-08-16T08:09:03Z</time>
      </trkpt>
      <trkpt lat="43.67222" lon="3.33519">
        <ele>164.52</ele>
        <time>2013-08-16T08:09:04Z</time>
      </trkpt>
      <trkpt lat="43.67223" lon="3.33521">
        <ele>164.52</ele>
        <time>2013-08-16T08:09:05Z</time>
      </trkpt>
      <trkpt lat="43.67225" lon="3.33523">
        <ele>164.04</ele>
        <time>2013-08-16T08:09:06Z</time>
      </trkpt>
      <trkpt lat="43.67226" lon="3.33523">
        <ele>164.04</ele>
        <time>2013-08-16T08:09:07Z</time>
      </trkpt>
      <trkpt lat="43.67228" lon="3.33522">
        <ele>164.04</ele>
        <time>2013-08-16T08:09:08Z</time>
      </trkpt>
      <trkpt lat="43.67229" lon="3.33521">
        <ele>163.56</ele>
        <time>2013-08-16T08:09:09Z</time>
      </trkpt>
      <trkpt lat="43.6723" lon="3.3352">
        <ele>163.56</ele>
        <time>2013-08-16T08:09:10Z</time>
      </trkpt>
      <trkpt lat="43.67244" lon="3.33507">
        <ele>160.2</ele>
        <time>2013-08-16T08:09:23Z</time>
      </trkpt>
      <trkpt lat="43.67246" lon="3.33507">
        <ele>160.2</ele>
        <time>2013-08-16T08:09:24Z</time>
      </trkpt>
      <trkpt lat="43.6725" lon="3.33507">
        <ele>158.75</ele>
        <time>2013-08-16T08:09:27Z</time>
      </trkpt>
      <trkpt lat="43.67251" lon="3.33507">
        <ele>159.72</ele>
        <time>2013-08-16T08:09:28Z</time>
      </trkpt>
      <trkpt lat="43.67253" lon="3.33508">
        <ele>159.24</ele>
        <time>2013-08-16T08:09:29Z</time>
      </trkpt>
      <trkpt lat="43.67253" lon="3.33508">
        <ele>159.72</ele>
        <time>2013-08-16T08:09:30Z</time>
      </trkpt>
      <trkpt lat="43.67255" lon="3.33508">
        <ele>158.27</ele>
        <time>2013-08-16T08:09:31Z</time>
      </trkpt>
      <trkpt lat="43.67257" lon="3.33508">
        <ele>157.79</ele>
        <time>2013-08-16T08:09:32Z</time>
      </trkpt>
      <trkpt lat="43.67264" lon="3.33508">
        <ele>157.31</ele>
        <time>2013-08-16T08:09:35Z</time>
      </trkpt>
      <trkpt lat="43.67267" lon="3.3351">
        <ele>157.79</ele>
        <time>2013-08-16T08:09:36Z</time>
      </trkpt>
      <trkpt lat="43.67269" lon="3.33512">
        <ele>156.83</ele>
        <time>2013-08-16T08:09:37Z</time>
      </trkpt>
      <trkpt lat="43.6727" lon="3.33514">
        <ele>156.35</ele>
        <time>2013-08-16T08:09:38Z</time>
      </trkpt>
      <trkpt lat="43.67272" lon="3.33516">
        <ele>157.79</ele>
        <time>2013-08-16T08:09:39Z</time>
      </trkpt>
      <trkpt lat="43.67279" lon="3.33529">
        <ele>157.31</ele>
        <time>2013-08-16T08:09:48Z</time>
      </trkpt>
      <trkpt lat="43.67281" lon="3.33529">
        <ele>156.83</ele>
        <time>2013-08-16T08:09:49Z</time>
      </trkpt>
      <trkpt lat="43.67283" lon="3.3353">
        <ele>156.83</ele>
        <time>2013-08-16T08:09:50Z</time>
      </trkpt>
      <trkpt lat="43.67285" lon="3.33531">
        <ele>157.79</ele>
        <time>2013-08-16T08:09:51Z</time>
      </trkpt>
      <trkpt lat="43.67287" lon="3.33532">
        <ele>157.79</ele>
        <time>2013-08-16T08:09:52Z</time>
      </trkpt>
      <trkpt lat="43.67289" lon="3.33533">
        <ele>157.31</ele>
        <time>2013-08-16T08:09:53Z</time>
      </trkpt>
      <trkpt lat="43.67291" lon="3.33534">
        <ele>156.83</ele>
        <time>2013-08-16T08:09:54Z</time>
      </trkpt>
      <trkpt lat="43.67307" lon="3.33549">
        <ele>156.83</ele>
        <time>2013-08-16T08:10:02Z</time>
      </trkpt>
      <trkpt lat="43.67311" lon="3.33559">
        <ele>155.87</ele>
        <time>2013-08-16T08:10:05Z</time>
      </trkpt>
      <trkpt lat="43.67313" lon="3.3356">
        <ele>155.87</ele>
        <time>2013-08-16T08:10:06Z</time>
      </trkpt>
      <trkpt lat="43.67315" lon="3.33561">
        <ele>156.83</ele>
        <time>2013-08-16T08:10:07Z</time>
      </trkpt>
      <trkpt lat="43.67317" lon="3.33561">
        <ele>156.35</ele>
        <time>2013-08-16T08:10:08Z</time>
      </trkpt>
      <trkpt lat="43.6732" lon="3.33562">
        <ele>155.87</ele>
        <time>2013-08-16T08:10:09Z</time>
      </trkpt>
      <trkpt lat="43.67322" lon="3.33563">
        <ele>157.79</ele>
        <time>2013-08-16T08:10:10Z</time>
      </trkpt>
      <trkpt lat="43.67324" lon="3.33565">
        <ele>156.83</ele>
        <time>2013-08-16T08:10:11Z</time>
      </trkpt>
      <trkpt lat="43.67325" lon="3.33566">
        <ele>157.79</ele>
        <time>2013-08-16T08:10:12Z</time>
      </trkpt>
      <trkpt lat="43.67327" lon="3.33567">
        <ele>157.31</ele>
        <time>2013-08-16T08:10:13Z</time>
      </trkpt>
      <trkpt lat="43.67328" lon="3.33569">
        <ele>158.27</ele>
        <time>2013-08-16T08:10:14Z</time>
      </trkpt>
      <trkpt lat="43.67329" lon="3.33571">
        <ele>158.27</ele>
        <time>2013-08-16T08:10:15Z</time>
      </trkpt>
      <trkpt lat="43.6733" lon="3.33573">
        <ele>158.27</ele>
        <time>2013-08-16T08:10:16Z</time>
      </trkpt>
      <trkpt lat="43.67331" lon="3.33575">
        <ele>157.79</ele>
        <time>2013-08-16T08:10:17Z</time>
      </trkpt>
      <trkpt lat="43.67333" lon="3.33577">
        <ele>158.27</ele>
        <time>2013-08-16T08:10:18Z</time>
      </trkpt>
      <trkpt lat="43.67334" lon="3.33579">
        <ele>158.27</ele>
        <time>2013-08-16T08:10:19Z</time>
      </trkpt>
      <trkpt lat="43.67335" lon="3.33581">
        <ele>158.75</ele>
        <time>2013-08-16T08:10:20Z</time>
      </trkpt>
      <trkpt lat="43.67335" lon="3.33583">
        <ele>158.75</ele>
        <time>2013-08-16T08:10:21Z</time>
      </trkpt>
      <trkpt lat="43.67336" lon="3.33585">
        <ele>158.27</ele>
        <time>2013-08-16T08:10:22Z</time>
      </trkpt>
      <trkpt lat="43.67337" lon="3.33586">
        <ele>158.75</ele>
        <time>2013-08-16T08:10:23Z</time>
      </trkpt>
      <trkpt lat="43.67339" lon="3.33587">
        <ele>158.27</ele>
        <time>2013-08-16T08:10:36Z</time>
      </trkpt>
      <trkpt lat="43.67339" lon="3.33587">
        <ele>158.75</ele>
        <time>2013-08-16T08:10:52Z</time>
      </trkpt>
      <trkpt lat="43.6734" lon="3.33589">
        <ele>158.27</ele>
        <time>2013-08-16T08:10:53Z</time>
      </trkpt>
      <trkpt lat="43.67342" lon="3.33591">
        <ele>158.27</ele>
        <time>2013-08-16T08:10:54Z</time>
      </trkpt>
      <trkpt lat="43.67358" lon="3.33616">
        <ele>159.72</ele>
        <time>2013-08-16T08:11:03Z</time>
      </trkpt>
      <trkpt lat="43.67371" lon="3.33631">
        <ele>161.16</ele>
        <time>2013-08-16T08:11:11Z</time>
      </trkpt>
      <trkpt lat="43.67371" lon="3.33634">
        <ele>160.68</ele>
        <time>2013-08-16T08:11:12Z</time>
      </trkpt>
      <trkpt lat="43.67372" lon="3.33636">
        <ele>161.16</ele>
        <time>2013-08-16T08:11:13Z</time>
      </trkpt>
      <trkpt lat="43.67372" lon="3.33639">
        <ele>160.68</ele>
        <time>2013-08-16T08:11:14Z</time>
      </trkpt>
      <trkpt lat="43.67373" lon="3.33641">
        <ele>161.16</ele>
        <time>2013-08-16T08:11:15Z</time>
      </trkpt>
      <trkpt lat="43.67379" lon="3.33652">
        <ele>161.64</ele>
        <time>2013-08-16T08:11:21Z</time>
      </trkpt>
      <trkpt lat="43.67396" lon="3.33645">
        <ele>159.24</ele>
        <time>2013-08-16T08:11:29Z</time>
      </trkpt>
      <trkpt lat="43.67423" lon="3.33637">
        <ele>155.87</ele>
        <time>2013-08-16T08:11:38Z</time>
      </trkpt>
      <trkpt lat="43.67426" lon="3.33637">
        <ele>155.87</ele>
        <time>2013-08-16T08:11:39Z</time>
      </trkpt>
      <trkpt lat="43.6743" lon="3.33637">
        <ele>154.91</ele>
        <time>2013-08-16T08:11:47Z</time>
      </trkpt>
      <trkpt lat="43.67431" lon="3.33637">
        <ele>154.91</ele>
        <time>2013-08-16T08:12:08Z</time>
      </trkpt>
      <trkpt lat="43.6743" lon="3.33637">
        <ele>154.91</ele>
        <time>2013-08-16T08:12:42Z</time>
      </trkpt>
      <trkpt lat="43.67431" lon="3.33637">
        <ele>155.87</ele>
        <time>2013-08-16T08:12:58Z</time>
      </trkpt>
      <trkpt lat="43.67436" lon="3.33641">
        <ele>153.95</ele>
        <time>2013-08-16T08:13:05Z</time>
      </trkpt>
      <trkpt lat="43.67438" lon="3.33641">
        <ele>152.99</ele>
        <time>2013-08-16T08:13:08Z</time>
      </trkpt>
      <trkpt lat="43.67454" lon="3.33638">
        <ele>149.14</ele>
        <time>2013-08-16T08:13:17Z</time>
      </trkpt>
      <trkpt lat="43.67457" lon="3.33635">
        <ele>148.66</ele>
        <time>2013-08-16T08:13:18Z</time>
      </trkpt>
      <trkpt lat="43.67462" lon="3.33629">
        <ele>148.18</ele>
        <time>2013-08-16T08:13:20Z</time>
      </trkpt>
      <trkpt lat="43.67479" lon="3.33626">
        <ele>146.26</ele>
        <time>2013-08-16T08:13:29Z</time>
      </trkpt>
      <trkpt lat="43.67482" lon="3.33629">
        <ele>145.78</ele>
        <time>2013-08-16T08:13:31Z</time>
      </trkpt>
      <trkpt lat="43.67486" lon="3.33632">
        <ele>145.78</ele>
        <time>2013-08-16T08:13:33Z</time>
      </trkpt>
      <trkpt lat="43.67491" lon="3.33632">
        <ele>147.22</ele>
        <time>2013-08-16T08:13:35Z</time>
      </trkpt>
      <trkpt lat="43.67518" lon="3.33623">
        <ele>147.7</ele>
        <time>2013-08-16T08:13:46Z</time>
      </trkpt>
      <trkpt lat="43.67526" lon="3.33607">
        <ele>146.74</ele>
        <time>2013-08-16T08:13:50Z</time>
      </trkpt>
      <trkpt lat="43.67529" lon="3.33603">
        <ele>147.22</ele>
        <time>2013-08-16T08:13:51Z</time>
      </trkpt>
      <trkpt lat="43.67531" lon="3.33598">
        <ele>146.26</ele>
        <time>2013-08-16T08:13:52Z</time>
      </trkpt>
      <trkpt lat="43.67533" lon="3.33593">
        <ele>145.78</ele>
        <time>2013-08-16T08:13:53Z</time>
      </trkpt>
      <trkpt lat="43.67535" lon="3.3359">
        <ele>146.26</ele>
        <time>2013-08-16T08:13:54Z</time>
      </trkpt>
      <trkpt lat="43.67536" lon="3.33588">
        <ele>144.82</ele>
        <time>2013-08-16T08:13:55Z</time>
      </trkpt>
      <trkpt lat="43.67538" lon="3.33586">
        <ele>144.82</ele>
        <time>2013-08-16T08:13:56Z</time>
      </trkpt>
      <trkpt lat="43.67539" lon="3.33585">
        <ele>145.3</ele>
        <time>2013-08-16T08:13:57Z</time>
      </trkpt>
      <trkpt lat="43.6754" lon="3.33583">
        <ele>145.3</ele>
        <time>2013-08-16T08:13:58Z</time>
      </trkpt>
      <trkpt lat="43.6754" lon="3.33582">
        <ele>144.34</ele>
        <time>2013-08-16T08:13:59Z</time>
      </trkpt>
      <trkpt lat="43.67541" lon="3.33581">
        <ele>145.3</ele>
        <time>2013-08-16T08:14:13Z</time>
      </trkpt>
      <trkpt lat="43.67541" lon="3.33581">
        <ele>139.53</ele>
        <time>2013-08-16T08:14:32Z</time>
      </trkpt>
      <trkpt lat="43.67541" lon="3.33581">
        <ele>145.78</ele>
        <time>2013-08-16T08:14:33Z</time>
      </trkpt>
      <trkpt lat="43.67541" lon="3.33581">
        <ele>141.93</ele>
        <time>2013-08-16T08:14:35Z</time>
      </trkpt>
      <trkpt lat="43.67541" lon="3.33581">
        <ele>145.3</ele>
        <time>2013-08-16T08:14:36Z</time>
      </trkpt>
      <trkpt lat="43.67541" lon="3.33581">
        <ele>141.45</ele>
        <time>2013-08-16T08:14:38Z</time>
      </trkpt>
      <trkpt lat="43.67541" lon="3.33581">
        <ele>145.3</ele>
        <time>2013-08-16T08:14:39Z</time>
      </trkpt>
      <trkpt lat="43.67541" lon="3.3358">
        <ele>138.09</ele>
        <time>2013-08-16T08:14:45Z</time>
      </trkpt>
      <trkpt lat="43.67541" lon="3.3358">
        <ele>146.26</ele>
        <time>2013-08-16T08:14:46Z</time>
      </trkpt>
      <trkpt lat="43.67541" lon="3.3358">
        <ele>145.3</ele>
        <time>2013-08-16T08:14:47Z</time>
      </trkpt>
      <trkpt lat="43.67541" lon="3.3358">
        <ele>141.93</ele>
        <time>2013-08-16T08:14:52Z</time>
      </trkpt>
      <trkpt lat="43.67541" lon="3.3358">
        <ele>148.18</ele>
        <time>2013-08-16T08:14:53Z</time>
      </trkpt>
      <trkpt lat="43.67541" lon="3.3358">
        <ele>141.93</ele>
        <time>2013-08-16T08:14:54Z</time>
      </trkpt>
      <trkpt lat="43.67541" lon="3.3358">
        <ele>146.74</ele>
        <time>2013-08-16T08:14:55Z</time>
      </trkpt>
      <trkpt lat="43.67541" lon="3.33581">
        <ele>145.3</ele>
        <time>2013-08-16T08:15:19Z</time>
      </trkpt>
      <trkpt lat="43.67541" lon="3.33581">
        <ele>144.82</ele>
        <time>2013-08-16T08:15:42Z</time>
      </trkpt>
      <trkpt lat="43.67541" lon="3.33581">
        <ele>144.34</ele>
        <time>2013-08-16T08:16:11Z</time>
      </trkpt>
      <trkpt lat="43.67541" lon="3.3358">
        <ele>144.82</ele>
        <time>2013-08-16T08:16:37Z</time>
      </trkpt>
      <trkpt lat="43.6754" lon="3.3358">
        <ele>144.34</ele>
        <time>2013-08-16T08:16:58Z</time>
      </trkpt>
      <trkpt lat="43.6754" lon="3.3358">
        <ele>144.34</ele>
        <time>2013-08-16T08:17:19Z</time>
      </trkpt>
      <trkpt lat="43.6754" lon="3.33582">
        <ele>144.34</ele>
        <time>2013-08-16T08:17:25Z</time>
      </trkpt>
      <trkpt lat="43.6754" lon="3.33584">
        <ele>143.85</ele>
        <time>2013-08-16T08:17:26Z</time>
      </trkpt>
      <trkpt lat="43.67539" lon="3.33586">
        <ele>144.34</ele>
        <time>2013-08-16T08:17:27Z</time>
      </trkpt>
      <trkpt lat="43.67538" lon="3.33587">
        <ele>144.82</ele>
        <time>2013-08-16T08:17:28Z</time>
      </trkpt>
      <trkpt lat="43.67532" lon="3.33595">
        <ele>144.82</ele>
        <time>2013-08-16T08:17:35Z</time>
      </trkpt>
      <trkpt lat="43.67523" lon="3.33613">
        <ele>147.22</ele>
        <time>2013-08-16T08:17:48Z</time>
      </trkpt>
      <trkpt lat="43.67526" lon="3.33643">
        <ele>146.74</ele>
        <time>2013-08-16T08:18:02Z</time>
      </trkpt>
      <trkpt lat="43.67527" lon="3.33645">
        <ele>146.74</ele>
        <time>2013-08-16T08:18:03Z</time>
      </trkpt>
      <trkpt lat="43.67549" lon="3.33668">
        <ele>145.3</ele>
        <time>2013-08-16T08:18:15Z</time>
      </trkpt>
      <trkpt lat="43.67556" lon="3.33675">
        <ele>145.78</ele>
        <time>2013-08-16T08:18:24Z</time>
      </trkpt>
      <trkpt lat="43.67558" lon="3.33678">
        <ele>146.26</ele>
        <time>2013-08-16T08:18:30Z</time>
      </trkpt>
      <trkpt lat="43.67561" lon="3.33679">
        <ele>146.74</ele>
        <time>2013-08-16T08:18:35Z</time>
      </trkpt>
      <trkpt lat="43.67566" lon="3.33682">
        <ele>147.22</ele>
        <time>2013-08-16T08:18:41Z</time>
      </trkpt>
      <trkpt lat="43.67573" lon="3.33696">
        <ele>150.58</ele>
        <time>2013-08-16T08:18:52Z</time>
      </trkpt>
      <trkpt lat="43.67572" lon="3.33706">
        <ele>151.54</ele>
        <time>2013-08-16T08:18:59Z</time>
      </trkpt>
      <trkpt lat="43.67567" lon="3.3372">
        <ele>151.54</ele>
        <time>2013-08-16T08:19:09Z</time>
      </trkpt>
      <trkpt lat="43.67573" lon="3.33737">
        <ele>152.51</ele>
        <time>2013-08-16T08:19:22Z</time>
      </trkpt>
      <trkpt lat="43.67579" lon="3.33741">
        <ele>152.03</ele>
        <time>2013-08-16T08:19:33Z</time>
      </trkpt>
      <trkpt lat="43.67588" lon="3.33747">
        <ele>152.51</ele>
        <time>2013-08-16T08:19:39Z</time>
      </trkpt>
      <trkpt lat="43.676" lon="3.33784">
        <ele>152.51</ele>
        <time>2013-08-16T08:19:53Z</time>
      </trkpt>
      <trkpt lat="43.67605" lon="3.33794">
        <ele>153.95</ele>
        <time>2013-08-16T08:20:05Z</time>
      </trkpt>
      <trkpt lat="43.67605" lon="3.33794">
        <ele>153.47</ele>
        <time>2013-08-16T08:20:10Z</time>
      </trkpt>
      <trkpt lat="43.67608" lon="3.33799">
        <ele>152.99</ele>
        <time>2013-08-16T08:20:18Z</time>
      </trkpt>
      <trkpt lat="43.67619" lon="3.33822">
        <ele>154.43</ele>
        <time>2013-08-16T08:20:36Z</time>
      </trkpt>
      <trkpt lat="43.67624" lon="3.33846">
        <ele>155.87</ele>
        <time>2013-08-16T08:20:52Z</time>
      </trkpt>
      <trkpt lat="43.67632" lon="3.33869">
        <ele>156.83</ele>
        <time>2013-08-16T08:21:08Z</time>
      </trkpt>
      <trkpt lat="43.67637" lon="3.33894">
        <ele>157.31</ele>
        <time>2013-08-16T08:21:24Z</time>
      </trkpt>
      <trkpt lat="43.67641" lon="3.33909">
        <ele>158.27</ele>
        <time>2013-08-16T08:21:35Z</time>
      </trkpt>
      <trkpt lat="43.67642" lon="3.33919">
        <ele>158.75</ele>
        <time>2013-08-16T08:21:49Z</time>
      </trkpt>
      <trkpt lat="43.67643" lon="3.33919">
        <ele>158.27</ele>
        <time>2013-08-16T08:21:53Z</time>
      </trkpt>
      <trkpt lat="43.67647" lon="3.33933">
        <ele>158.27</ele>
        <time>2013-08-16T08:21:58Z</time>
      </trkpt>
      <trkpt lat="43.67663" lon="3.33988">
        <ele>158.75</ele>
        <time>2013-08-16T08:22:15Z</time>
      </trkpt>
      <trkpt lat="43.67667" lon="3.34037">
        <ele>157.31</ele>
        <time>2013-08-16T08:22:29Z</time>
      </trkpt>
      <trkpt lat="43.67657" lon="3.34067">
        <ele>155.39</ele>
        <time>2013-08-16T08:22:41Z</time>
      </trkpt>
      <trkpt lat="43.67657" lon="3.34067">
        <ele>155.39</ele>
        <time>2013-08-16T08:22:46Z</time>
      </trkpt>
      <trkpt lat="43.67672" lon="3.34071">
        <ele>153.95</ele>
        <time>2013-08-16T08:22:59Z</time>
      </trkpt>
      <trkpt lat="43.67676" lon="3.34076">
        <ele>153.47</ele>
        <time>2013-08-16T08:23:12Z</time>
      </trkpt>
      <trkpt lat="43.67676" lon="3.34076">
        <ele>153.95</ele>
        <time>2013-08-16T08:23:33Z</time>
      </trkpt>
      <trkpt lat="43.67684" lon="3.34081">
        <ele>152.03</ele>
        <time>2013-08-16T08:23:45Z</time>
      </trkpt>
      <trkpt lat="43.67696" lon="3.34089">
        <ele>151.06</ele>
        <time>2013-08-16T08:23:58Z</time>
      </trkpt>
      <trkpt lat="43.677" lon="3.34094">
        <ele>148.18</ele>
        <time>2013-08-16T08:24:05Z</time>
      </trkpt>
      <trkpt lat="43.67703" lon="3.34098">
        <ele>147.22</ele>
        <time>2013-08-16T08:24:09Z</time>
      </trkpt>
      <trkpt lat="43.67708" lon="3.34102">
        <ele>146.74</ele>
        <time>2013-08-16T08:24:21Z</time>
      </trkpt>
      <trkpt lat="43.67709" lon="3.34103">
        <ele>146.26</ele>
        <time>2013-08-16T08:24:22Z</time>
      </trkpt>
      <trkpt lat="43.67719" lon="3.34125">
        <ele>144.34</ele>
        <time>2013-08-16T08:24:31Z</time>
      </trkpt>
      <trkpt lat="43.67734" lon="3.34141">
        <ele>141.93</ele>
        <time>2013-08-16T08:24:44Z</time>
      </trkpt>
      <trkpt lat="43.67738" lon="3.3415">
        <ele>140.97</ele>
        <time>2013-08-16T08:24:50Z</time>
      </trkpt>
      <trkpt lat="43.67754" lon="3.3419">
        <ele>138.57</ele>
        <time>2013-08-16T08:25:05Z</time>
      </trkpt>
      <trkpt lat="43.67756" lon="3.34197">
        <ele>138.09</ele>
        <time>2013-08-16T08:25:07Z</time>
      </trkpt>
      <trkpt lat="43.67762" lon="3.34206">
        <ele>137.13</ele>
        <time>2013-08-16T08:25:11Z</time>
      </trkpt>
      <trkpt lat="43.67776" lon="3.34227">
        <ele>135.68</ele>
        <time>2013-08-16T08:25:19Z</time>
      </trkpt>
      <trkpt lat="43.67776" lon="3.34227">
        <ele>136.16</ele>
        <time>2013-08-16T08:25:32Z</time>
      </trkpt>
      <trkpt lat="43.67776" lon="3.34227">
        <ele>135.68</ele>
        <time>2013-08-16T08:25:58Z</time>
      </trkpt>
      <trkpt lat="43.67776" lon="3.34228">
        <ele>135.68</ele>
        <time>2013-08-16T08:26:02Z</time>
      </trkpt>
      <trkpt lat="43.67789" lon="3.34264">
        <ele>133.28</ele>
        <time>2013-08-16T08:26:14Z</time>
      </trkpt>
      <trkpt lat="43.67787" lon="3.34279">
        <ele>131.36</ele>
        <time>2013-08-16T08:26:19Z</time>
      </trkpt>
      <trkpt lat="43.67791" lon="3.34293">
        <ele>131.36</ele>
        <time>2013-08-16T08:26:26Z</time>
      </trkpt>
      <trkpt lat="43.67791" lon="3.34326">
        <ele>129.43</ele>
        <time>2013-08-16T08:26:38Z</time>
      </trkpt>
      <trkpt lat="43.6779" lon="3.34357">
        <ele>127.99</ele>
        <time>2013-08-16T08:26:48Z</time>
      </trkpt>
      <trkpt lat="43.67786" lon="3.34375">
        <ele>129.43</ele>
        <time>2013-08-16T08:27:01Z</time>
      </trkpt>
      <trkpt lat="43.67787" lon="3.34375">
        <ele>128.95</ele>
        <time>2013-08-16T08:27:21Z</time>
      </trkpt>
      <trkpt lat="43.67787" lon="3.34374">
        <ele>129.43</ele>
        <time>2013-08-16T08:27:37Z</time>
      </trkpt>
      <trkpt lat="43.67782" lon="3.34391">
        <ele>128.95</ele>
        <time>2013-08-16T08:27:44Z</time>
      </trkpt>
      <trkpt lat="43.67774" lon="3.34443">
        <ele>130.4</ele>
        <time>2013-08-16T08:27:59Z</time>
      </trkpt>
      <trkpt lat="43.6777" lon="3.34457">
        <ele>130.88</ele>
        <time>2013-08-16T08:28:02Z</time>
      </trkpt>
      <trkpt lat="43.67768" lon="3.34461">
        <ele>131.36</ele>
        <time>2013-08-16T08:28:03Z</time>
      </trkpt>
      <trkpt lat="43.67767" lon="3.34463">
        <ele>132.32</ele>
        <time>2013-08-16T08:28:04Z</time>
      </trkpt>
      <trkpt lat="43.67767" lon="3.34464">
        <ele>132.32</ele>
        <time>2013-08-16T08:28:05Z</time>
      </trkpt>
      <trkpt lat="43.67766" lon="3.34465">
        <ele>132.32</ele>
        <time>2013-08-16T08:28:07Z</time>
      </trkpt>
      <trkpt lat="43.67765" lon="3.34465">
        <ele>132.32</ele>
        <time>2013-08-16T08:28:08Z</time>
      </trkpt>
      <trkpt lat="43.67763" lon="3.34467">
        <ele>132.32</ele>
        <time>2013-08-16T08:28:09Z</time>
      </trkpt>
      <trkpt lat="43.67762" lon="3.34469">
        <ele>132.32</ele>
        <time>2013-08-16T08:28:10Z</time>
      </trkpt>
      <trkpt lat="43.67761" lon="3.34472">
        <ele>132.8</ele>
        <time>2013-08-16T08:28:11Z</time>
      </trkpt>
      <trkpt lat="43.67738" lon="3.34491">
        <ele>133.76</ele>
        <time>2013-08-16T08:28:22Z</time>
      </trkpt>
      <trkpt lat="43.67716" lon="3.34502">
        <ele>134.24</ele>
        <time>2013-08-16T08:28:33Z</time>
      </trkpt>
      <trkpt lat="43.67689" lon="3.34517">
        <ele>136.64</ele>
        <time>2013-08-16T08:28:46Z</time>
      </trkpt>
      <trkpt lat="43.67674" lon="3.34535">
        <ele>135.68</ele>
        <time>2013-08-16T08:28:53Z</time>
      </trkpt>
      <trkpt lat="43.67672" lon="3.34539">
        <ele>135.68</ele>
        <time>2013-08-16T08:28:54Z</time>
      </trkpt>
      <trkpt lat="43.67671" lon="3.34543">
        <ele>135.68</ele>
        <time>2013-08-16T08:28:55Z</time>
      </trkpt>
      <trkpt lat="43.67669" lon="3.34546">
        <ele>136.64</ele>
        <time>2013-08-16T08:28:56Z</time>
      </trkpt>
      <trkpt lat="43.67667" lon="3.34548">
        <ele>135.68</ele>
        <time>2013-08-16T08:28:57Z</time>
      </trkpt>
      <trkpt lat="43.67664" lon="3.34549">
        <ele>135.68</ele>
        <time>2013-08-16T08:28:58Z</time>
      </trkpt>
      <trkpt lat="43.67662" lon="3.34551">
        <ele>136.64</ele>
        <time>2013-08-16T08:28:59Z</time>
      </trkpt>
      <trkpt lat="43.67642" lon="3.34579">
        <ele>136.64</ele>
        <time>2013-08-16T08:29:09Z</time>
      </trkpt>
      <trkpt lat="43.67637" lon="3.34586">
        <ele>137.61</ele>
        <time>2013-08-16T08:29:11Z</time>
      </trkpt>
      <trkpt lat="43.67635" lon="3.34587">
        <ele>138.57</ele>
        <time>2013-08-16T08:29:12Z</time>
      </trkpt>
      <trkpt lat="43.67632" lon="3.34586">
        <ele>138.09</ele>
        <time>2013-08-16T08:29:13Z</time>
      </trkpt>
      <trkpt lat="43.6763" lon="3.34586">
        <ele>138.57</ele>
        <time>2013-08-16T08:29:14Z</time>
      </trkpt>
      <trkpt lat="43.67627" lon="3.34586">
        <ele>138.57</ele>
        <time>2013-08-16T08:29:15Z</time>
      </trkpt>
      <trkpt lat="43.67625" lon="3.34586">
        <ele>138.57</ele>
        <time>2013-08-16T08:29:16Z</time>
      </trkpt>
      <trkpt lat="43.67622" lon="3.34587">
        <ele>139.05</ele>
        <time>2013-08-16T08:29:17Z</time>
      </trkpt>
      <trkpt lat="43.6762" lon="3.34587">
        <ele>138.57</ele>
        <time>2013-08-16T08:29:18Z</time>
      </trkpt>
      <trkpt lat="43.67618" lon="3.34588">
        <ele>139.53</ele>
        <time>2013-08-16T08:29:19Z</time>
      </trkpt>
      <trkpt lat="43.67616" lon="3.34591">
        <ele>138.57</ele>
        <time>2013-08-16T08:29:20Z</time>
      </trkpt>
      <trkpt lat="43.67614" lon="3.34592">
        <ele>138.09</ele>
        <time>2013-08-16T08:29:21Z</time>
      </trkpt>
      <trkpt lat="43.67612" lon="3.34594">
        <ele>139.05</ele>
        <time>2013-08-16T08:29:22Z</time>
      </trkpt>
      <trkpt lat="43.67608" lon="3.34597">
        <ele>139.53</ele>
        <time>2013-08-16T08:29:24Z</time>
      </trkpt>
      <trkpt lat="43.6758" lon="3.34619">
        <ele>140.97</ele>
        <time>2013-08-16T08:29:37Z</time>
      </trkpt>
      <trkpt lat="43.67556" lon="3.34655">
        <ele>141.45</ele>
        <time>2013-08-16T08:29:51Z</time>
      </trkpt>
      <trkpt lat="43.67537" lon="3.34699">
        <ele>140.49</ele>
        <time>2013-08-16T08:30:02Z</time>
      </trkpt>
      <trkpt lat="43.67534" lon="3.34701">
        <ele>140.97</ele>
        <time>2013-08-16T08:30:03Z</time>
      </trkpt>
      <trkpt lat="43.67532" lon="3.34703">
        <ele>141.45</ele>
        <time>2013-08-16T08:30:04Z</time>
      </trkpt>
      <trkpt lat="43.6753" lon="3.34706">
        <ele>140.49</ele>
        <time>2013-08-16T08:30:05Z</time>
      </trkpt>
      <trkpt lat="43.67528" lon="3.34709">
        <ele>140.97</ele>
        <time>2013-08-16T08:30:06Z</time>
      </trkpt>
      <trkpt lat="43.67526" lon="3.34712">
        <ele>141.45</ele>
        <time>2013-08-16T08:30:07Z</time>
      </trkpt>
      <trkpt lat="43.67524" lon="3.34715">
        <ele>141.93</ele>
        <time>2013-08-16T08:30:08Z</time>
      </trkpt>
      <trkpt lat="43.67522" lon="3.34719">
        <ele>141.93</ele>
        <time>2013-08-16T08:30:09Z</time>
      </trkpt>
      <trkpt lat="43.67519" lon="3.34722">
        <ele>142.41</ele>
        <time>2013-08-16T08:30:10Z</time>
      </trkpt>
      <trkpt lat="43.67517" lon="3.34726">
        <ele>143.85</ele>
        <time>2013-08-16T08:30:11Z</time>
      </trkpt>
      <trkpt lat="43.67517" lon="3.3473">
        <ele>142.89</ele>
        <time>2013-08-16T08:30:12Z</time>
      </trkpt>
      <trkpt lat="43.67517" lon="3.34733">
        <ele>143.37</ele>
        <time>2013-08-16T08:30:13Z</time>
      </trkpt>
      <trkpt lat="43.67515" lon="3.34754">
        <ele>142.89</ele>
        <time>2013-08-16T08:30:24Z</time>
      </trkpt>
      <trkpt lat="43.67515" lon="3.34756">
        <ele>142.41</ele>
        <time>2013-08-16T08:30:25Z</time>
      </trkpt>
      <trkpt lat="43.67515" lon="3.34758">
        <ele>142.89</ele>
        <time>2013-08-16T08:30:26Z</time>
      </trkpt>
      <trkpt lat="43.67515" lon="3.34761">
        <ele>141.93</ele>
        <time>2013-08-16T08:30:27Z</time>
      </trkpt>
      <trkpt lat="43.67514" lon="3.34764">
        <ele>142.41</ele>
        <time>2013-08-16T08:30:28Z</time>
      </trkpt>
      <trkpt lat="43.67511" lon="3.34807">
        <ele>140.01</ele>
        <time>2013-08-16T08:30:37Z</time>
      </trkpt>
      <trkpt lat="43.67513" lon="3.34827">
        <ele>140.97</ele>
        <time>2013-08-16T08:30:44Z</time>
      </trkpt>
      <trkpt lat="43.67513" lon="3.34835">
        <ele>141.45</ele>
        <time>2013-08-16T08:30:47Z</time>
      </trkpt>
      <trkpt lat="43.67514" lon="3.34838">
        <ele>141.45</ele>
        <time>2013-08-16T08:30:48Z</time>
      </trkpt>
      <trkpt lat="43.67513" lon="3.34839">
        <ele>141.45</ele>
        <time>2013-08-16T08:31:00Z</time>
      </trkpt>
      <trkpt lat="43.67514" lon="3.34839">
        <ele>141.45</ele>
        <time>2013-08-16T08:31:20Z</time>
      </trkpt>
      <trkpt lat="43.67514" lon="3.34839">
        <ele>140.49</ele>
        <time>2013-08-16T08:31:43Z</time>
      </trkpt>
      <trkpt lat="43.67509" lon="3.34854">
        <ele>140.97</ele>
        <time>2013-08-16T08:32:04Z</time>
      </trkpt>
      <trkpt lat="43.67488" lon="3.34885">
        <ele>143.37</ele>
        <time>2013-08-16T08:32:14Z</time>
      </trkpt>
      <trkpt lat="43.67484" lon="3.34886">
        <ele>143.85</ele>
        <time>2013-08-16T08:32:15Z</time>
      </trkpt>
      <trkpt lat="43.67481" lon="3.34888">
        <ele>143.37</ele>
        <time>2013-08-16T08:32:16Z</time>
      </trkpt>
      <trkpt lat="43.67466" lon="3.349">
        <ele>145.78</ele>
        <time>2013-08-16T08:32:22Z</time>
      </trkpt>
      <trkpt lat="43.67466" lon="3.34902">
        <ele>145.78</ele>
        <time>2013-08-16T08:32:30Z</time>
      </trkpt>
      <trkpt lat="43.67465" lon="3.34903">
        <ele>145.3</ele>
        <time>2013-08-16T08:32:31Z</time>
      </trkpt>
      <trkpt lat="43.6745" lon="3.34929">
        <ele>145.78</ele>
        <time>2013-08-16T08:32:41Z</time>
      </trkpt>
      <trkpt lat="43.67449" lon="3.34958">
        <ele>145.3</ele>
        <time>2013-08-16T08:32:48Z</time>
      </trkpt>
      <trkpt lat="43.67448" lon="3.34961">
        <ele>145.3</ele>
        <time>2013-08-16T08:32:49Z</time>
      </trkpt>
      <trkpt lat="43.67447" lon="3.34964">
        <ele>144.82</ele>
        <time>2013-08-16T08:32:50Z</time>
      </trkpt>
      <trkpt lat="43.67445" lon="3.34984">
        <ele>143.85</ele>
        <time>2013-08-16T08:32:55Z</time>
      </trkpt>
      <trkpt lat="43.67447" lon="3.35033">
        <ele>144.34</ele>
        <time>2013-08-16T08:33:06Z</time>
      </trkpt>
      <trkpt lat="43.67444" lon="3.35078">
        <ele>141.93</ele>
        <time>2013-08-16T08:33:17Z</time>
      </trkpt>
      <trkpt lat="43.67433" lon="3.35124">
        <ele>141.45</ele>
        <time>2013-08-16T08:33:28Z</time>
      </trkpt>
      <trkpt lat="43.67415" lon="3.35145">
        <ele>140.01</ele>
        <time>2013-08-16T08:33:37Z</time>
      </trkpt>
      <trkpt lat="43.67401" lon="3.35174">
        <ele>138.57</ele>
        <time>2013-08-16T08:33:48Z</time>
      </trkpt>
      <trkpt lat="43.67401" lon="3.35193">
        <ele>138.09</ele>
        <time>2013-08-16T08:33:53Z</time>
      </trkpt>
      <trkpt lat="43.67399" lon="3.35197">
        <ele>139.05</ele>
        <time>2013-08-16T08:33:54Z</time>
      </trkpt>
      <trkpt lat="43.67397" lon="3.35201">
        <ele>139.53</ele>
        <time>2013-08-16T08:33:55Z</time>
      </trkpt>
      <trkpt lat="43.67394" lon="3.35204">
        <ele>139.53</ele>
        <time>2013-08-16T08:33:56Z</time>
      </trkpt>
      <trkpt lat="43.67391" lon="3.35207">
        <ele>139.53</ele>
        <time>2013-08-16T08:33:57Z</time>
      </trkpt>
      <trkpt lat="43.67388" lon="3.3521">
        <ele>139.05</ele>
        <time>2013-08-16T08:33:58Z</time>
      </trkpt>
      <trkpt lat="43.67385" lon="3.35213">
        <ele>139.53</ele>
        <time>2013-08-16T08:33:59Z</time>
      </trkpt>
      <trkpt lat="43.67382" lon="3.35216">
        <ele>139.53</ele>
        <time>2013-08-16T08:34:00Z</time>
      </trkpt>
      <trkpt lat="43.67351" lon="3.35245">
        <ele>139.53</ele>
        <time>2013-08-16T08:34:13Z</time>
      </trkpt>
      <trkpt lat="43.67321" lon="3.35271">
        <ele>140.97</ele>
        <time>2013-08-16T08:34:24Z</time>
      </trkpt>
      <trkpt lat="43.67296" lon="3.35296">
        <ele>141.45</ele>
        <time>2013-08-16T08:34:35Z</time>
      </trkpt>
      <trkpt lat="43.6726" lon="3.35328">
        <ele>142.89</ele>
        <time>2013-08-16T08:34:50Z</time>
      </trkpt>
      <trkpt lat="43.67205" lon="3.35348">
        <ele>143.85</ele>
        <time>2013-08-16T08:35:10Z</time>
      </trkpt>
      <trkpt lat="43.67162" lon="3.35361">
        <ele>143.85</ele>
        <time>2013-08-16T08:35:25Z</time>
      </trkpt>
      <trkpt lat="43.67144" lon="3.35368">
        <ele>144.82</ele>
        <time>2013-08-16T08:35:30Z</time>
      </trkpt>
      <trkpt lat="43.67142" lon="3.35371">
        <ele>144.34</ele>
        <time>2013-08-16T08:35:31Z</time>
      </trkpt>
      <trkpt lat="43.67138" lon="3.35376">
        <ele>144.34</ele>
        <time>2013-08-16T08:35:33Z</time>
      </trkpt>
      <trkpt lat="43.67135" lon="3.35377">
        <ele>144.34</ele>
        <time>2013-08-16T08:35:34Z</time>
      </trkpt>
      <trkpt lat="43.67132" lon="3.35378">
        <ele>144.82</ele>
        <time>2013-08-16T08:35:35Z</time>
      </trkpt>
      <trkpt lat="43.67093" lon="3.35397">
        <ele>143.85</ele>
        <time>2013-08-16T08:35:48Z</time>
      </trkpt>
      <trkpt lat="43.67054" lon="3.35445">
        <ele>144.82</ele>
        <time>2013-08-16T08:36:04Z</time>
      </trkpt>
      <trkpt lat="43.67041" lon="3.35474">
        <ele>144.34</ele>
        <time>2013-08-16T08:36:15Z</time>
      </trkpt>
      <trkpt lat="43.67041" lon="3.35475">
        <ele>144.82</ele>
        <time>2013-08-16T08:36:16Z</time>
      </trkpt>
      <trkpt lat="43.67037" lon="3.35481">
        <ele>144.82</ele>
        <time>2013-08-16T08:36:21Z</time>
      </trkpt>
      <trkpt lat="43.67037" lon="3.3549">
        <ele>144.82</ele>
        <time>2013-08-16T08:36:25Z</time>
      </trkpt>
      <trkpt lat="43.67031" lon="3.35495">
        <ele>143.85</ele>
        <time>2013-08-16T08:36:30Z</time>
      </trkpt>
      <trkpt lat="43.67016" lon="3.35514">
        <ele>142.41</ele>
        <time>2013-08-16T08:36:35Z</time>
      </trkpt>
      <trkpt lat="43.67013" lon="3.35518">
        <ele>142.89</ele>
        <time>2013-08-16T08:36:36Z</time>
      </trkpt>
      <trkpt lat="43.6701" lon="3.35521">
        <ele>142.41</ele>
        <time>2013-08-16T08:36:37Z</time>
      </trkpt>
      <trkpt lat="43.67007" lon="3.35523">
        <ele>142.41</ele>
        <time>2013-08-16T08:36:38Z</time>
      </trkpt>
      <trkpt lat="43.67005" lon="3.35524">
        <ele>142.41</ele>
        <time>2013-08-16T08:36:39Z</time>
      </trkpt>
      <trkpt lat="43.67002" lon="3.35525">
        <ele>142.41</ele>
        <time>2013-08-16T08:36:40Z</time>
      </trkpt>
      <trkpt lat="43.66999" lon="3.35524">
        <ele>141.93</ele>
        <time>2013-08-16T08:36:41Z</time>
      </trkpt>
      <trkpt lat="43.66993" lon="3.35522">
        <ele>140.97</ele>
        <time>2013-08-16T08:36:43Z</time>
      </trkpt>
      <trkpt lat="43.66953" lon="3.35522">
        <ele>141.45</ele>
        <time>2013-08-16T08:36:56Z</time>
      </trkpt>
      <trkpt lat="43.6694" lon="3.35525">
        <ele>142.41</ele>
        <time>2013-08-16T08:37:02Z</time>
      </trkpt>
      <trkpt lat="43.66917" lon="3.35545">
        <ele>141.93</ele>
        <time>2013-08-16T08:37:15Z</time>
      </trkpt>
      <trkpt lat="43.669" lon="3.35588">
        <ele>142.89</ele>
        <time>2013-08-16T08:37:30Z</time>
      </trkpt>
      <trkpt lat="43.66883" lon="3.35631">
        <ele>142.41</ele>
        <time>2013-08-16T08:37:42Z</time>
      </trkpt>
      <trkpt lat="43.66858" lon="3.3567">
        <ele>142.89</ele>
        <time>2013-08-16T08:37:55Z</time>
      </trkpt>
      <trkpt lat="43.66847" lon="3.35689">
        <ele>141.93</ele>
        <time>2013-08-16T08:38:00Z</time>
      </trkpt>
      <trkpt lat="43.66829" lon="3.35715">
        <ele>143.37</ele>
        <time>2013-08-16T08:38:06Z</time>
      </trkpt>
      <trkpt lat="43.66826" lon="3.35717">
        <ele>143.85</ele>
        <time>2013-08-16T08:38:07Z</time>
      </trkpt>
      <trkpt lat="43.66811" lon="3.35728">
        <ele>141.45</ele>
        <time>2013-08-16T08:38:13Z</time>
      </trkpt>
      <trkpt lat="43.66807" lon="3.35731">
        <ele>140.97</ele>
        <time>2013-08-16T08:38:14Z</time>
      </trkpt>
      <trkpt lat="43.66781" lon="3.35747">
        <ele>144.34</ele>
        <time>2013-08-16T08:38:22Z</time>
      </trkpt>
      <trkpt lat="43.6676" lon="3.35763">
        <ele>145.78</ele>
        <time>2013-08-16T08:38:31Z</time>
      </trkpt>
      <trkpt lat="43.66752" lon="3.35772">
        <ele>147.22</ele>
        <time>2013-08-16T08:38:37Z</time>
      </trkpt>
      <trkpt lat="43.66752" lon="3.35774">
        <ele>146.74</ele>
        <time>2013-08-16T08:38:51Z</time>
      </trkpt>
      <trkpt lat="43.66752" lon="3.35774">
        <ele>146.74</ele>
        <time>2013-08-16T08:39:27Z</time>
      </trkpt>
      <trkpt lat="43.66749" lon="3.35779">
        <ele>146.74</ele>
        <time>2013-08-16T08:39:45Z</time>
      </trkpt>
      <trkpt lat="43.66743" lon="3.35787">
        <ele>144.34</ele>
        <time>2013-08-16T08:39:52Z</time>
      </trkpt>
      <trkpt lat="43.66742" lon="3.35788">
        <ele>143.85</ele>
        <time>2013-08-16T08:39:53Z</time>
      </trkpt>
      <trkpt lat="43.66741" lon="3.3579">
        <ele>143.85</ele>
        <time>2013-08-16T08:39:54Z</time>
      </trkpt>
      <trkpt lat="43.6674" lon="3.35791">
        <ele>143.37</ele>
        <time>2013-08-16T08:39:55Z</time>
      </trkpt>
      <trkpt lat="43.66739" lon="3.35792">
        <ele>142.41</ele>
        <time>2013-08-16T08:39:56Z</time>
      </trkpt>
      <trkpt lat="43.66738" lon="3.35793">
        <ele>141.93</ele>
        <time>2013-08-16T08:39:57Z</time>
      </trkpt>
      <trkpt lat="43.66737" lon="3.35795">
        <ele>142.41</ele>
        <time>2013-08-16T08:39:58Z</time>
      </trkpt>
      <trkpt lat="43.66736" lon="3.35796">
        <ele>141.93</ele>
        <time>2013-08-16T08:39:59Z</time>
      </trkpt>
      <trkpt lat="43.66733" lon="3.35803">
        <ele>141.45</ele>
        <time>2013-08-16T08:40:02Z</time>
      </trkpt>
      <trkpt lat="43.66732" lon="3.35805">
        <ele>141.45</ele>
        <time>2013-08-16T08:40:03Z</time>
      </trkpt>
      <trkpt lat="43.6671" lon="3.35835">
        <ele>141.45</ele>
        <time>2013-08-16T08:40:16Z</time>
      </trkpt>
      <trkpt lat="43.66692" lon="3.35856">
        <ele>141.45</ele>
        <time>2013-08-16T08:40:25Z</time>
      </trkpt>
      <trkpt lat="43.66666" lon="3.35889">
        <ele>140.49</ele>
        <time>2013-08-16T08:40:39Z</time>
      </trkpt>
      <trkpt lat="43.66659" lon="3.35903">
        <ele>142.41</ele>
        <time>2013-08-16T08:40:44Z</time>
      </trkpt>
      <trkpt lat="43.66658" lon="3.35904">
        <ele>142.41</ele>
        <time>2013-08-16T08:40:45Z</time>
      </trkpt>
      <trkpt lat="43.66657" lon="3.35904">
        <ele>142.89</ele>
        <time>2013-08-16T08:40:57Z</time>
      </trkpt>
      <trkpt lat="43.66658" lon="3.35904">
        <ele>141.93</ele>
        <time>2013-08-16T08:40:58Z</time>
      </trkpt>
      <trkpt lat="43.66657" lon="3.35904">
        <ele>142.41</ele>
        <time>2013-08-16T08:40:59Z</time>
      </trkpt>
      <trkpt lat="43.66653" lon="3.35906">
        <ele>141.93</ele>
        <time>2013-08-16T08:41:12Z</time>
      </trkpt>
      <trkpt lat="43.66645" lon="3.3591">
        <ele>141.45</ele>
        <time>2013-08-16T08:41:22Z</time>
      </trkpt>
      <trkpt lat="43.66643" lon="3.35914">
        <ele>141.93</ele>
        <time>2013-08-16T08:41:34Z</time>
      </trkpt>
      <trkpt lat="43.66643" lon="3.35914">
        <ele>141.93</ele>
        <time>2013-08-16T08:41:54Z</time>
      </trkpt>
      <trkpt lat="43.66643" lon="3.35914">
        <ele>140.97</ele>
        <time>2013-08-16T08:42:04Z</time>
      </trkpt>
      <trkpt lat="43.66643" lon="3.35915">
        <ele>142.41</ele>
        <time>2013-08-16T08:42:05Z</time>
      </trkpt>
      <trkpt lat="43.66642" lon="3.35917">
        <ele>141.45</ele>
        <time>2013-08-16T08:42:06Z</time>
      </trkpt>
      <trkpt lat="43.66641" lon="3.3592">
        <ele>141.45</ele>
        <time>2013-08-16T08:42:07Z</time>
      </trkpt>
      <trkpt lat="43.66639" lon="3.35923">
        <ele>141.45</ele>
        <time>2013-08-16T08:42:08Z</time>
      </trkpt>
      <trkpt lat="43.66638" lon="3.35927">
        <ele>141.45</ele>
        <time>2013-08-16T08:42:09Z</time>
      </trkpt>
      <trkpt lat="43.66636" lon="3.3593">
        <ele>141.93</ele>
        <time>2013-08-16T08:42:10Z</time>
      </trkpt>
      <trkpt lat="43.66634" lon="3.35933">
        <ele>141.45</ele>
        <time>2013-08-16T08:42:11Z</time>
      </trkpt>
      <trkpt lat="43.66624" lon="3.35962">
        <ele>142.41</ele>
        <time>2013-08-16T08:42:19Z</time>
      </trkpt>
      <trkpt lat="43.66621" lon="3.35966">
        <ele>142.41</ele>
        <time>2013-08-16T08:42:20Z</time>
      </trkpt>
      <trkpt lat="43.66617" lon="3.35972">
        <ele>141.93</ele>
        <time>2013-08-16T08:42:21Z</time>
      </trkpt>
      <trkpt lat="43.66614" lon="3.35977">
        <ele>141.45</ele>
        <time>2013-08-16T08:42:22Z</time>
      </trkpt>
      <trkpt lat="43.66611" lon="3.35983">
        <ele>141.93</ele>
        <time>2013-08-16T08:42:23Z</time>
      </trkpt>
      <trkpt lat="43.66601" lon="3.36">
        <ele>141.45</ele>
        <time>2013-08-16T08:42:26Z</time>
      </trkpt>
      <trkpt lat="43.66583" lon="3.36019">
        <ele>142.41</ele>
        <time>2013-08-16T08:42:31Z</time>
      </trkpt>
      <trkpt lat="43.66581" lon="3.36024">
        <ele>142.41</ele>
        <time>2013-08-16T08:42:32Z</time>
      </trkpt>
      <trkpt lat="43.66581" lon="3.3603">
        <ele>142.41</ele>
        <time>2013-08-16T08:42:33Z</time>
      </trkpt>
      <trkpt lat="43.66582" lon="3.36036">
        <ele>142.41</ele>
        <time>2013-08-16T08:42:34Z</time>
      </trkpt>
      <trkpt lat="43.66582" lon="3.36042">
        <ele>142.41</ele>
        <time>2013-08-16T08:42:35Z</time>
      </trkpt>
      <trkpt lat="43.66584" lon="3.36048">
        <ele>143.37</ele>
        <time>2013-08-16T08:42:36Z</time>
      </trkpt>
      <trkpt lat="43.66585" lon="3.36053">
        <ele>142.41</ele>
        <time>2013-08-16T08:42:37Z</time>
      </trkpt>
      <trkpt lat="43.66588" lon="3.36058">
        <ele>143.85</ele>
        <time>2013-08-16T08:42:38Z</time>
      </trkpt>
      <trkpt lat="43.6659" lon="3.36061">
        <ele>143.37</ele>
        <time>2013-08-16T08:42:39Z</time>
      </trkpt>
      <trkpt lat="43.66593" lon="3.36064">
        <ele>143.85</ele>
        <time>2013-08-16T08:42:40Z</time>
      </trkpt>
      <trkpt lat="43.66596" lon="3.36067">
        <ele>144.34</ele>
        <time>2013-08-16T08:42:41Z</time>
      </trkpt>
      <trkpt lat="43.66599" lon="3.36069">
        <ele>144.34</ele>
        <time>2013-08-16T08:42:42Z</time>
      </trkpt>
      <trkpt lat="43.66614" lon="3.36092">
        <ele>142.89</ele>
        <time>2013-08-16T08:42:53Z</time>
      </trkpt>
      <trkpt lat="43.66623" lon="3.36118">
        <ele>140.97</ele>
        <time>2013-08-16T08:43:03Z</time>
      </trkpt>
      <trkpt lat="43.66624" lon="3.36141">
        <ele>141.45</ele>
        <time>2013-08-16T08:43:09Z</time>
      </trkpt>
      <trkpt lat="43.66622" lon="3.36144">
        <ele>142.41</ele>
        <time>2013-08-16T08:43:10Z</time>
      </trkpt>
      <trkpt lat="43.66616" lon="3.36157">
        <ele>142.89</ele>
        <time>2013-08-16T08:43:17Z</time>
      </trkpt>
      <trkpt lat="43.66617" lon="3.36159">
        <ele>142.89</ele>
        <time>2013-08-16T08:43:34Z</time>
      </trkpt>
      <trkpt lat="43.66617" lon="3.36159">
        <ele>142.89</ele>
        <time>2013-08-16T08:44:00Z</time>
      </trkpt>
      <trkpt lat="43.66616" lon="3.36167">
        <ele>141.93</ele>
        <time>2013-08-16T08:44:11Z</time>
      </trkpt>
      <trkpt lat="43.66619" lon="3.36191">
        <ele>141.45</ele>
        <time>2013-08-16T08:44:23Z</time>
      </trkpt>
      <trkpt lat="43.66632" lon="3.36221">
        <ele>141.45</ele>
        <time>2013-08-16T08:44:35Z</time>
      </trkpt>
      <trkpt lat="43.6663" lon="3.3624">
        <ele>141.93</ele>
        <time>2013-08-16T08:44:40Z</time>
      </trkpt>
      <trkpt lat="43.66631" lon="3.36242">
        <ele>142.41</ele>
        <time>2013-08-16T08:44:41Z</time>
      </trkpt>
      <trkpt lat="43.66632" lon="3.3625">
        <ele>142.89</ele>
        <time>2013-08-16T08:44:47Z</time>
      </trkpt>
      <trkpt lat="43.66628" lon="3.36266">
        <ele>141.45</ele>
        <time>2013-08-16T08:44:52Z</time>
      </trkpt>
      <trkpt lat="43.66626" lon="3.3627">
        <ele>142.89</ele>
        <time>2013-08-16T08:45:01Z</time>
      </trkpt>
      <trkpt lat="43.66626" lon="3.36269">
        <ele>142.89</ele>
        <time>2013-08-16T08:45:02Z</time>
      </trkpt>
      <trkpt lat="43.66623" lon="3.3627">
        <ele>142.89</ele>
        <time>2013-08-16T08:45:05Z</time>
      </trkpt>
      <trkpt lat="43.6662" lon="3.36271">
        <ele>143.85</ele>
        <time>2013-08-16T08:45:08Z</time>
      </trkpt>
      <trkpt lat="43.66619" lon="3.36271">
        <ele>142.89</ele>
        <time>2013-08-16T08:45:09Z</time>
      </trkpt>
      <trkpt lat="43.66617" lon="3.36271">
        <ele>142.41</ele>
        <time>2013-08-16T08:45:10Z</time>
      </trkpt>
      <trkpt lat="43.66616" lon="3.36271">
        <ele>143.37</ele>
        <time>2013-08-16T08:45:12Z</time>
      </trkpt>
      <trkpt lat="43.66607" lon="3.36272">
        <ele>144.82</ele>
        <time>2013-08-16T08:45:20Z</time>
      </trkpt>
      <trkpt lat="43.66604" lon="3.36272">
        <ele>144.82</ele>
        <time>2013-08-16T08:45:31Z</time>
      </trkpt>
      <trkpt lat="43.66602" lon="3.36273">
        <ele>145.3</ele>
        <time>2013-08-16T08:45:32Z</time>
      </trkpt>
      <trkpt lat="43.66601" lon="3.36273">
        <ele>144.34</ele>
        <time>2013-08-16T08:45:33Z</time>
      </trkpt>
      <trkpt lat="43.66599" lon="3.36273">
        <ele>144.34</ele>
        <time>2013-08-16T08:45:34Z</time>
      </trkpt>
      <trkpt lat="43.66598" lon="3.36274">
        <ele>144.82</ele>
        <time>2013-08-16T08:45:35Z</time>
      </trkpt>
      <trkpt lat="43.66596" lon="3.36274">
        <ele>144.82</ele>
        <time>2013-08-16T08:45:36Z</time>
      </trkpt>
      <trkpt lat="43.66595" lon="3.36274">
        <ele>144.82</ele>
        <time>2013-08-16T08:45:37Z</time>
      </trkpt>
      <trkpt lat="43.66584" lon="3.36275">
        <ele>143.85</ele>
        <time>2013-08-16T08:45:41Z</time>
      </trkpt>
      <trkpt lat="43.66582" lon="3.36277">
        <ele>143.37</ele>
        <time>2013-08-16T08:45:42Z</time>
      </trkpt>
      <trkpt lat="43.6658" lon="3.36277">
        <ele>143.85</ele>
        <time>2013-08-16T08:45:43Z</time>
      </trkpt>
      <trkpt lat="43.66557" lon="3.36292">
        <ele>144.34</ele>
        <time>2013-08-16T08:45:55Z</time>
      </trkpt>
      <trkpt lat="43.66542" lon="3.36341">
        <ele>142.89</ele>
        <time>2013-08-16T08:46:06Z</time>
      </trkpt>
      <trkpt lat="43.6655" lon="3.3641">
        <ele>142.41</ele>
        <time>2013-08-16T08:46:20Z</time>
      </trkpt>
      <trkpt lat="43.66539" lon="3.36453">
        <ele>142.41</ele>
        <time>2013-08-16T08:46:31Z</time>
      </trkpt>
      <trkpt lat="43.66524" lon="3.36486">
        <ele>143.37</ele>
        <time>2013-08-16T08:46:42Z</time>
      </trkpt>
      <trkpt lat="43.66501" lon="3.36518">
        <ele>143.37</ele>
        <time>2013-08-16T08:46:54Z</time>
      </trkpt>
      <trkpt lat="43.66489" lon="3.36554">
        <ele>144.34</ele>
        <time>2013-08-16T08:47:04Z</time>
      </trkpt>
      <trkpt lat="43.66486" lon="3.36566">
        <ele>143.37</ele>
        <time>2013-08-16T08:47:08Z</time>
      </trkpt>
      <trkpt lat="43.66486" lon="3.36569">
        <ele>143.37</ele>
        <time>2013-08-16T08:47:09Z</time>
      </trkpt>
      <trkpt lat="43.66486" lon="3.36572">
        <ele>143.37</ele>
        <time>2013-08-16T08:47:10Z</time>
      </trkpt>
      <trkpt lat="43.66487" lon="3.36574">
        <ele>143.37</ele>
        <time>2013-08-16T08:47:11Z</time>
      </trkpt>
      <trkpt lat="43.66488" lon="3.36576">
        <ele>142.89</ele>
        <time>2013-08-16T08:47:12Z</time>
      </trkpt>
      <trkpt lat="43.66488" lon="3.36578">
        <ele>142.89</ele>
        <time>2013-08-16T08:47:13Z</time>
      </trkpt>
      <trkpt lat="43.6648" lon="3.36598">
        <ele>141.45</ele>
        <time>2013-08-16T08:47:20Z</time>
      </trkpt>
      <trkpt lat="43.66473" lon="3.36604">
        <ele>143.37</ele>
        <time>2013-08-16T08:47:23Z</time>
      </trkpt>
      <trkpt lat="43.66471" lon="3.36606">
        <ele>144.34</ele>
        <time>2013-08-16T08:47:24Z</time>
      </trkpt>
      <trkpt lat="43.66469" lon="3.36608">
        <ele>143.85</ele>
        <time>2013-08-16T08:47:25Z</time>
      </trkpt>
      <trkpt lat="43.66469" lon="3.3661">
        <ele>143.85</ele>
        <time>2013-08-16T08:47:26Z</time>
      </trkpt>
      <trkpt lat="43.66468" lon="3.36612">
        <ele>144.34</ele>
        <time>2013-08-16T08:47:27Z</time>
      </trkpt>
      <trkpt lat="43.66467" lon="3.36614">
        <ele>144.34</ele>
        <time>2013-08-16T08:47:28Z</time>
      </trkpt>
      <trkpt lat="43.66465" lon="3.3662">
        <ele>144.82</ele>
        <time>2013-08-16T08:47:31Z</time>
      </trkpt>
      <trkpt lat="43.66464" lon="3.36622">
        <ele>144.82</ele>
        <time>2013-08-16T08:47:32Z</time>
      </trkpt>
      <trkpt lat="43.66463" lon="3.36624">
        <ele>144.82</ele>
        <time>2013-08-16T08:47:33Z</time>
      </trkpt>
      <trkpt lat="43.66459" lon="3.36637">
        <ele>145.78</ele>
        <time>2013-08-16T08:47:39Z</time>
      </trkpt>
      <trkpt lat="43.66451" lon="3.36669">
        <ele>144.82</ele>
        <time>2013-08-16T08:47:56Z</time>
      </trkpt>
      <trkpt lat="43.66446" lon="3.36691">
        <ele>145.78</ele>
        <time>2013-08-16T08:48:05Z</time>
      </trkpt>
      <trkpt lat="43.66444" lon="3.36692">
        <ele>144.82</ele>
        <time>2013-08-16T08:48:06Z</time>
      </trkpt>
      <trkpt lat="43.66443" lon="3.36694">
        <ele>144.82</ele>
        <time>2013-08-16T08:48:07Z</time>
      </trkpt>
      <trkpt lat="43.66442" lon="3.36696">
        <ele>145.78</ele>
        <time>2013-08-16T08:48:08Z</time>
      </trkpt>
      <trkpt lat="43.66441" lon="3.36698">
        <ele>145.78</ele>
        <time>2013-08-16T08:48:09Z</time>
      </trkpt>
      <trkpt lat="43.66431" lon="3.36734">
        <ele>146.26</ele>
        <time>2013-08-16T08:48:23Z</time>
      </trkpt>
      <trkpt lat="43.66421" lon="3.36777">
        <ele>146.74</ele>
        <time>2013-08-16T08:48:36Z</time>
      </trkpt>
      <trkpt lat="43.6642" lon="3.36782">
        <ele>145.3</ele>
        <time>2013-08-16T08:48:37Z</time>
      </trkpt>
      <trkpt lat="43.66421" lon="3.36799">
        <ele>145.3</ele>
        <time>2013-08-16T08:48:40Z</time>
      </trkpt>
      <trkpt lat="43.66421" lon="3.36806">
        <ele>144.34</ele>
        <time>2013-08-16T08:48:41Z</time>
      </trkpt>
      <trkpt lat="43.66421" lon="3.36813">
        <ele>144.34</ele>
        <time>2013-08-16T08:48:42Z</time>
      </trkpt>
      <trkpt lat="43.6642" lon="3.3682">
        <ele>144.34</ele>
        <time>2013-08-16T08:48:43Z</time>
      </trkpt>
      <trkpt lat="43.6642" lon="3.36827">
        <ele>144.34</ele>
        <time>2013-08-16T08:48:44Z</time>
      </trkpt>
      <trkpt lat="43.66419" lon="3.36839">
        <ele>144.34</ele>
        <time>2013-08-16T08:48:46Z</time>
      </trkpt>
      <trkpt lat="43.66417" lon="3.36844">
        <ele>144.34</ele>
        <time>2013-08-16T08:48:47Z</time>
      </trkpt>
      <trkpt lat="43.66414" lon="3.36848">
        <ele>144.34</ele>
        <time>2013-08-16T08:48:48Z</time>
      </trkpt>
      <trkpt lat="43.66393" lon="3.3688">
        <ele>146.26</ele>
        <time>2013-08-16T08:49:00Z</time>
      </trkpt>
      <trkpt lat="43.66383" lon="3.36903">
        <ele>146.26</ele>
        <time>2013-08-16T08:49:08Z</time>
      </trkpt>
      <trkpt lat="43.66374" lon="3.36915">
        <ele>148.66</ele>
        <time>2013-08-16T08:49:13Z</time>
      </trkpt>
      <trkpt lat="43.66374" lon="3.36922">
        <ele>148.66</ele>
        <time>2013-08-16T08:49:16Z</time>
      </trkpt>
      <trkpt lat="43.66373" lon="3.36923">
        <ele>149.14</ele>
        <time>2013-08-16T08:49:17Z</time>
      </trkpt>
      <trkpt lat="43.66372" lon="3.36924">
        <ele>148.66</ele>
        <time>2013-08-16T08:49:18Z</time>
      </trkpt>
      <trkpt lat="43.66371" lon="3.36926">
        <ele>148.66</ele>
        <time>2013-08-16T08:49:19Z</time>
      </trkpt>
      <trkpt lat="43.6637" lon="3.36928">
        <ele>148.66</ele>
        <time>2013-08-16T08:49:20Z</time>
      </trkpt>
      <trkpt lat="43.66369" lon="3.3693">
        <ele>148.66</ele>
        <time>2013-08-16T08:49:21Z</time>
      </trkpt>
      <trkpt lat="43.66369" lon="3.36932">
        <ele>148.66</ele>
        <time>2013-08-16T08:49:22Z</time>
      </trkpt>
      <trkpt lat="43.66357" lon="3.36971">
        <ele>147.22</ele>
        <time>2013-08-16T08:49:32Z</time>
      </trkpt>
      <trkpt lat="43.66345" lon="3.37004">
        <ele>145.78</ele>
        <time>2013-08-16T08:49:41Z</time>
      </trkpt>
      <trkpt lat="43.66343" lon="3.37006">
        <ele>144.82</ele>
        <time>2013-08-16T08:49:42Z</time>
      </trkpt>
      <trkpt lat="43.66332" lon="3.37018">
        <ele>144.34</ele>
        <time>2013-08-16T08:49:50Z</time>
      </trkpt>
      <trkpt lat="43.66331" lon="3.37019">
        <ele>144.34</ele>
        <time>2013-08-16T08:49:51Z</time>
      </trkpt>
      <trkpt lat="43.6633" lon="3.3702">
        <ele>143.85</ele>
        <time>2013-08-16T08:49:52Z</time>
      </trkpt>
      <trkpt lat="43.66329" lon="3.37022">
        <ele>144.82</ele>
        <time>2013-08-16T08:49:53Z</time>
      </trkpt>
      <trkpt lat="43.66328" lon="3.37024">
        <ele>144.82</ele>
        <time>2013-08-16T08:49:54Z</time>
      </trkpt>
      <trkpt lat="43.66325" lon="3.3703">
        <ele>143.85</ele>
        <time>2013-08-16T08:50:03Z</time>
      </trkpt>
      <trkpt lat="43.66324" lon="3.37031">
        <ele>143.85</ele>
        <time>2013-08-16T08:50:04Z</time>
      </trkpt>
      <trkpt lat="43.66324" lon="3.37033">
        <ele>143.85</ele>
        <time>2013-08-16T08:50:05Z</time>
      </trkpt>
      <trkpt lat="43.6632" lon="3.37039">
        <ele>145.3</ele>
        <time>2013-08-16T08:50:13Z</time>
      </trkpt>
      <trkpt lat="43.6632" lon="3.3704">
        <ele>144.82</ele>
        <time>2013-08-16T08:50:14Z</time>
      </trkpt>
      <trkpt lat="43.66316" lon="3.37044">
        <ele>145.78</ele>
        <time>2013-08-16T08:50:18Z</time>
      </trkpt>
      <trkpt lat="43.66315" lon="3.37044">
        <ele>144.82</ele>
        <time>2013-08-16T08:50:19Z</time>
      </trkpt>
      <trkpt lat="43.66314" lon="3.37044">
        <ele>145.3</ele>
        <time>2013-08-16T08:50:20Z</time>
      </trkpt>
      <trkpt lat="43.66313" lon="3.37045">
        <ele>145.3</ele>
        <time>2013-08-16T08:50:33Z</time>
      </trkpt>
      <trkpt lat="43.66313" lon="3.37045">
        <ele>149.14</ele>
        <time>2013-08-16T08:50:36Z</time>
      </trkpt>
      <trkpt lat="43.66313" lon="3.37045">
        <ele>148.66</ele>
        <time>2013-08-16T08:50:37Z</time>
      </trkpt>
      <trkpt lat="43.66313" lon="3.37045">
        <ele>144.82</ele>
        <time>2013-08-16T08:50:39Z</time>
      </trkpt>
      <trkpt lat="43.66313" lon="3.37045">
        <ele>145.3</ele>
        <time>2013-08-16T08:50:44Z</time>
      </trkpt>
      <trkpt lat="43.66311" lon="3.37046">
        <ele>145.78</ele>
        <time>2013-08-16T08:50:45Z</time>
      </trkpt>
      <trkpt lat="43.66309" lon="3.37047">
        <ele>144.82</ele>
        <time>2013-08-16T08:50:46Z</time>
      </trkpt>
      <trkpt lat="43.66308" lon="3.37049">
        <ele>145.3</ele>
        <time>2013-08-16T08:50:47Z</time>
      </trkpt>
      <trkpt lat="43.66306" lon="3.37052">
        <ele>145.3</ele>
        <time>2013-08-16T08:50:48Z</time>
      </trkpt>
      <trkpt lat="43.66304" lon="3.37054">
        <ele>146.26</ele>
        <time>2013-08-16T08:50:49Z</time>
      </trkpt>
      <trkpt lat="43.66303" lon="3.37056">
        <ele>145.3</ele>
        <time>2013-08-16T08:50:50Z</time>
      </trkpt>
      <trkpt lat="43.66286" lon="3.37082">
        <ele>147.22</ele>
        <time>2013-08-16T08:51:03Z</time>
      </trkpt>
      <trkpt lat="43.66281" lon="3.37123">
        <ele>147.7</ele>
        <time>2013-08-16T08:51:16Z</time>
      </trkpt>
      <trkpt lat="43.66291" lon="3.37165">
        <ele>147.7</ele>
        <time>2013-08-16T08:51:31Z</time>
      </trkpt>
      <trkpt lat="43.66301" lon="3.37175">
        <ele>152.03</ele>
        <time>2013-08-16T08:51:37Z</time>
      </trkpt>
      <trkpt lat="43.6631" lon="3.37191">
        <ele>150.1</ele>
        <time>2013-08-16T08:51:46Z</time>
      </trkpt>
      <trkpt lat="43.66311" lon="3.37193">
        <ele>150.58</ele>
        <time>2013-08-16T08:51:47Z</time>
      </trkpt>
      <trkpt lat="43.66311" lon="3.37194">
        <ele>150.1</ele>
        <time>2013-08-16T08:51:48Z</time>
      </trkpt>
      <trkpt lat="43.66313" lon="3.37193">
        <ele>150.1</ele>
        <time>2013-08-16T08:51:57Z</time>
      </trkpt>
      <trkpt lat="43.66312" lon="3.3719">
        <ele>150.58</ele>
        <time>2013-08-16T08:51:59Z</time>
      </trkpt>
      <trkpt lat="43.66311" lon="3.37189">
        <ele>150.1</ele>
        <time>2013-08-16T08:52:00Z</time>
      </trkpt>
      <trkpt lat="43.6631" lon="3.37186">
        <ele>149.62</ele>
        <time>2013-08-16T08:52:01Z</time>
      </trkpt>
      <trkpt lat="43.66309" lon="3.37184">
        <ele>149.62</ele>
        <time>2013-08-16T08:52:02Z</time>
      </trkpt>
      <trkpt lat="43.66307" lon="3.37183">
        <ele>150.1</ele>
        <time>2013-08-16T08:52:03Z</time>
      </trkpt>
      <trkpt lat="43.66305" lon="3.37181">
        <ele>149.14</ele>
        <time>2013-08-16T08:52:04Z</time>
      </trkpt>
      <trkpt lat="43.66302" lon="3.37178">
        <ele>149.14</ele>
        <time>2013-08-16T08:52:05Z</time>
      </trkpt>
      <trkpt lat="43.663" lon="3.37176">
        <ele>149.14</ele>
        <time>2013-08-16T08:52:06Z</time>
      </trkpt>
      <trkpt lat="43.66298" lon="3.37173">
        <ele>149.14</ele>
        <time>2013-08-16T08:52:07Z</time>
      </trkpt>
      <trkpt lat="43.66296" lon="3.3717">
        <ele>148.66</ele>
        <time>2013-08-16T08:52:08Z</time>
      </trkpt>
      <trkpt lat="43.66294" lon="3.37168">
        <ele>149.14</ele>
        <time>2013-08-16T08:52:09Z</time>
      </trkpt>
      <trkpt lat="43.66292" lon="3.37167">
        <ele>148.18</ele>
        <time>2013-08-16T08:52:10Z</time>
      </trkpt>
      <trkpt lat="43.6629" lon="3.37167">
        <ele>148.18</ele>
        <time>2013-08-16T08:52:11Z</time>
      </trkpt>
      <trkpt lat="43.66288" lon="3.37168">
        <ele>148.18</ele>
        <time>2013-08-16T08:52:12Z</time>
      </trkpt>
      <trkpt lat="43.66287" lon="3.3717">
        <ele>148.18</ele>
        <time>2013-08-16T08:52:13Z</time>
      </trkpt>
      <trkpt lat="43.66287" lon="3.37173">
        <ele>147.7</ele>
        <time>2013-08-16T08:52:14Z</time>
      </trkpt>
      <trkpt lat="43.66287" lon="3.37175">
        <ele>148.18</ele>
        <time>2013-08-16T08:52:15Z</time>
      </trkpt>
      <trkpt lat="43.66287" lon="3.37177">
        <ele>147.7</ele>
        <time>2013-08-16T08:52:16Z</time>
      </trkpt>
      <trkpt lat="43.66287" lon="3.37178">
        <ele>148.18</ele>
        <time>2013-08-16T08:52:17Z</time>
      </trkpt>
      <trkpt lat="43.66286" lon="3.3718">
        <ele>148.18</ele>
        <time>2013-08-16T08:52:18Z</time>
      </trkpt>
      <trkpt lat="43.66286" lon="3.37182">
        <ele>148.66</ele>
        <time>2013-08-16T08:52:19Z</time>
      </trkpt>
      <trkpt lat="43.66286" lon="3.37184">
        <ele>148.66</ele>
        <time>2013-08-16T08:52:20Z</time>
      </trkpt>
      <trkpt lat="43.66285" lon="3.37186">
        <ele>148.18</ele>
        <time>2013-08-16T08:52:21Z</time>
      </trkpt>
      <trkpt lat="43.66285" lon="3.37189">
        <ele>148.18</ele>
        <time>2013-08-16T08:52:22Z</time>
      </trkpt>
      <trkpt lat="43.66284" lon="3.37193">
        <ele>147.22</ele>
        <time>2013-08-16T08:52:23Z</time>
      </trkpt>
      <trkpt lat="43.66284" lon="3.37196">
        <ele>147.7</ele>
        <time>2013-08-16T08:52:24Z</time>
      </trkpt>
      <trkpt lat="43.66284" lon="3.37198">
        <ele>147.7</ele>
        <time>2013-08-16T08:52:25Z</time>
      </trkpt>
      <trkpt lat="43.66283" lon="3.372">
        <ele>147.22</ele>
        <time>2013-08-16T08:52:26Z</time>
      </trkpt>
      <trkpt lat="43.66283" lon="3.37202">
        <ele>147.7</ele>
        <time>2013-08-16T08:52:27Z</time>
      </trkpt>
      <trkpt lat="43.66277" lon="3.37234">
        <ele>144.82</ele>
        <time>2013-08-16T08:52:41Z</time>
      </trkpt>
      <trkpt lat="43.66267" lon="3.37266">
        <ele>143.85</ele>
        <time>2013-08-16T08:52:52Z</time>
      </trkpt>
      <trkpt lat="43.66262" lon="3.37317">
        <ele>143.85</ele>
        <time>2013-08-16T08:53:06Z</time>
      </trkpt>
      <trkpt lat="43.66266" lon="3.37328">
        <ele>142.89</ele>
        <time>2013-08-16T08:53:09Z</time>
      </trkpt>
      <trkpt lat="43.66266" lon="3.37332">
        <ele>142.41</ele>
        <time>2013-08-16T08:53:10Z</time>
      </trkpt>
      <trkpt lat="43.66264" lon="3.37337">
        <ele>142.41</ele>
        <time>2013-08-16T08:53:11Z</time>
      </trkpt>
      <trkpt lat="43.66258" lon="3.3736">
        <ele>144.34</ele>
        <time>2013-08-16T08:53:20Z</time>
      </trkpt>
      <trkpt lat="43.66256" lon="3.37366">
        <ele>143.85</ele>
        <time>2013-08-16T08:53:32Z</time>
      </trkpt>
      <trkpt lat="43.66255" lon="3.37368">
        <ele>143.85</ele>
        <time>2013-08-16T08:53:33Z</time>
      </trkpt>
      <trkpt lat="43.66253" lon="3.3737">
        <ele>143.85</ele>
        <time>2013-08-16T08:53:34Z</time>
      </trkpt>
      <trkpt lat="43.66252" lon="3.37374">
        <ele>143.37</ele>
        <time>2013-08-16T08:53:35Z</time>
      </trkpt>
      <trkpt lat="43.66252" lon="3.37377">
        <ele>143.85</ele>
        <time>2013-08-16T08:53:36Z</time>
      </trkpt>
      <trkpt lat="43.66251" lon="3.37381">
        <ele>143.37</ele>
        <time>2013-08-16T08:53:37Z</time>
      </trkpt>
      <trkpt lat="43.66256" lon="3.37428">
        <ele>143.37</ele>
        <time>2013-08-16T08:53:49Z</time>
      </trkpt>
      <trkpt lat="43.66268" lon="3.37452">
        <ele>142.89</ele>
        <time>2013-08-16T08:53:58Z</time>
      </trkpt>
      <trkpt lat="43.66269" lon="3.37455">
        <ele>142.41</ele>
        <time>2013-08-16T08:53:59Z</time>
      </trkpt>
      <trkpt lat="43.6627" lon="3.37458">
        <ele>142.89</ele>
        <time>2013-08-16T08:54:00Z</time>
      </trkpt>
      <trkpt lat="43.66271" lon="3.37461">
        <ele>143.37</ele>
        <time>2013-08-16T08:54:01Z</time>
      </trkpt>
      <trkpt lat="43.66271" lon="3.37463">
        <ele>143.37</ele>
        <time>2013-08-16T08:54:02Z</time>
      </trkpt>
      <trkpt lat="43.66271" lon="3.37467">
        <ele>142.41</ele>
        <time>2013-08-16T08:54:03Z</time>
      </trkpt>
      <trkpt lat="43.6627" lon="3.37469">
        <ele>142.41</ele>
        <time>2013-08-16T08:54:04Z</time>
      </trkpt>
      <trkpt lat="43.66267" lon="3.37483">
        <ele>142.41</ele>
        <time>2013-08-16T08:54:12Z</time>
      </trkpt>
      <trkpt lat="43.66269" lon="3.37495">
        <ele>141.93</ele>
        <time>2013-08-16T08:54:16Z</time>
      </trkpt>
      <trkpt lat="43.66269" lon="3.37498">
        <ele>142.41</ele>
        <time>2013-08-16T08:54:17Z</time>
      </trkpt>
      <trkpt lat="43.66268" lon="3.37501">
        <ele>142.89</ele>
        <time>2013-08-16T08:54:18Z</time>
      </trkpt>
      <trkpt lat="43.66268" lon="3.37503">
        <ele>142.89</ele>
        <time>2013-08-16T08:54:19Z</time>
      </trkpt>
      <trkpt lat="43.66267" lon="3.37506">
        <ele>142.41</ele>
        <time>2013-08-16T08:54:20Z</time>
      </trkpt>
      <trkpt lat="43.66267" lon="3.37509">
        <ele>142.89</ele>
        <time>2013-08-16T08:54:21Z</time>
      </trkpt>
      <trkpt lat="43.66267" lon="3.37512">
        <ele>141.93</ele>
        <time>2013-08-16T08:54:22Z</time>
      </trkpt>
      <trkpt lat="43.66267" lon="3.37515">
        <ele>142.41</ele>
        <time>2013-08-16T08:54:23Z</time>
      </trkpt>
      <trkpt lat="43.66268" lon="3.37517">
        <ele>142.89</ele>
        <time>2013-08-16T08:54:24Z</time>
      </trkpt>
      <trkpt lat="43.66269" lon="3.3752">
        <ele>142.41</ele>
        <time>2013-08-16T08:54:25Z</time>
      </trkpt>
      <trkpt lat="43.66269" lon="3.37523">
        <ele>141.93</ele>
        <time>2013-08-16T08:54:26Z</time>
      </trkpt>
      <trkpt lat="43.6628" lon="3.37549">
        <ele>142.41</ele>
        <time>2013-08-16T08:54:37Z</time>
      </trkpt>
      <trkpt lat="43.66284" lon="3.37569">
        <ele>142.89</ele>
        <time>2013-08-16T08:54:45Z</time>
      </trkpt>
      <trkpt lat="43.66283" lon="3.3757">
        <ele>142.41</ele>
        <time>2013-08-16T08:54:46Z</time>
      </trkpt>
      <trkpt lat="43.66283" lon="3.37573">
        <ele>142.89</ele>
        <time>2013-08-16T08:54:48Z</time>
      </trkpt>
      <trkpt lat="43.66284" lon="3.37575">
        <ele>142.89</ele>
        <time>2013-08-16T08:54:49Z</time>
      </trkpt>
      <trkpt lat="43.66284" lon="3.37577">
        <ele>142.41</ele>
        <time>2013-08-16T08:54:50Z</time>
      </trkpt>
      <trkpt lat="43.66277" lon="3.37613">
        <ele>142.89</ele>
        <time>2013-08-16T08:55:03Z</time>
      </trkpt>
      <trkpt lat="43.66269" lon="3.37646">
        <ele>143.37</ele>
        <time>2013-08-16T08:55:15Z</time>
      </trkpt>
      <trkpt lat="43.66273" lon="3.3766">
        <ele>142.89</ele>
        <time>2013-08-16T08:55:22Z</time>
      </trkpt>
      <trkpt lat="43.66273" lon="3.37662">
        <ele>143.85</ele>
        <time>2013-08-16T08:55:23Z</time>
      </trkpt>
      <trkpt lat="43.66277" lon="3.37675">
        <ele>143.37</ele>
        <time>2013-08-16T08:55:28Z</time>
      </trkpt>
      <trkpt lat="43.66277" lon="3.37677">
        <ele>143.37</ele>
        <time>2013-08-16T08:55:29Z</time>
      </trkpt>
      <trkpt lat="43.66278" lon="3.37679">
        <ele>143.85</ele>
        <time>2013-08-16T08:55:30Z</time>
      </trkpt>
      <trkpt lat="43.66278" lon="3.37682">
        <ele>143.37</ele>
        <time>2013-08-16T08:55:31Z</time>
      </trkpt>
      <trkpt lat="43.66277" lon="3.37685">
        <ele>144.34</ele>
        <time>2013-08-16T08:55:32Z</time>
      </trkpt>
      <trkpt lat="43.66275" lon="3.37687">
        <ele>144.34</ele>
        <time>2013-08-16T08:55:33Z</time>
      </trkpt>
      <trkpt lat="43.66273" lon="3.37689">
        <ele>144.82</ele>
        <time>2013-08-16T08:55:34Z</time>
      </trkpt>
      <trkpt lat="43.66272" lon="3.37691">
        <ele>144.82</ele>
        <time>2013-08-16T08:55:35Z</time>
      </trkpt>
      <trkpt lat="43.66271" lon="3.37694">
        <ele>144.82</ele>
        <time>2013-08-16T08:55:36Z</time>
      </trkpt>
      <trkpt lat="43.6627" lon="3.37697">
        <ele>144.82</ele>
        <time>2013-08-16T08:55:37Z</time>
      </trkpt>
      <trkpt lat="43.66268" lon="3.37709">
        <ele>145.3</ele>
        <time>2013-08-16T08:55:41Z</time>
      </trkpt>
      <trkpt lat="43.66257" lon="3.37727">
        <ele>145.3</ele>
        <time>2013-08-16T08:55:49Z</time>
      </trkpt>
      <trkpt lat="43.66257" lon="3.37729">
        <ele>145.78</ele>
        <time>2013-08-16T08:55:50Z</time>
      </trkpt>
      <trkpt lat="43.66257" lon="3.37732">
        <ele>145.78</ele>
        <time>2013-08-16T08:55:51Z</time>
      </trkpt>
      <trkpt lat="43.66256" lon="3.37734">
        <ele>145.78</ele>
        <time>2013-08-16T08:55:52Z</time>
      </trkpt>
      <trkpt lat="43.66256" lon="3.37736">
        <ele>145.78</ele>
        <time>2013-08-16T08:55:53Z</time>
      </trkpt>
      <trkpt lat="43.66255" lon="3.37738">
        <ele>145.78</ele>
        <time>2013-08-16T08:55:54Z</time>
      </trkpt>
      <trkpt lat="43.66255" lon="3.3774">
        <ele>145.3</ele>
        <time>2013-08-16T08:55:55Z</time>
      </trkpt>
      <trkpt lat="43.66255" lon="3.37742">
        <ele>144.82</ele>
        <time>2013-08-16T08:55:56Z</time>
      </trkpt>
      <trkpt lat="43.66255" lon="3.37752">
        <ele>144.34</ele>
        <time>2013-08-16T08:56:07Z</time>
      </trkpt>
      <trkpt lat="43.66255" lon="3.37756">
        <ele>144.34</ele>
        <time>2013-08-16T08:56:14Z</time>
      </trkpt>
      <trkpt lat="43.66253" lon="3.3777">
        <ele>143.37</ele>
        <time>2013-08-16T08:56:26Z</time>
      </trkpt>
      <trkpt lat="43.66248" lon="3.3778">
        <ele>143.37</ele>
        <time>2013-08-16T08:56:36Z</time>
      </trkpt>
      <trkpt lat="43.66244" lon="3.37788">
        <ele>144.82</ele>
        <time>2013-08-16T08:56:48Z</time>
      </trkpt>
      <trkpt lat="43.66236" lon="3.37803">
        <ele>145.78</ele>
        <time>2013-08-16T08:57:03Z</time>
      </trkpt>
      <trkpt lat="43.66234" lon="3.37805">
        <ele>145.78</ele>
        <time>2013-08-16T08:57:05Z</time>
      </trkpt>
      <trkpt lat="43.66233" lon="3.37805">
        <ele>145.78</ele>
        <time>2013-08-16T08:57:06Z</time>
      </trkpt>
      <trkpt lat="43.66232" lon="3.37806">
        <ele>145.78</ele>
        <time>2013-08-16T08:57:07Z</time>
      </trkpt>
      <trkpt lat="43.66229" lon="3.37808">
        <ele>145.78</ele>
        <time>2013-08-16T08:57:10Z</time>
      </trkpt>
      <trkpt lat="43.66228" lon="3.37809">
        <ele>145.78</ele>
        <time>2013-08-16T08:57:11Z</time>
      </trkpt>
      <trkpt lat="43.66226" lon="3.37817">
        <ele>146.26</ele>
        <time>2013-08-16T08:57:22Z</time>
      </trkpt>
      <trkpt lat="43.66225" lon="3.3782">
        <ele>146.26</ele>
        <time>2013-08-16T08:57:23Z</time>
      </trkpt>
      <trkpt lat="43.66224" lon="3.37823">
        <ele>146.26</ele>
        <time>2013-08-16T08:57:24Z</time>
      </trkpt>
      <trkpt lat="43.66222" lon="3.37825">
        <ele>146.26</ele>
        <time>2013-08-16T08:57:25Z</time>
      </trkpt>
      <trkpt lat="43.66221" lon="3.37827">
        <ele>146.26</ele>
        <time>2013-08-16T08:57:26Z</time>
      </trkpt>
      <trkpt lat="43.66209" lon="3.37852">
        <ele>146.26</ele>
        <time>2013-08-16T08:57:35Z</time>
      </trkpt>
      <trkpt lat="43.66206" lon="3.37871">
        <ele>145.78</ele>
        <time>2013-08-16T08:57:43Z</time>
      </trkpt>
      <trkpt lat="43.66205" lon="3.37873">
        <ele>145.78</ele>
        <time>2013-08-16T08:57:44Z</time>
      </trkpt>
      <trkpt lat="43.66205" lon="3.37875">
        <ele>145.78</ele>
        <time>2013-08-16T08:57:45Z</time>
      </trkpt>
      <trkpt lat="43.66205" lon="3.37878">
        <ele>145.3</ele>
        <time>2013-08-16T08:57:46Z</time>
      </trkpt>
      <trkpt lat="43.66205" lon="3.3788">
        <ele>145.3</ele>
        <time>2013-08-16T08:57:47Z</time>
      </trkpt>
      <trkpt lat="43.66206" lon="3.37882">
        <ele>145.3</ele>
        <time>2013-08-16T08:57:48Z</time>
      </trkpt>
      <trkpt lat="43.66207" lon="3.37884">
        <ele>144.82</ele>
        <time>2013-08-16T08:57:49Z</time>
      </trkpt>
      <trkpt lat="43.66206" lon="3.37886">
        <ele>144.82</ele>
        <time>2013-08-16T08:57:50Z</time>
      </trkpt>
      <trkpt lat="43.66206" lon="3.37888">
        <ele>144.34</ele>
        <time>2013-08-16T08:57:51Z</time>
      </trkpt>
      <trkpt lat="43.66205" lon="3.3789">
        <ele>144.34</ele>
        <time>2013-08-16T08:57:52Z</time>
      </trkpt>
      <trkpt lat="43.66205" lon="3.37891">
        <ele>144.34</ele>
        <time>2013-08-16T08:57:53Z</time>
      </trkpt>
      <trkpt lat="43.66205" lon="3.37894">
        <ele>142.89</ele>
        <time>2013-08-16T08:57:54Z</time>
      </trkpt>
      <trkpt lat="43.66205" lon="3.37897">
        <ele>143.37</ele>
        <time>2013-08-16T08:57:55Z</time>
      </trkpt>
      <trkpt lat="43.66205" lon="3.37899">
        <ele>142.89</ele>
        <time>2013-08-16T08:57:56Z</time>
      </trkpt>
      <trkpt lat="43.66204" lon="3.37901">
        <ele>142.41</ele>
        <time>2013-08-16T08:57:57Z</time>
      </trkpt>
      <trkpt lat="43.66202" lon="3.37921">
        <ele>142.89</ele>
        <time>2013-08-16T08:58:05Z</time>
      </trkpt>
      <trkpt lat="43.66202" lon="3.37923">
        <ele>142.41</ele>
        <time>2013-08-16T08:58:06Z</time>
      </trkpt>
      <trkpt lat="43.66203" lon="3.37925">
        <ele>142.89</ele>
        <time>2013-08-16T08:58:07Z</time>
      </trkpt>
      <trkpt lat="43.66205" lon="3.37931">
        <ele>143.85</ele>
        <time>2013-08-16T08:58:11Z</time>
      </trkpt>
      <trkpt lat="43.66204" lon="3.37932">
        <ele>143.37</ele>
        <time>2013-08-16T08:58:12Z</time>
      </trkpt>
      <trkpt lat="43.66203" lon="3.37933">
        <ele>143.85</ele>
        <time>2013-08-16T08:58:14Z</time>
      </trkpt>
      <trkpt lat="43.66201" lon="3.37933">
        <ele>143.85</ele>
        <time>2013-08-16T08:58:15Z</time>
      </trkpt>
      <trkpt lat="43.66199" lon="3.37933">
        <ele>143.85</ele>
        <time>2013-08-16T08:58:16Z</time>
      </trkpt>
      <trkpt lat="43.66192" lon="3.3793">
        <ele>143.85</ele>
        <time>2013-08-16T08:58:21Z</time>
      </trkpt>
      <trkpt lat="43.66191" lon="3.3793">
        <ele>143.37</ele>
        <time>2013-08-16T08:58:22Z</time>
      </trkpt>
      <trkpt lat="43.66189" lon="3.3793">
        <ele>143.85</ele>
        <time>2013-08-16T08:58:23Z</time>
      </trkpt>
      <trkpt lat="43.66186" lon="3.3793">
        <ele>143.37</ele>
        <time>2013-08-16T08:58:24Z</time>
      </trkpt>
      <trkpt lat="43.66185" lon="3.37932">
        <ele>144.34</ele>
        <time>2013-08-16T08:58:25Z</time>
      </trkpt>
      <trkpt lat="43.66183" lon="3.37934">
        <ele>143.85</ele>
        <time>2013-08-16T08:58:26Z</time>
      </trkpt>
      <trkpt lat="43.66182" lon="3.37936">
        <ele>144.82</ele>
        <time>2013-08-16T08:58:27Z</time>
      </trkpt>
      <trkpt lat="43.6618" lon="3.37937">
        <ele>145.78</ele>
        <time>2013-08-16T08:58:28Z</time>
      </trkpt>
      <trkpt lat="43.66172" lon="3.37955">
        <ele>146.74</ele>
        <time>2013-08-16T08:58:39Z</time>
      </trkpt>
      <trkpt lat="43.66172" lon="3.37957">
        <ele>147.22</ele>
        <time>2013-08-16T08:58:40Z</time>
      </trkpt>
      <trkpt lat="43.66172" lon="3.37958">
        <ele>147.7</ele>
        <time>2013-08-16T08:58:41Z</time>
      </trkpt>
      <trkpt lat="43.66172" lon="3.3796">
        <ele>147.7</ele>
        <time>2013-08-16T08:58:42Z</time>
      </trkpt>
      <trkpt lat="43.66171" lon="3.37962">
        <ele>147.7</ele>
        <time>2013-08-16T08:58:43Z</time>
      </trkpt>
      <trkpt lat="43.6617" lon="3.37965">
        <ele>148.18</ele>
        <time>2013-08-16T08:58:44Z</time>
      </trkpt>
      <trkpt lat="43.6617" lon="3.37969">
        <ele>148.18</ele>
        <time>2013-08-16T08:58:45Z</time>
      </trkpt>
      <trkpt lat="43.6617" lon="3.37972">
        <ele>149.14</ele>
        <time>2013-08-16T08:58:46Z</time>
      </trkpt>
      <trkpt lat="43.66167" lon="3.37984">
        <ele>150.58</ele>
        <time>2013-08-16T08:58:57Z</time>
      </trkpt>
      <trkpt lat="43.66167" lon="3.37984">
        <ele>151.06</ele>
        <time>2013-08-16T08:59:27Z</time>
      </trkpt>
      <trkpt lat="43.66167" lon="3.37985">
        <ele>150.58</ele>
        <time>2013-08-16T09:00:05Z</time>
      </trkpt>
      <trkpt lat="43.66168" lon="3.37986">
        <ele>150.1</ele>
        <time>2013-08-16T09:00:40Z</time>
      </trkpt>
      <trkpt lat="43.66168" lon="3.37986">
        <ele>150.1</ele>
        <time>2013-08-16T09:01:03Z</time>
      </trkpt>
      <trkpt lat="43.66164" lon="3.37994">
        <ele>151.06</ele>
        <time>2013-08-16T09:01:14Z</time>
      </trkpt>
      <trkpt lat="43.66163" lon="3.38025">
        <ele>151.54</ele>
        <time>2013-08-16T09:01:29Z</time>
      </trkpt>
      <trkpt lat="43.66164" lon="3.38026">
        <ele>152.99</ele>
        <time>2013-08-16T09:01:30Z</time>
      </trkpt>
      <trkpt lat="43.66164" lon="3.38028">
        <ele>153.47</ele>
        <time>2013-08-16T09:01:31Z</time>
      </trkpt>
      <trkpt lat="43.66165" lon="3.3803">
        <ele>152.99</ele>
        <time>2013-08-16T09:01:32Z</time>
      </trkpt>
      <trkpt lat="43.66165" lon="3.38032">
        <ele>152.03</ele>
        <time>2013-08-16T09:01:33Z</time>
      </trkpt>
      <trkpt lat="43.66164" lon="3.38034">
        <ele>153.47</ele>
        <time>2013-08-16T09:01:34Z</time>
      </trkpt>
      <trkpt lat="43.66165" lon="3.38036">
        <ele>152.51</ele>
        <time>2013-08-16T09:01:35Z</time>
      </trkpt>
      <trkpt lat="43.66165" lon="3.38038">
        <ele>153.95</ele>
        <time>2013-08-16T09:01:36Z</time>
      </trkpt>
      <trkpt lat="43.66171" lon="3.3805">
        <ele>154.43</ele>
        <time>2013-08-16T09:01:43Z</time>
      </trkpt>
      <trkpt lat="43.66171" lon="3.38051">
        <ele>154.43</ele>
        <time>2013-08-16T09:01:44Z</time>
      </trkpt>
      <trkpt lat="43.66172" lon="3.38053">
        <ele>154.91</ele>
        <time>2013-08-16T09:01:45Z</time>
      </trkpt>
      <trkpt lat="43.66174" lon="3.38055">
        <ele>155.39</ele>
        <time>2013-08-16T09:01:46Z</time>
      </trkpt>
      <trkpt lat="43.66174" lon="3.38057">
        <ele>154.43</ele>
        <time>2013-08-16T09:01:47Z</time>
      </trkpt>
      <trkpt lat="43.66175" lon="3.38059">
        <ele>155.87</ele>
        <time>2013-08-16T09:01:48Z</time>
      </trkpt>
      <trkpt lat="43.66175" lon="3.38061">
        <ele>155.39</ele>
        <time>2013-08-16T09:01:49Z</time>
      </trkpt>
      <trkpt lat="43.66176" lon="3.38063">
        <ele>154.43</ele>
        <time>2013-08-16T09:01:50Z</time>
      </trkpt>
      <trkpt lat="43.66177" lon="3.38064">
        <ele>154.91</ele>
        <time>2013-08-16T09:01:51Z</time>
      </trkpt>
      <trkpt lat="43.66175" lon="3.3808">
        <ele>152.99</ele>
        <time>2013-08-16T09:01:57Z</time>
      </trkpt>
      <trkpt lat="43.66176" lon="3.38089">
        <ele>154.43</ele>
        <time>2013-08-16T09:02:08Z</time>
      </trkpt>
      <trkpt lat="43.66175" lon="3.38089">
        <ele>153.95</ele>
        <time>2013-08-16T09:02:34Z</time>
      </trkpt>
      <trkpt lat="43.66175" lon="3.38089">
        <ele>154.43</ele>
        <time>2013-08-16T09:02:57Z</time>
      </trkpt>
      <trkpt lat="43.66175" lon="3.38089">
        <ele>151.54</ele>
        <time>2013-08-16T09:02:58Z</time>
      </trkpt>
      <trkpt lat="43.66175" lon="3.38089">
        <ele>154.43</ele>
        <time>2013-08-16T09:02:59Z</time>
      </trkpt>
      <trkpt lat="43.66175" lon="3.38089">
        <ele>154.91</ele>
        <time>2013-08-16T09:03:10Z</time>
      </trkpt>
      <trkpt lat="43.66175" lon="3.38089">
        <ele>153.47</ele>
        <time>2013-08-16T09:03:12Z</time>
      </trkpt>
      <trkpt lat="43.66176" lon="3.38089">
        <ele>153.47</ele>
        <time>2013-08-16T09:03:20Z</time>
      </trkpt>
      <trkpt lat="43.66178" lon="3.38105">
        <ele>153.47</ele>
        <time>2013-08-16T09:03:44Z</time>
      </trkpt>
      <trkpt lat="43.6618" lon="3.38111">
        <ele>152.99</ele>
        <time>2013-08-16T09:03:47Z</time>
      </trkpt>
      <trkpt lat="43.66181" lon="3.38114">
        <ele>152.99</ele>
        <time>2013-08-16T09:03:48Z</time>
      </trkpt>
      <trkpt lat="43.66181" lon="3.38116">
        <ele>152.99</ele>
        <time>2013-08-16T09:03:49Z</time>
      </trkpt>
      <trkpt lat="43.66181" lon="3.38119">
        <ele>152.51</ele>
        <time>2013-08-16T09:03:50Z</time>
      </trkpt>
      <trkpt lat="43.6618" lon="3.38121">
        <ele>152.03</ele>
        <time>2013-08-16T09:03:51Z</time>
      </trkpt>
      <trkpt lat="43.66179" lon="3.38123">
        <ele>153.95</ele>
        <time>2013-08-16T09:03:52Z</time>
      </trkpt>
      <trkpt lat="43.66178" lon="3.38125">
        <ele>153.47</ele>
        <time>2013-08-16T09:03:53Z</time>
      </trkpt>
      <trkpt lat="43.66176" lon="3.38131">
        <ele>153.47</ele>
        <time>2013-08-16T09:04:02Z</time>
      </trkpt>
      <trkpt lat="43.66173" lon="3.38138">
        <ele>155.39</ele>
        <time>2013-08-16T09:04:11Z</time>
      </trkpt>
      <trkpt lat="43.66167" lon="3.38144">
        <ele>154.91</ele>
        <time>2013-08-16T09:04:19Z</time>
      </trkpt>
      <trkpt lat="43.66167" lon="3.38146">
        <ele>155.39</ele>
        <time>2013-08-16T09:04:20Z</time>
      </trkpt>
      <trkpt lat="43.66167" lon="3.38148">
        <ele>155.87</ele>
        <time>2013-08-16T09:04:21Z</time>
      </trkpt>
      <trkpt lat="43.66166" lon="3.38149">
        <ele>155.39</ele>
        <time>2013-08-16T09:04:22Z</time>
      </trkpt>
      <trkpt lat="43.66165" lon="3.38151">
        <ele>156.35</ele>
        <time>2013-08-16T09:04:23Z</time>
      </trkpt>
      <trkpt lat="43.66163" lon="3.38153">
        <ele>156.35</ele>
        <time>2013-08-16T09:04:24Z</time>
      </trkpt>
      <trkpt lat="43.66162" lon="3.38154">
        <ele>155.87</ele>
        <time>2013-08-16T09:04:25Z</time>
      </trkpt>
      <trkpt lat="43.66161" lon="3.38156">
        <ele>155.87</ele>
        <time>2013-08-16T09:04:26Z</time>
      </trkpt>
      <trkpt lat="43.6616" lon="3.38158">
        <ele>156.35</ele>
        <time>2013-08-16T09:04:27Z</time>
      </trkpt>
      <trkpt lat="43.66159" lon="3.38159">
        <ele>156.35</ele>
        <time>2013-08-16T09:04:28Z</time>
      </trkpt>
      <trkpt lat="43.66155" lon="3.38164">
        <ele>156.83</ele>
        <time>2013-08-16T09:04:31Z</time>
      </trkpt>
      <trkpt lat="43.66152" lon="3.38177">
        <ele>158.27</ele>
        <time>2013-08-16T09:04:37Z</time>
      </trkpt>
      <trkpt lat="43.66151" lon="3.38178">
        <ele>158.75</ele>
        <time>2013-08-16T09:04:38Z</time>
      </trkpt>
      <trkpt lat="43.6615" lon="3.38179">
        <ele>157.79</ele>
        <time>2013-08-16T09:04:39Z</time>
      </trkpt>
      <trkpt lat="43.66148" lon="3.38183">
        <ele>158.27</ele>
        <time>2013-08-16T09:04:41Z</time>
      </trkpt>
      <trkpt lat="43.66147" lon="3.38185">
        <ele>157.79</ele>
        <time>2013-08-16T09:04:42Z</time>
      </trkpt>
      <trkpt lat="43.66147" lon="3.38188">
        <ele>157.31</ele>
        <time>2013-08-16T09:04:43Z</time>
      </trkpt>
      <trkpt lat="43.66147" lon="3.38191">
        <ele>157.79</ele>
        <time>2013-08-16T09:04:44Z</time>
      </trkpt>
      <trkpt lat="43.66147" lon="3.38193">
        <ele>157.79</ele>
        <time>2013-08-16T09:04:45Z</time>
      </trkpt>
      <trkpt lat="43.66147" lon="3.38196">
        <ele>157.31</ele>
        <time>2013-08-16T09:04:46Z</time>
      </trkpt>
      <trkpt lat="43.66147" lon="3.38198">
        <ele>157.79</ele>
        <time>2013-08-16T09:04:47Z</time>
      </trkpt>
      <trkpt lat="43.66147" lon="3.382">
        <ele>158.27</ele>
        <time>2013-08-16T09:04:48Z</time>
      </trkpt>
      <trkpt lat="43.66147" lon="3.38203">
        <ele>157.31</ele>
        <time>2013-08-16T09:04:49Z</time>
      </trkpt>
      <trkpt lat="43.66148" lon="3.38206">
        <ele>158.27</ele>
        <time>2013-08-16T09:04:50Z</time>
      </trkpt>
      <trkpt lat="43.66148" lon="3.38209">
        <ele>157.79</ele>
        <time>2013-08-16T09:04:51Z</time>
      </trkpt>
      <trkpt lat="43.66152" lon="3.38235">
        <ele>157.79</ele>
        <time>2013-08-16T09:05:02Z</time>
      </trkpt>
      <trkpt lat="43.66151" lon="3.38261">
        <ele>154.91</ele>
        <time>2013-08-16T09:05:16Z</time>
      </trkpt>
      <trkpt lat="43.66144" lon="3.38278">
        <ele>154.43</ele>
        <time>2013-08-16T09:05:24Z</time>
      </trkpt>
      <trkpt lat="43.66141" lon="3.38298">
        <ele>153.95</ele>
        <time>2013-08-16T09:05:35Z</time>
      </trkpt>
      <trkpt lat="43.66143" lon="3.38305">
        <ele>153.47</ele>
        <time>2013-08-16T09:05:50Z</time>
      </trkpt>
      <trkpt lat="43.66141" lon="3.38314">
        <ele>151.54</ele>
        <time>2013-08-16T09:06:03Z</time>
      </trkpt>
      <trkpt lat="43.6614" lon="3.38315">
        <ele>151.54</ele>
        <time>2013-08-16T09:06:04Z</time>
      </trkpt>
      <trkpt lat="43.66136" lon="3.38343">
        <ele>149.62</ele>
        <time>2013-08-16T09:06:14Z</time>
      </trkpt>
      <trkpt lat="43.66131" lon="3.38367">
        <ele>149.62</ele>
        <time>2013-08-16T09:06:27Z</time>
      </trkpt>
      <trkpt lat="43.66125" lon="3.38373">
        <ele>148.66</ele>
        <time>2013-08-16T09:06:33Z</time>
      </trkpt>
      <trkpt lat="43.66119" lon="3.3838">
        <ele>146.74</ele>
        <time>2013-08-16T09:06:37Z</time>
      </trkpt>
      <trkpt lat="43.6611" lon="3.38381">
        <ele>145.3</ele>
        <time>2013-08-16T09:06:48Z</time>
      </trkpt>
      <trkpt lat="43.6611" lon="3.38382">
        <ele>145.3</ele>
        <time>2013-08-16T09:07:07Z</time>
      </trkpt>
      <trkpt lat="43.66111" lon="3.38382">
        <ele>144.34</ele>
        <time>2013-08-16T09:07:35Z</time>
      </trkpt>
      <trkpt lat="43.66111" lon="3.38383">
        <ele>144.82</ele>
        <time>2013-08-16T09:08:09Z</time>
      </trkpt>
      <trkpt lat="43.66113" lon="3.38384">
        <ele>144.82</ele>
        <time>2013-08-16T09:08:38Z</time>
      </trkpt>
      <trkpt lat="43.66115" lon="3.38389">
        <ele>144.34</ele>
        <time>2013-08-16T09:08:44Z</time>
      </trkpt>
      <trkpt lat="43.66112" lon="3.384">
        <ele>145.3</ele>
        <time>2013-08-16T09:08:55Z</time>
      </trkpt>
      <trkpt lat="43.66111" lon="3.38407">
        <ele>145.78</ele>
        <time>2013-08-16T09:09:07Z</time>
      </trkpt>
      <trkpt lat="43.661" lon="3.38429">
        <ele>146.74</ele>
        <time>2013-08-16T09:09:19Z</time>
      </trkpt>
      <trkpt lat="43.66097" lon="3.38434">
        <ele>146.26</ele>
        <time>2013-08-16T09:09:22Z</time>
      </trkpt>
      <trkpt lat="43.66096" lon="3.38441">
        <ele>146.26</ele>
        <time>2013-08-16T09:09:26Z</time>
      </trkpt>
      <trkpt lat="43.66093" lon="3.38459">
        <ele>146.26</ele>
        <time>2013-08-16T09:09:35Z</time>
      </trkpt>
      <trkpt lat="43.66095" lon="3.38488">
        <ele>145.78</ele>
        <time>2013-08-16T09:09:48Z</time>
      </trkpt>
      <trkpt lat="43.66095" lon="3.38493">
        <ele>145.78</ele>
        <time>2013-08-16T09:09:50Z</time>
      </trkpt>
      <trkpt lat="43.66093" lon="3.38509">
        <ele>146.26</ele>
        <time>2013-08-16T09:10:01Z</time>
      </trkpt>
      <trkpt lat="43.66095" lon="3.38522">
        <ele>145.78</ele>
        <time>2013-08-16T09:10:11Z</time>
      </trkpt>
      <trkpt lat="43.66092" lon="3.38539">
        <ele>146.74</ele>
        <time>2013-08-16T09:10:22Z</time>
      </trkpt>
      <trkpt lat="43.66085" lon="3.38582">
        <ele>144.82</ele>
        <time>2013-08-16T09:10:35Z</time>
      </trkpt>
      <trkpt lat="43.66085" lon="3.38587">
        <ele>145.3</ele>
        <time>2013-08-16T09:10:36Z</time>
      </trkpt>
      <trkpt lat="43.66074" lon="3.38649">
        <ele>146.26</ele>
        <time>2013-08-16T09:10:50Z</time>
      </trkpt>
      <trkpt lat="43.66075" lon="3.38677">
        <ele>147.7</ele>
        <time>2013-08-16T09:10:57Z</time>
      </trkpt>
      <trkpt lat="43.66067" lon="3.38715">
        <ele>147.7</ele>
        <time>2013-08-16T09:11:12Z</time>
      </trkpt>
      <trkpt lat="43.66062" lon="3.38748">
        <ele>150.1</ele>
        <time>2013-08-16T09:11:25Z</time>
      </trkpt>
      <trkpt lat="43.66063" lon="3.38756">
        <ele>150.1</ele>
        <time>2013-08-16T09:11:28Z</time>
      </trkpt>
      <trkpt lat="43.66068" lon="3.38767">
        <ele>151.54</ele>
        <time>2013-08-16T09:11:32Z</time>
      </trkpt>
      <trkpt lat="43.66067" lon="3.38774">
        <ele>152.51</ele>
        <time>2013-08-16T09:11:34Z</time>
      </trkpt>
      <trkpt lat="43.66065" lon="3.38781">
        <ele>152.99</ele>
        <time>2013-08-16T09:11:37Z</time>
      </trkpt>
      <trkpt lat="43.66062" lon="3.38794">
        <ele>152.51</ele>
        <time>2013-08-16T09:11:44Z</time>
      </trkpt>
      <trkpt lat="43.66045" lon="3.38825">
        <ele>152.99</ele>
        <time>2013-08-16T09:12:00Z</time>
      </trkpt>
      <trkpt lat="43.66029" lon="3.3886">
        <ele>151.54</ele>
        <time>2013-08-16T09:12:15Z</time>
      </trkpt>
      <trkpt lat="43.66025" lon="3.38864">
        <ele>151.06</ele>
        <time>2013-08-16T09:12:16Z</time>
      </trkpt>
      <trkpt lat="43.66021" lon="3.38868">
        <ele>151.06</ele>
        <time>2013-08-16T09:12:17Z</time>
      </trkpt>
      <trkpt lat="43.66018" lon="3.38871">
        <ele>151.06</ele>
        <time>2013-08-16T09:12:18Z</time>
      </trkpt>
      <trkpt lat="43.66015" lon="3.38872">
        <ele>150.58</ele>
        <time>2013-08-16T09:12:19Z</time>
      </trkpt>
      <trkpt lat="43.66013" lon="3.38873">
        <ele>151.06</ele>
        <time>2013-08-16T09:12:20Z</time>
      </trkpt>
      <trkpt lat="43.66011" lon="3.38873">
        <ele>151.06</ele>
        <time>2013-08-16T09:12:21Z</time>
      </trkpt>
      <trkpt lat="43.66009" lon="3.38872">
        <ele>151.06</ele>
        <time>2013-08-16T09:12:22Z</time>
      </trkpt>
      <trkpt lat="43.66007" lon="3.38871">
        <ele>150.58</ele>
        <time>2013-08-16T09:12:24Z</time>
      </trkpt>
      <trkpt lat="43.66006" lon="3.3887">
        <ele>151.06</ele>
        <time>2013-08-16T09:12:25Z</time>
      </trkpt>
      <trkpt lat="43.66005" lon="3.38869">
        <ele>151.06</ele>
        <time>2013-08-16T09:12:26Z</time>
      </trkpt>
      <trkpt lat="43.66004" lon="3.38867">
        <ele>150.1</ele>
        <time>2013-08-16T09:12:27Z</time>
      </trkpt>
      <trkpt lat="43.66003" lon="3.38867">
        <ele>150.1</ele>
        <time>2013-08-16T09:12:28Z</time>
      </trkpt>
      <trkpt lat="43.66002" lon="3.38867">
        <ele>150.58</ele>
        <time>2013-08-16T09:12:29Z</time>
      </trkpt>
      <trkpt lat="43.66001" lon="3.38867">
        <ele>150.1</ele>
        <time>2013-08-16T09:12:30Z</time>
      </trkpt>
      <trkpt lat="43.65989" lon="3.3887">
        <ele>147.7</ele>
        <time>2013-08-16T09:12:37Z</time>
      </trkpt>
      <trkpt lat="43.65988" lon="3.38871">
        <ele>147.7</ele>
        <time>2013-08-16T09:12:38Z</time>
      </trkpt>
      <trkpt lat="43.65986" lon="3.38873">
        <ele>147.7</ele>
        <time>2013-08-16T09:12:39Z</time>
      </trkpt>
      <trkpt lat="43.65984" lon="3.38875">
        <ele>146.26</ele>
        <time>2013-08-16T09:12:40Z</time>
      </trkpt>
      <trkpt lat="43.65982" lon="3.38878">
        <ele>147.22</ele>
        <time>2013-08-16T09:12:41Z</time>
      </trkpt>
      <trkpt lat="43.6598" lon="3.38881">
        <ele>147.22</ele>
        <time>2013-08-16T09:12:42Z</time>
      </trkpt>
      <trkpt lat="43.65976" lon="3.3889">
        <ele>145.78</ele>
        <time>2013-08-16T09:12:45Z</time>
      </trkpt>
      <trkpt lat="43.65976" lon="3.38893">
        <ele>145.78</ele>
        <time>2013-08-16T09:12:46Z</time>
      </trkpt>
      <trkpt lat="43.65975" lon="3.38897">
        <ele>145.78</ele>
        <time>2013-08-16T09:12:47Z</time>
      </trkpt>
      <trkpt lat="43.65973" lon="3.38901">
        <ele>146.74</ele>
        <time>2013-08-16T09:12:48Z</time>
      </trkpt>
      <trkpt lat="43.65972" lon="3.38904">
        <ele>146.74</ele>
        <time>2013-08-16T09:12:49Z</time>
      </trkpt>
      <trkpt lat="43.65969" lon="3.3893">
        <ele>146.74</ele>
        <time>2013-08-16T09:12:58Z</time>
      </trkpt>
      <trkpt lat="43.65968" lon="3.38933">
        <ele>146.74</ele>
        <time>2013-08-16T09:12:59Z</time>
      </trkpt>
      <trkpt lat="43.65967" lon="3.38936">
        <ele>147.22</ele>
        <time>2013-08-16T09:13:00Z</time>
      </trkpt>
      <trkpt lat="43.65966" lon="3.38939">
        <ele>146.74</ele>
        <time>2013-08-16T09:13:01Z</time>
      </trkpt>
      <trkpt lat="43.65966" lon="3.38943">
        <ele>145.78</ele>
        <time>2013-08-16T09:13:02Z</time>
      </trkpt>
      <trkpt lat="43.65966" lon="3.38947">
        <ele>145.3</ele>
        <time>2013-08-16T09:13:03Z</time>
      </trkpt>
      <trkpt lat="43.65966" lon="3.3895">
        <ele>145.3</ele>
        <time>2013-08-16T09:13:04Z</time>
      </trkpt>
      <trkpt lat="43.65965" lon="3.38953">
        <ele>146.26</ele>
        <time>2013-08-16T09:13:05Z</time>
      </trkpt>
      <trkpt lat="43.65965" lon="3.38957">
        <ele>144.82</ele>
        <time>2013-08-16T09:13:06Z</time>
      </trkpt>
      <trkpt lat="43.65965" lon="3.38961">
        <ele>145.3</ele>
        <time>2013-08-16T09:13:07Z</time>
      </trkpt>
      <trkpt lat="43.65965" lon="3.38965">
        <ele>145.78</ele>
        <time>2013-08-16T09:13:08Z</time>
      </trkpt>
      <trkpt lat="43.65965" lon="3.38969">
        <ele>145.3</ele>
        <time>2013-08-16T09:13:09Z</time>
      </trkpt>
      <trkpt lat="43.65965" lon="3.38972">
        <ele>144.82</ele>
        <time>2013-08-16T09:13:10Z</time>
      </trkpt>
      <trkpt lat="43.65965" lon="3.38975">
        <ele>145.78</ele>
        <time>2013-08-16T09:13:11Z</time>
      </trkpt>
      <trkpt lat="43.65966" lon="3.38978">
        <ele>146.26</ele>
        <time>2013-08-16T09:13:12Z</time>
      </trkpt>
      <trkpt lat="43.65966" lon="3.38981">
        <ele>146.26</ele>
        <time>2013-08-16T09:13:13Z</time>
      </trkpt>
      <trkpt lat="43.65967" lon="3.39006">
        <ele>144.82</ele>
        <time>2013-08-16T09:13:25Z</time>
      </trkpt>
      <trkpt lat="43.65968" lon="3.39008">
        <ele>143.85</ele>
        <time>2013-08-16T09:13:26Z</time>
      </trkpt>
      <trkpt lat="43.6597" lon="3.39011">
        <ele>143.85</ele>
        <time>2013-08-16T09:13:27Z</time>
      </trkpt>
      <trkpt lat="43.6597" lon="3.39015">
        <ele>144.82</ele>
        <time>2013-08-16T09:13:29Z</time>
      </trkpt>
      <trkpt lat="43.6597" lon="3.39017">
        <ele>144.34</ele>
        <time>2013-08-16T09:13:30Z</time>
      </trkpt>
      <trkpt lat="43.6597" lon="3.39019">
        <ele>144.82</ele>
        <time>2013-08-16T09:13:31Z</time>
      </trkpt>
      <trkpt lat="43.6597" lon="3.39022">
        <ele>144.34</ele>
        <time>2013-08-16T09:13:32Z</time>
      </trkpt>
      <trkpt lat="43.6597" lon="3.39025">
        <ele>143.85</ele>
        <time>2013-08-16T09:13:33Z</time>
      </trkpt>
      <trkpt lat="43.6597" lon="3.39028">
        <ele>144.34</ele>
        <time>2013-08-16T09:13:34Z</time>
      </trkpt>
      <trkpt lat="43.6597" lon="3.3903">
        <ele>144.82</ele>
        <time>2013-08-16T09:13:35Z</time>
      </trkpt>
      <trkpt lat="43.65969" lon="3.39035">
        <ele>144.34</ele>
        <time>2013-08-16T09:13:45Z</time>
      </trkpt>
      <trkpt lat="43.6597" lon="3.39045">
        <ele>143.85</ele>
        <time>2013-08-16T09:13:54Z</time>
      </trkpt>
      <trkpt lat="43.65974" lon="3.39061">
        <ele>145.78</ele>
        <time>2013-08-16T09:14:03Z</time>
      </trkpt>
      <trkpt lat="43.65974" lon="3.39062">
        <ele>144.82</ele>
        <time>2013-08-16T09:14:04Z</time>
      </trkpt>
      <trkpt lat="43.65973" lon="3.39064">
        <ele>145.3</ele>
        <time>2013-08-16T09:14:05Z</time>
      </trkpt>
      <trkpt lat="43.65968" lon="3.39069">
        <ele>144.34</ele>
        <time>2013-08-16T09:14:09Z</time>
      </trkpt>
      <trkpt lat="43.65966" lon="3.39077">
        <ele>144.34</ele>
        <time>2013-08-16T09:14:14Z</time>
      </trkpt>
      <trkpt lat="43.65962" lon="3.39087">
        <ele>144.34</ele>
        <time>2013-08-16T09:14:25Z</time>
      </trkpt>
      <trkpt lat="43.65958" lon="3.391">
        <ele>147.22</ele>
        <time>2013-08-16T09:14:35Z</time>
      </trkpt>
      <trkpt lat="43.65956" lon="3.39105">
        <ele>147.7</ele>
        <time>2013-08-16T09:14:49Z</time>
      </trkpt>
      <trkpt lat="43.65955" lon="3.39107">
        <ele>147.7</ele>
        <time>2013-08-16T09:15:10Z</time>
      </trkpt>
      <trkpt lat="43.65953" lon="3.39112">
        <ele>148.18</ele>
        <time>2013-08-16T09:15:16Z</time>
      </trkpt>
      <trkpt lat="43.65954" lon="3.39122">
        <ele>148.66</ele>
        <time>2013-08-16T09:15:24Z</time>
      </trkpt>
      <trkpt lat="43.65954" lon="3.39142">
        <ele>150.58</ele>
        <time>2013-08-16T09:15:39Z</time>
      </trkpt>
      <trkpt lat="43.65955" lon="3.39147">
        <ele>150.1</ele>
        <time>2013-08-16T09:15:47Z</time>
      </trkpt>
      <trkpt lat="43.65954" lon="3.39164">
        <ele>149.62</ele>
        <time>2013-08-16T09:15:56Z</time>
      </trkpt>
      <trkpt lat="43.65947" lon="3.39171">
        <ele>149.62</ele>
        <time>2013-08-16T09:16:06Z</time>
      </trkpt>
      <trkpt lat="43.65933" lon="3.39171">
        <ele>148.66</ele>
        <time>2013-08-16T09:16:13Z</time>
      </trkpt>
      <trkpt lat="43.65927" lon="3.39177">
        <ele>149.62</ele>
        <time>2013-08-16T09:16:23Z</time>
      </trkpt>
      <trkpt lat="43.65909" lon="3.39189">
        <ele>148.66</ele>
        <time>2013-08-16T09:16:34Z</time>
      </trkpt>
      <trkpt lat="43.65907" lon="3.39194">
        <ele>149.14</ele>
        <time>2013-08-16T09:16:36Z</time>
      </trkpt>
      <trkpt lat="43.65903" lon="3.392">
        <ele>150.1</ele>
        <time>2013-08-16T09:16:40Z</time>
      </trkpt>
      <trkpt lat="43.65892" lon="3.39233">
        <ele>150.58</ele>
        <time>2013-08-16T09:16:55Z</time>
      </trkpt>
      <trkpt lat="43.65891" lon="3.39239">
        <ele>150.58</ele>
        <time>2013-08-16T09:17:04Z</time>
      </trkpt>
      <trkpt lat="43.65889" lon="3.39247">
        <ele>150.1</ele>
        <time>2013-08-16T09:17:16Z</time>
      </trkpt>
      <trkpt lat="43.65889" lon="3.39247">
        <ele>150.1</ele>
        <time>2013-08-16T09:17:20Z</time>
      </trkpt>
      <trkpt lat="43.65888" lon="3.39247">
        <ele>150.58</ele>
        <time>2013-08-16T09:17:52Z</time>
      </trkpt>
      <trkpt lat="43.65888" lon="3.39247">
        <ele>150.58</ele>
        <time>2013-08-16T09:18:29Z</time>
      </trkpt>
      <trkpt lat="43.65889" lon="3.3925">
        <ele>151.54</ele>
        <time>2013-08-16T09:18:36Z</time>
      </trkpt>
      <trkpt lat="43.65887" lon="3.39255">
        <ele>151.06</ele>
        <time>2013-08-16T09:18:40Z</time>
      </trkpt>
      <trkpt lat="43.65884" lon="3.39259">
        <ele>149.62</ele>
        <time>2013-08-16T09:18:43Z</time>
      </trkpt>
      <trkpt lat="43.65883" lon="3.39266">
        <ele>149.62</ele>
        <time>2013-08-16T09:18:51Z</time>
      </trkpt>
      <trkpt lat="43.65877" lon="3.39273">
        <ele>150.1</ele>
        <time>2013-08-16T09:18:59Z</time>
      </trkpt>
      <trkpt lat="43.65873" lon="3.3928">
        <ele>150.58</ele>
        <time>2013-08-16T09:19:11Z</time>
      </trkpt>
      <trkpt lat="43.65871" lon="3.39283">
        <ele>151.06</ele>
        <time>2013-08-16T09:19:13Z</time>
      </trkpt>
      <trkpt lat="43.65869" lon="3.39298">
        <ele>152.51</ele>
        <time>2013-08-16T09:19:20Z</time>
      </trkpt>
      <trkpt lat="43.65863" lon="3.39314">
        <ele>151.54</ele>
        <time>2013-08-16T09:19:29Z</time>
      </trkpt>
      <trkpt lat="43.6586" lon="3.39342">
        <ele>153.47</ele>
        <time>2013-08-16T09:19:40Z</time>
      </trkpt>
      <trkpt lat="43.65859" lon="3.39346">
        <ele>152.99</ele>
        <time>2013-08-16T09:19:45Z</time>
      </trkpt>
      <trkpt lat="43.65852" lon="3.39364">
        <ele>152.03</ele>
        <time>2013-08-16T09:19:55Z</time>
      </trkpt>
      <trkpt lat="43.65848" lon="3.3938">
        <ele>151.06</ele>
        <time>2013-08-16T09:20:01Z</time>
      </trkpt>
      <trkpt lat="43.65841" lon="3.39391">
        <ele>151.06</ele>
        <time>2013-08-16T09:20:06Z</time>
      </trkpt>
      <trkpt lat="43.65838" lon="3.394">
        <ele>150.1</ele>
        <time>2013-08-16T09:20:11Z</time>
      </trkpt>
      <trkpt lat="43.65836" lon="3.39402">
        <ele>148.66</ele>
        <time>2013-08-16T09:20:13Z</time>
      </trkpt>
      <trkpt lat="43.65833" lon="3.39421">
        <ele>148.66</ele>
        <time>2013-08-16T09:20:23Z</time>
      </trkpt>
      <trkpt lat="43.65833" lon="3.39422">
        <ele>148.18</ele>
        <time>2013-08-16T09:20:24Z</time>
      </trkpt>
      <trkpt lat="43.65827" lon="3.39441">
        <ele>146.74</ele>
        <time>2013-08-16T09:20:34Z</time>
      </trkpt>
      <trkpt lat="43.65826" lon="3.39453">
        <ele>147.7</ele>
        <time>2013-08-16T09:20:42Z</time>
      </trkpt>
      <trkpt lat="43.65824" lon="3.39467">
        <ele>146.26</ele>
        <time>2013-08-16T09:20:47Z</time>
      </trkpt>
      <trkpt lat="43.65821" lon="3.39476">
        <ele>146.74</ele>
        <time>2013-08-16T09:20:55Z</time>
      </trkpt>
      <trkpt lat="43.65821" lon="3.39479">
        <ele>145.78</ele>
        <time>2013-08-16T09:21:22Z</time>
      </trkpt>
      <trkpt lat="43.65817" lon="3.39487">
        <ele>145.78</ele>
        <time>2013-08-16T09:21:32Z</time>
      </trkpt>
      <trkpt lat="43.65814" lon="3.39491">
        <ele>145.78</ele>
        <time>2013-08-16T09:21:41Z</time>
      </trkpt>
      <trkpt lat="43.65812" lon="3.39494">
        <ele>145.78</ele>
        <time>2013-08-16T09:21:46Z</time>
      </trkpt>
      <trkpt lat="43.6581" lon="3.39499">
        <ele>145.3</ele>
        <time>2013-08-16T09:21:50Z</time>
      </trkpt>
      <trkpt lat="43.65806" lon="3.39503">
        <ele>145.3</ele>
        <time>2013-08-16T09:21:54Z</time>
      </trkpt>
      <trkpt lat="43.65804" lon="3.39504">
        <ele>147.22</ele>
        <time>2013-08-16T09:21:56Z</time>
      </trkpt>
      <trkpt lat="43.65801" lon="3.39505">
        <ele>147.7</ele>
        <time>2013-08-16T09:22:00Z</time>
      </trkpt>
      <trkpt lat="43.65797" lon="3.39506">
        <ele>147.7</ele>
        <time>2013-08-16T09:22:23Z</time>
      </trkpt>
      <trkpt lat="43.65789" lon="3.39508">
        <ele>148.18</ele>
        <time>2013-08-16T09:22:36Z</time>
      </trkpt>
      <trkpt lat="43.65777" lon="3.39521">
        <ele>147.7</ele>
        <time>2013-08-16T09:22:50Z</time>
      </trkpt>
      <trkpt lat="43.65776" lon="3.3952">
        <ele>147.22</ele>
        <time>2013-08-16T09:22:56Z</time>
      </trkpt>
      <trkpt lat="43.65775" lon="3.39522">
        <ele>147.22</ele>
        <time>2013-08-16T09:23:04Z</time>
      </trkpt>
      <trkpt lat="43.6577" lon="3.39529">
        <ele>146.74</ele>
        <time>2013-08-16T09:23:09Z</time>
      </trkpt>
      <trkpt lat="43.65766" lon="3.39533">
        <ele>145.78</ele>
        <time>2013-08-16T09:23:24Z</time>
      </trkpt>
      <trkpt lat="43.65766" lon="3.39534">
        <ele>141.93</ele>
        <time>2013-08-16T09:23:28Z</time>
      </trkpt>
      <trkpt lat="43.65766" lon="3.39534">
        <ele>147.22</ele>
        <time>2013-08-16T09:23:29Z</time>
      </trkpt>
      <trkpt lat="43.65766" lon="3.39534">
        <ele>146.74</ele>
        <time>2013-08-16T09:23:43Z</time>
      </trkpt>
      <trkpt lat="43.65761" lon="3.39534">
        <ele>145.3</ele>
        <time>2013-08-16T09:24:00Z</time>
      </trkpt>
      <trkpt lat="43.65758" lon="3.39535">
        <ele>145.3</ele>
        <time>2013-08-16T09:24:04Z</time>
      </trkpt>
      <trkpt lat="43.65752" lon="3.39538">
        <ele>144.34</ele>
        <time>2013-08-16T09:24:08Z</time>
      </trkpt>
      <trkpt lat="43.65743" lon="3.39546">
        <ele>144.34</ele>
        <time>2013-08-16T09:24:19Z</time>
      </trkpt>
      <trkpt lat="43.65739" lon="3.39542">
        <ele>143.37</ele>
        <time>2013-08-16T09:24:31Z</time>
      </trkpt>
      <trkpt lat="43.6574" lon="3.39542">
        <ele>139.53</ele>
        <time>2013-08-16T09:24:43Z</time>
      </trkpt>
      <trkpt lat="43.6574" lon="3.39542">
        <ele>143.85</ele>
        <time>2013-08-16T09:24:44Z</time>
      </trkpt>
      <trkpt lat="43.6574" lon="3.39542">
        <ele>148.18</ele>
        <time>2013-08-16T09:24:45Z</time>
      </trkpt>
      <trkpt lat="43.6574" lon="3.39541">
        <ele>143.37</ele>
        <time>2013-08-16T09:24:46Z</time>
      </trkpt>
      <trkpt lat="43.65741" lon="3.39541">
        <ele>143.85</ele>
        <time>2013-08-16T09:25:15Z</time>
      </trkpt>
      <trkpt lat="43.65742" lon="3.39541">
        <ele>141.93</ele>
        <time>2013-08-16T09:25:44Z</time>
      </trkpt>
      <trkpt lat="43.65742" lon="3.39541">
        <ele>145.78</ele>
        <time>2013-08-16T09:25:46Z</time>
      </trkpt>
      <trkpt lat="43.65742" lon="3.39541">
        <ele>138.57</ele>
        <time>2013-08-16T09:25:48Z</time>
      </trkpt>
      <trkpt lat="43.65742" lon="3.39541">
        <ele>141.45</ele>
        <time>2013-08-16T09:25:49Z</time>
      </trkpt>
      <trkpt lat="43.65742" lon="3.39541">
        <ele>142.89</ele>
        <time>2013-08-16T09:25:51Z</time>
      </trkpt>
      <trkpt lat="43.65742" lon="3.39541">
        <ele>145.78</ele>
        <time>2013-08-16T09:25:53Z</time>
      </trkpt>
      <trkpt lat="43.65742" lon="3.39541">
        <ele>142.89</ele>
        <time>2013-08-16T09:26:01Z</time>
      </trkpt>
      <trkpt lat="43.65743" lon="3.39541">
        <ele>143.37</ele>
        <time>2013-08-16T09:26:31Z</time>
      </trkpt>
      <trkpt lat="43.65743" lon="3.39542">
        <ele>142.89</ele>
        <time>2013-08-16T09:26:56Z</time>
      </trkpt>
      <trkpt lat="43.65742" lon="3.39543">
        <ele>142.89</ele>
        <time>2013-08-16T09:27:15Z</time>
      </trkpt>
      <trkpt lat="43.65741" lon="3.39545">
        <ele>142.41</ele>
        <time>2013-08-16T09:27:29Z</time>
      </trkpt>
      <trkpt lat="43.65741" lon="3.39544">
        <ele>142.41</ele>
        <time>2013-08-16T09:27:45Z</time>
      </trkpt>
      <trkpt lat="43.65741" lon="3.39544">
        <ele>142.89</ele>
        <time>2013-08-16T09:28:11Z</time>
      </trkpt>
      <trkpt lat="43.6574" lon="3.39544">
        <ele>142.41</ele>
        <time>2013-08-16T09:28:42Z</time>
      </trkpt>
      <trkpt lat="43.65741" lon="3.39544">
        <ele>142.41</ele>
        <time>2013-08-16T09:29:15Z</time>
      </trkpt>
      <trkpt lat="43.65741" lon="3.39544">
        <ele>142.89</ele>
        <time>2013-08-16T09:29:40Z</time>
      </trkpt>
      <trkpt lat="43.65742" lon="3.39545">
        <ele>143.37</ele>
        <time>2013-08-16T09:30:22Z</time>
      </trkpt>
      <trkpt lat="43.65741" lon="3.39545">
        <ele>142.89</ele>
        <time>2013-08-16T09:30:59Z</time>
      </trkpt>
      <trkpt lat="43.6574" lon="3.39544">
        <ele>142.89</ele>
        <time>2013-08-16T09:31:37Z</time>
      </trkpt>
      <trkpt lat="43.65741" lon="3.39544">
        <ele>142.89</ele>
        <time>2013-08-16T09:32:15Z</time>
      </trkpt>
      <trkpt lat="43.65742" lon="3.39545">
        <ele>143.37</ele>
        <time>2013-08-16T09:33:02Z</time>
      </trkpt>
      <trkpt lat="43.65741" lon="3.39544">
        <ele>142.89</ele>
        <time>2013-08-16T09:33:50Z</time>
      </trkpt>
      <trkpt lat="43.65742" lon="3.39545">
        <ele>143.37</ele>
        <time>2013-08-16T09:34:34Z</time>
      </trkpt>
      <trkpt lat="43.65741" lon="3.39543">
        <ele>143.37</ele>
        <time>2013-08-16T09:35:25Z</time>
      </trkpt>
      <trkpt lat="43.65742" lon="3.39544">
        <ele>143.85</ele>
        <time>2013-08-16T09:36:16Z</time>
      </trkpt>
      <trkpt lat="43.6574" lon="3.39545">
        <ele>142.89</ele>
        <time>2013-08-16T09:37:07Z</time>
      </trkpt>
      <trkpt lat="43.65743" lon="3.39544">
        <ele>142.89</ele>
        <time>2013-08-16T09:37:57Z</time>
      </trkpt>
      <trkpt lat="43.65742" lon="3.39544">
        <ele>142.89</ele>
        <time>2013-08-16T09:38:45Z</time>
      </trkpt>
      <trkpt lat="43.65741" lon="3.39543">
        <ele>142.89</ele>
        <time>2013-08-16T09:39:33Z</time>
      </trkpt>
      <trkpt lat="43.65741" lon="3.39544">
        <ele>142.89</ele>
        <time>2013-08-16T09:40:13Z</time>
      </trkpt>
      <trkpt lat="43.65741" lon="3.39544">
        <ele>143.37</ele>
        <time>2013-08-16T09:40:56Z</time>
      </trkpt>
      <trkpt lat="43.65741" lon="3.39544">
        <ele>143.37</ele>
        <time>2013-08-16T09:41:38Z</time>
      </trkpt>
      <trkpt lat="43.65741" lon="3.39544">
        <ele>143.37</ele>
        <time>2013-08-16T09:42:20Z</time>
      </trkpt>
      <trkpt lat="43.6574" lon="3.39543">
        <ele>142.89</ele>
        <time>2013-08-16T09:42:58Z</time>
      </trkpt>
      <trkpt lat="43.65742" lon="3.39544">
        <ele>143.37</ele>
        <time>2013-08-16T09:43:39Z</time>
      </trkpt>
      <trkpt lat="43.65742" lon="3.39545">
        <ele>143.37</ele>
        <time>2013-08-16T09:44:17Z</time>
      </trkpt>
      <trkpt lat="43.65742" lon="3.39544">
        <ele>142.89</ele>
        <time>2013-08-16T09:44:52Z</time>
      </trkpt>
      <trkpt lat="43.65741" lon="3.39545">
        <ele>142.89</ele>
        <time>2013-08-16T09:45:28Z</time>
      </trkpt>
      <trkpt lat="43.65742" lon="3.39545">
        <ele>142.89</ele>
        <time>2013-08-16T09:46:04Z</time>
      </trkpt>
      <trkpt lat="43.65741" lon="3.39545">
        <ele>142.89</ele>
        <time>2013-08-16T09:46:39Z</time>
      </trkpt>
      <trkpt lat="43.65741" lon="3.39544">
        <ele>142.41</ele>
        <time>2013-08-16T09:47:13Z</time>
      </trkpt>
      <trkpt lat="43.65741" lon="3.39545">
        <ele>142.89</ele>
        <time>2013-08-16T09:47:39Z</time>
      </trkpt>
      <trkpt lat="43.65741" lon="3.39544">
        <ele>142.89</ele>
        <time>2013-08-16T09:48:15Z</time>
      </trkpt>
      <trkpt lat="43.65741" lon="3.39543">
        <ele>142.89</ele>
        <time>2013-08-16T09:48:47Z</time>
      </trkpt>
      <trkpt lat="43.65741" lon="3.39544">
        <ele>143.37</ele>
        <time>2013-08-16T09:49:24Z</time>
      </trkpt>
      <trkpt lat="43.65741" lon="3.39543">
        <ele>142.89</ele>
        <time>2013-08-16T09:50:00Z</time>
      </trkpt>
      <trkpt lat="43.65741" lon="3.39544">
        <ele>142.41</ele>
        <time>2013-08-16T09:50:35Z</time>
      </trkpt>
      <trkpt lat="43.6574" lon="3.39545">
        <ele>142.89</ele>
        <time>2013-08-16T09:51:09Z</time>
      </trkpt>
      <trkpt lat="43.65741" lon="3.39543">
        <ele>142.89</ele>
        <time>2013-08-16T09:51:53Z</time>
      </trkpt>
      <trkpt lat="43.6574" lon="3.39542">
        <ele>142.41</ele>
        <time>2013-08-16T09:52:36Z</time>
      </trkpt>
      <trkpt lat="43.6574" lon="3.39544">
        <ele>143.37</ele>
        <time>2013-08-16T09:53:17Z</time>
      </trkpt>
      <trkpt lat="43.6574" lon="3.39544">
        <ele>143.85</ele>
        <time>2013-08-16T09:53:57Z</time>
      </trkpt>
      <trkpt lat="43.65741" lon="3.39544">
        <ele>142.41</ele>
        <time>2013-08-16T09:54:40Z</time>
      </trkpt>
      <trkpt lat="43.65742" lon="3.39544">
        <ele>142.89</ele>
        <time>2013-08-16T09:55:19Z</time>
      </trkpt>
      <trkpt lat="43.6574" lon="3.39545">
        <ele>143.85</ele>
        <time>2013-08-16T09:55:59Z</time>
      </trkpt>
      <trkpt lat="43.6574" lon="3.39543">
        <ele>142.89</ele>
        <time>2013-08-16T09:56:03Z</time>
      </trkpt>
      <trkpt lat="43.65742" lon="3.39544">
        <ele>143.37</ele>
        <time>2013-08-16T09:56:17Z</time>
      </trkpt>
      <trkpt lat="43.65746" lon="3.39549">
        <ele>144.34</ele>
        <time>2013-08-16T09:56:28Z</time>
      </trkpt>
      <trkpt lat="43.65745" lon="3.39549">
        <ele>145.3</ele>
        <time>2013-08-16T09:56:31Z</time>
      </trkpt>
      <trkpt lat="43.65741" lon="3.39554">
        <ele>143.85</ele>
        <time>2013-08-16T09:56:37Z</time>
      </trkpt>
      <trkpt lat="43.65738" lon="3.39558">
        <ele>144.34</ele>
        <time>2013-08-16T09:56:40Z</time>
      </trkpt>
      <trkpt lat="43.65735" lon="3.39566">
        <ele>143.85</ele>
        <time>2013-08-16T09:56:44Z</time>
      </trkpt>
      <trkpt lat="43.65729" lon="3.39577">
        <ele>145.3</ele>
        <time>2013-08-16T09:56:54Z</time>
      </trkpt>
      <trkpt lat="43.65729" lon="3.39579">
        <ele>145.3</ele>
        <time>2013-08-16T09:57:00Z</time>
      </trkpt>
      <trkpt lat="43.65727" lon="3.39582">
        <ele>145.78</ele>
        <time>2013-08-16T09:57:08Z</time>
      </trkpt>
      <trkpt lat="43.6572" lon="3.39602">
        <ele>145.78</ele>
        <time>2013-08-16T09:57:18Z</time>
      </trkpt>
      <trkpt lat="43.65712" lon="3.39613">
        <ele>146.74</ele>
        <time>2013-08-16T09:57:34Z</time>
      </trkpt>
      <trkpt lat="43.65711" lon="3.39613">
        <ele>146.74</ele>
        <time>2013-08-16T09:57:43Z</time>
      </trkpt>
      <trkpt lat="43.65717" lon="3.39622">
        <ele>148.18</ele>
        <time>2013-08-16T09:57:55Z</time>
      </trkpt>
      <trkpt lat="43.65721" lon="3.39624">
        <ele>148.66</ele>
        <time>2013-08-16T09:57:59Z</time>
      </trkpt>
      <trkpt lat="43.65733" lon="3.39618">
        <ele>150.1</ele>
        <time>2013-08-16T09:58:12Z</time>
      </trkpt>
      <trkpt lat="43.65737" lon="3.3962">
        <ele>150.58</ele>
        <time>2013-08-16T09:58:24Z</time>
      </trkpt>
      <trkpt lat="43.65739" lon="3.39622">
        <ele>151.54</ele>
        <time>2013-08-16T09:58:36Z</time>
      </trkpt>
      <trkpt lat="43.65747" lon="3.39626">
        <ele>151.54</ele>
        <time>2013-08-16T09:58:45Z</time>
      </trkpt>
      <trkpt lat="43.65755" lon="3.39626">
        <ele>152.99</ele>
        <time>2013-08-16T09:58:52Z</time>
      </trkpt>
      <trkpt lat="43.65759" lon="3.39626">
        <ele>153.47</ele>
        <time>2013-08-16T09:58:55Z</time>
      </trkpt>
      <trkpt lat="43.65769" lon="3.39625">
        <ele>155.87</ele>
        <time>2013-08-16T09:59:02Z</time>
      </trkpt>
      <trkpt lat="43.65775" lon="3.39623">
        <ele>157.31</ele>
        <time>2013-08-16T09:59:08Z</time>
      </trkpt>
      <trkpt lat="43.65782" lon="3.39623">
        <ele>157.79</ele>
        <time>2013-08-16T09:59:13Z</time>
      </trkpt>
      <trkpt lat="43.65789" lon="3.3962">
        <ele>160.2</ele>
        <time>2013-08-16T09:59:24Z</time>
      </trkpt>
      <trkpt lat="43.65793" lon="3.39622">
        <ele>160.2</ele>
        <time>2013-08-16T09:59:36Z</time>
      </trkpt>
      <trkpt lat="43.65793" lon="3.39622">
        <ele>159.72</ele>
        <time>2013-08-16T09:59:52Z</time>
      </trkpt>
      <trkpt lat="43.65794" lon="3.39623">
        <ele>158.75</ele>
        <time>2013-08-16T10:00:12Z</time>
      </trkpt>
      <trkpt lat="43.65795" lon="3.39623">
        <ele>158.75</ele>
        <time>2013-08-16T10:00:22Z</time>
      </trkpt>
      <trkpt lat="43.65799" lon="3.39629">
        <ele>158.27</ele>
        <time>2013-08-16T10:00:36Z</time>
      </trkpt>
      <trkpt lat="43.65801" lon="3.39631">
        <ele>156.83</ele>
        <time>2013-08-16T10:00:44Z</time>
      </trkpt>
      <trkpt lat="43.65806" lon="3.39636">
        <ele>158.27</ele>
        <time>2013-08-16T10:00:54Z</time>
      </trkpt>
      <trkpt lat="43.65806" lon="3.39636">
        <ele>157.79</ele>
        <time>2013-08-16T10:01:00Z</time>
      </trkpt>
      <trkpt lat="43.65809" lon="3.3964">
        <ele>157.79</ele>
        <time>2013-08-16T10:01:04Z</time>
      </trkpt>
      <trkpt lat="43.65811" lon="3.39643">
        <ele>156.83</ele>
        <time>2013-08-16T10:01:16Z</time>
      </trkpt>
      <trkpt lat="43.65812" lon="3.39643">
        <ele>158.27</ele>
        <time>2013-08-16T10:01:29Z</time>
      </trkpt>
      <trkpt lat="43.65821" lon="3.39644">
        <ele>161.16</ele>
        <time>2013-08-16T10:01:43Z</time>
      </trkpt>
      <trkpt lat="43.65823" lon="3.39635">
        <ele>164.04</ele>
        <time>2013-08-16T10:01:56Z</time>
      </trkpt>
      <trkpt lat="43.6582" lon="3.39626">
        <ele>165.48</ele>
        <time>2013-08-16T10:02:09Z</time>
      </trkpt>
      <trkpt lat="43.65822" lon="3.39622">
        <ele>166.93</ele>
        <time>2013-08-16T10:02:21Z</time>
      </trkpt>
      <trkpt lat="43.65828" lon="3.39615">
        <ele>168.85</ele>
        <time>2013-08-16T10:02:35Z</time>
      </trkpt>
      <trkpt lat="43.65831" lon="3.39611">
        <ele>170.29</ele>
        <time>2013-08-16T10:02:42Z</time>
      </trkpt>
      <trkpt lat="43.65838" lon="3.39611">
        <ele>171.25</ele>
        <time>2013-08-16T10:02:53Z</time>
      </trkpt>
      <trkpt lat="43.65842" lon="3.39608">
        <ele>173.17</ele>
        <time>2013-08-16T10:02:59Z</time>
      </trkpt>
      <trkpt lat="43.65846" lon="3.39607">
        <ele>173.66</ele>
        <time>2013-08-16T10:03:13Z</time>
      </trkpt>
      <trkpt lat="43.65844" lon="3.39605">
        <ele>173.66</ele>
        <time>2013-08-16T10:03:31Z</time>
      </trkpt>
      <trkpt lat="43.65845" lon="3.39605">
        <ele>173.17</ele>
        <time>2013-08-16T10:04:12Z</time>
      </trkpt>
      <trkpt lat="43.65846" lon="3.39606">
        <ele>173.66</ele>
        <time>2013-08-16T10:04:51Z</time>
      </trkpt>
      <trkpt lat="43.65847" lon="3.39606">
        <ele>174.14</ele>
        <time>2013-08-16T10:04:57Z</time>
      </trkpt>
      <trkpt lat="43.65856" lon="3.39607">
        <ele>173.66</ele>
        <time>2013-08-16T10:05:11Z</time>
      </trkpt>
      <trkpt lat="43.6587" lon="3.39608">
        <ele>176.06</ele>
        <time>2013-08-16T10:05:25Z</time>
      </trkpt>
      <trkpt lat="43.65877" lon="3.39609">
        <ele>178.46</ele>
        <time>2013-08-16T10:05:36Z</time>
      </trkpt>
      <trkpt lat="43.65881" lon="3.3961">
        <ele>178.46</ele>
        <time>2013-08-16T10:05:41Z</time>
      </trkpt>
      <trkpt lat="43.6589" lon="3.39602">
        <ele>181.83</ele>
        <time>2013-08-16T10:05:57Z</time>
      </trkpt>
      <trkpt lat="43.65897" lon="3.39602">
        <ele>182.31</ele>
        <time>2013-08-16T10:06:11Z</time>
      </trkpt>
      <trkpt lat="43.65897" lon="3.39603">
        <ele>182.79</ele>
        <time>2013-08-16T10:06:23Z</time>
      </trkpt>
      <trkpt lat="43.659" lon="3.39602">
        <ele>183.27</ele>
        <time>2013-08-16T10:06:41Z</time>
      </trkpt>
      <trkpt lat="43.65906" lon="3.396">
        <ele>182.79</ele>
        <time>2013-08-16T10:06:48Z</time>
      </trkpt>
      <trkpt lat="43.65914" lon="3.39602">
        <ele>184.23</ele>
        <time>2013-08-16T10:06:56Z</time>
      </trkpt>
      <trkpt lat="43.65921" lon="3.39599">
        <ele>185.19</ele>
        <time>2013-08-16T10:07:02Z</time>
      </trkpt>
      <trkpt lat="43.65927" lon="3.39593">
        <ele>186.15</ele>
        <time>2013-08-16T10:07:10Z</time>
      </trkpt>
      <trkpt lat="43.65933" lon="3.39595">
        <ele>187.59</ele>
        <time>2013-08-16T10:07:20Z</time>
      </trkpt>
      <trkpt lat="43.65934" lon="3.39594">
        <ele>187.11</ele>
        <time>2013-08-16T10:07:22Z</time>
      </trkpt>
      <trkpt lat="43.65941" lon="3.39586">
        <ele>189.52</ele>
        <time>2013-08-16T10:07:35Z</time>
      </trkpt>
      <trkpt lat="43.65942" lon="3.39579">
        <ele>192.4</ele>
        <time>2013-08-16T10:07:48Z</time>
      </trkpt>
      <trkpt lat="43.65945" lon="3.39572">
        <ele>194.32</ele>
        <time>2013-08-16T10:07:58Z</time>
      </trkpt>
      <trkpt lat="43.6595" lon="3.39565">
        <ele>197.69</ele>
        <time>2013-08-16T10:08:11Z</time>
      </trkpt>
      <trkpt lat="43.65951" lon="3.39565">
        <ele>197.21</ele>
        <time>2013-08-16T10:08:12Z</time>
      </trkpt>
      <trkpt lat="43.65952" lon="3.39564">
        <ele>197.69</ele>
        <time>2013-08-16T10:08:20Z</time>
      </trkpt>
      <trkpt lat="43.65952" lon="3.3956">
        <ele>199.13</ele>
        <time>2013-08-16T10:08:31Z</time>
      </trkpt>
      <trkpt lat="43.65954" lon="3.39552">
        <ele>200.57</ele>
        <time>2013-08-16T10:08:42Z</time>
      </trkpt>
      <trkpt lat="43.65953" lon="3.39543">
        <ele>202.49</ele>
        <time>2013-08-16T10:08:54Z</time>
      </trkpt>
      <trkpt lat="43.65956" lon="3.39537">
        <ele>204.42</ele>
        <time>2013-08-16T10:09:05Z</time>
      </trkpt>
      <trkpt lat="43.65956" lon="3.39537">
        <ele>204.9</ele>
        <time>2013-08-16T10:09:08Z</time>
      </trkpt>
      <trkpt lat="43.6596" lon="3.39532">
        <ele>205.38</ele>
        <time>2013-08-16T10:09:20Z</time>
      </trkpt>
      <trkpt lat="43.65961" lon="3.39534">
        <ele>206.82</ele>
        <time>2013-08-16T10:10:00Z</time>
      </trkpt>
      <trkpt lat="43.65961" lon="3.39533">
        <ele>205.38</ele>
        <time>2013-08-16T10:10:42Z</time>
      </trkpt>
      <trkpt lat="43.6596" lon="3.39533">
        <ele>204.42</ele>
        <time>2013-08-16T10:11:15Z</time>
      </trkpt>
      <trkpt lat="43.6596" lon="3.39532">
        <ele>206.34</ele>
        <time>2013-08-16T10:11:31Z</time>
      </trkpt>
      <trkpt lat="43.6596" lon="3.3953">
        <ele>207.3</ele>
        <time>2013-08-16T10:11:54Z</time>
      </trkpt>
      <trkpt lat="43.6596" lon="3.39526">
        <ele>208.74</ele>
        <time>2013-08-16T10:12:05Z</time>
      </trkpt>
      <trkpt lat="43.65962" lon="3.39526">
        <ele>208.26</ele>
        <time>2013-08-16T10:12:17Z</time>
      </trkpt>
      <trkpt lat="43.65962" lon="3.39524">
        <ele>208.74</ele>
        <time>2013-08-16T10:12:34Z</time>
      </trkpt>
      <trkpt lat="43.65962" lon="3.39523">
        <ele>209.22</ele>
        <time>2013-08-16T10:12:55Z</time>
      </trkpt>
      <trkpt lat="43.65963" lon="3.3952">
        <ele>210.19</ele>
        <time>2013-08-16T10:13:07Z</time>
      </trkpt>
      <trkpt lat="43.65963" lon="3.3952">
        <ele>209.7</ele>
        <time>2013-08-16T10:13:09Z</time>
      </trkpt>
      <trkpt lat="43.65965" lon="3.39519">
        <ele>211.15</ele>
        <time>2013-08-16T10:13:21Z</time>
      </trkpt>
      <trkpt lat="43.65966" lon="3.39517">
        <ele>213.07</ele>
        <time>2013-08-16T10:13:34Z</time>
      </trkpt>
      <trkpt lat="43.65965" lon="3.39516">
        <ele>212.59</ele>
        <time>2013-08-16T10:13:48Z</time>
      </trkpt>
      <trkpt lat="43.65966" lon="3.39515">
        <ele>213.55</ele>
        <time>2013-08-16T10:14:00Z</time>
      </trkpt>
      <trkpt lat="43.65966" lon="3.39515">
        <ele>213.55</ele>
        <time>2013-08-16T10:14:12Z</time>
      </trkpt>
      <trkpt lat="43.65968" lon="3.39516">
        <ele>214.51</ele>
        <time>2013-08-16T10:14:26Z</time>
      </trkpt>
      <trkpt lat="43.65969" lon="3.39515">
        <ele>214.99</ele>
        <time>2013-08-16T10:14:37Z</time>
      </trkpt>
      <trkpt lat="43.65969" lon="3.39515">
        <ele>214.99</ele>
        <time>2013-08-16T10:14:59Z</time>
      </trkpt>
      <trkpt lat="43.65969" lon="3.39514">
        <ele>215.95</ele>
        <time>2013-08-16T10:15:13Z</time>
      </trkpt>
      <trkpt lat="43.65969" lon="3.39512">
        <ele>216.43</ele>
        <time>2013-08-16T10:15:25Z</time>
      </trkpt>
      <trkpt lat="43.65969" lon="3.39512">
        <ele>216.91</ele>
        <time>2013-08-16T10:15:37Z</time>
      </trkpt>
      <trkpt lat="43.65971" lon="3.39512">
        <ele>216.91</ele>
        <time>2013-08-16T10:15:55Z</time>
      </trkpt>
      <trkpt lat="43.65972" lon="3.39512">
        <ele>218.84</ele>
        <time>2013-08-16T10:16:11Z</time>
      </trkpt>
      <trkpt lat="43.65974" lon="3.39508">
        <ele>219.8</ele>
        <time>2013-08-16T10:16:23Z</time>
      </trkpt>
      <trkpt lat="43.65976" lon="3.39508">
        <ele>221.24</ele>
        <time>2013-08-16T10:16:34Z</time>
      </trkpt>
      <trkpt lat="43.65981" lon="3.39511">
        <ele>222.2</ele>
        <time>2013-08-16T10:16:44Z</time>
      </trkpt>
      <trkpt lat="43.65984" lon="3.3951">
        <ele>224.61</ele>
        <time>2013-08-16T10:16:50Z</time>
      </trkpt>
      <trkpt lat="43.65992" lon="3.39508">
        <ele>225.57</ele>
        <time>2013-08-16T10:17:03Z</time>
      </trkpt>
      <trkpt lat="43.65997" lon="3.39507">
        <ele>226.05</ele>
        <time>2013-08-16T10:17:20Z</time>
      </trkpt>
      <trkpt lat="43.6601" lon="3.39505">
        <ele>227.97</ele>
        <time>2013-08-16T10:17:33Z</time>
      </trkpt>
      <trkpt lat="43.6602" lon="3.39497">
        <ele>228.93</ele>
        <time>2013-08-16T10:17:45Z</time>
      </trkpt>
      <trkpt lat="43.66026" lon="3.39485">
        <ele>227.97</ele>
        <time>2013-08-16T10:17:57Z</time>
      </trkpt>
      <trkpt lat="43.66029" lon="3.3948">
        <ele>227.97</ele>
        <time>2013-08-16T10:18:01Z</time>
      </trkpt>
      <trkpt lat="43.66033" lon="3.39476">
        <ele>227.97</ele>
        <time>2013-08-16T10:18:15Z</time>
      </trkpt>
      <trkpt lat="43.66052" lon="3.39477">
        <ele>227.97</ele>
        <time>2013-08-16T10:18:28Z</time>
      </trkpt>
      <trkpt lat="43.66058" lon="3.39475">
        <ele>228.93</ele>
        <time>2013-08-16T10:18:32Z</time>
      </trkpt>
      <trkpt lat="43.66061" lon="3.39472">
        <ele>227.49</ele>
        <time>2013-08-16T10:18:44Z</time>
      </trkpt>
      <trkpt lat="43.66061" lon="3.39472">
        <ele>228.93</ele>
        <time>2013-08-16T10:19:07Z</time>
      </trkpt>
      <trkpt lat="43.66061" lon="3.39472">
        <ele>226.05</ele>
        <time>2013-08-16T10:19:08Z</time>
      </trkpt>
      <trkpt lat="43.66071" lon="3.39463">
        <ele>227.49</ele>
        <time>2013-08-16T10:19:23Z</time>
      </trkpt>
      <trkpt lat="43.6609" lon="3.39443">
        <ele>228.45</ele>
        <time>2013-08-16T10:19:32Z</time>
      </trkpt>
      <trkpt lat="43.66099" lon="3.39422">
        <ele>229.41</ele>
        <time>2013-08-16T10:19:47Z</time>
      </trkpt>
      <trkpt lat="43.66099" lon="3.39422">
        <ele>225.57</ele>
        <time>2013-08-16T10:20:12Z</time>
      </trkpt>
      <trkpt lat="43.66099" lon="3.39422">
        <ele>231.33</ele>
        <time>2013-08-16T10:20:13Z</time>
      </trkpt>
      <trkpt lat="43.66099" lon="3.39422">
        <ele>226.05</ele>
        <time>2013-08-16T10:20:17Z</time>
      </trkpt>
      <trkpt lat="43.66099" lon="3.39422">
        <ele>231.33</ele>
        <time>2013-08-16T10:20:18Z</time>
      </trkpt>
      <trkpt lat="43.66099" lon="3.39421">
        <ele>225.57</ele>
        <time>2013-08-16T10:20:23Z</time>
      </trkpt>
      <trkpt lat="43.66099" lon="3.39421">
        <ele>232.3</ele>
        <time>2013-08-16T10:20:24Z</time>
      </trkpt>
      <trkpt lat="43.66099" lon="3.39421">
        <ele>225.09</ele>
        <time>2013-08-16T10:20:25Z</time>
      </trkpt>
      <trkpt lat="43.66099" lon="3.39421">
        <ele>230.85</ele>
        <time>2013-08-16T10:20:26Z</time>
      </trkpt>
      <trkpt lat="43.66099" lon="3.39421">
        <ele>225.09</ele>
        <time>2013-08-16T10:20:27Z</time>
      </trkpt>
      <trkpt lat="43.66099" lon="3.39421">
        <ele>230.37</ele>
        <time>2013-08-16T10:20:28Z</time>
      </trkpt>
      <trkpt lat="43.66099" lon="3.39421">
        <ele>227.01</ele>
        <time>2013-08-16T10:20:32Z</time>
      </trkpt>
      <trkpt lat="43.66099" lon="3.39421">
        <ele>231.81</ele>
        <time>2013-08-16T10:20:33Z</time>
      </trkpt>
      <trkpt lat="43.66099" lon="3.39421">
        <ele>225.09</ele>
        <time>2013-08-16T10:20:35Z</time>
      </trkpt>
      <trkpt lat="43.66099" lon="3.39421">
        <ele>232.3</ele>
        <time>2013-08-16T10:20:36Z</time>
      </trkpt>
      <trkpt lat="43.66099" lon="3.39421">
        <ele>229.41</ele>
        <time>2013-08-16T10:20:38Z</time>
      </trkpt>
      <trkpt lat="43.661" lon="3.39421">
        <ele>222.68</ele>
        <time>2013-08-16T10:20:43Z</time>
      </trkpt>
      <trkpt lat="43.661" lon="3.39421">
        <ele>231.81</ele>
        <time>2013-08-16T10:20:44Z</time>
      </trkpt>
      <trkpt lat="43.661" lon="3.39421">
        <ele>228.93</ele>
        <time>2013-08-16T10:20:48Z</time>
      </trkpt>
      <trkpt lat="43.661" lon="3.39421">
        <ele>233.74</ele>
        <time>2013-08-16T10:20:53Z</time>
      </trkpt>
      <trkpt lat="43.661" lon="3.39421">
        <ele>224.61</ele>
        <time>2013-08-16T10:20:54Z</time>
      </trkpt>
      <trkpt lat="43.66101" lon="3.39421">
        <ele>230.37</ele>
        <time>2013-08-16T10:20:55Z</time>
      </trkpt>
      <trkpt lat="43.66101" lon="3.39421">
        <ele>223.64</ele>
        <time>2013-08-16T10:20:57Z</time>
      </trkpt>
      <trkpt lat="43.66101" lon="3.39421">
        <ele>228.45</ele>
        <time>2013-08-16T10:20:58Z</time>
      </trkpt>
      <trkpt lat="43.66101" lon="3.39421">
        <ele>232.78</ele>
        <time>2013-08-16T10:20:59Z</time>
      </trkpt>
      <trkpt lat="43.66101" lon="3.39421">
        <ele>227.49</ele>
        <time>2013-08-16T10:21:00Z</time>
      </trkpt>
      <trkpt lat="43.66101" lon="3.39421">
        <ele>230.85</ele>
        <time>2013-08-16T10:21:04Z</time>
      </trkpt>
      <trkpt lat="43.66101" lon="3.39421">
        <ele>226.05</ele>
        <time>2013-08-16T10:21:05Z</time>
      </trkpt>
      <trkpt lat="43.66101" lon="3.39421">
        <ele>232.3</ele>
        <time>2013-08-16T10:21:06Z</time>
      </trkpt>
      <trkpt lat="43.661" lon="3.39421">
        <ele>229.41</ele>
        <time>2013-08-16T10:21:13Z</time>
      </trkpt>
      <trkpt lat="43.661" lon="3.39421">
        <ele>222.68</ele>
        <time>2013-08-16T10:21:18Z</time>
      </trkpt>
      <trkpt lat="43.661" lon="3.39421">
        <ele>230.37</ele>
        <time>2013-08-16T10:21:19Z</time>
      </trkpt>
      <trkpt lat="43.661" lon="3.39421">
        <ele>226.05</ele>
        <time>2013-08-16T10:21:20Z</time>
      </trkpt>
      <trkpt lat="43.661" lon="3.39421">
        <ele>229.89</ele>
        <time>2013-08-16T10:21:21Z</time>
      </trkpt>
      <trkpt lat="43.661" lon="3.39421">
        <ele>234.7</ele>
        <time>2013-08-16T10:21:24Z</time>
      </trkpt>
      <trkpt lat="43.661" lon="3.39421">
        <ele>229.41</ele>
        <time>2013-08-16T10:21:25Z</time>
      </trkpt>
      <trkpt lat="43.661" lon="3.39421">
        <ele>234.7</ele>
        <time>2013-08-16T10:21:35Z</time>
      </trkpt>
      <trkpt lat="43.66099" lon="3.39421">
        <ele>221.72</ele>
        <time>2013-08-16T10:21:36Z</time>
      </trkpt>
      <trkpt lat="43.66099" lon="3.39421">
        <ele>230.85</ele>
        <time>2013-08-16T10:21:37Z</time>
      </trkpt>
      <trkpt lat="43.66099" lon="3.39421">
        <ele>225.57</ele>
        <time>2013-08-16T10:21:43Z</time>
      </trkpt>
      <trkpt lat="43.66099" lon="3.39421">
        <ele>231.33</ele>
        <time>2013-08-16T10:21:44Z</time>
      </trkpt>
      <trkpt lat="43.661" lon="3.39421">
        <ele>224.12</ele>
        <time>2013-08-16T10:21:51Z</time>
      </trkpt>
      <trkpt lat="43.661" lon="3.39421">
        <ele>230.85</ele>
        <time>2013-08-16T10:21:52Z</time>
      </trkpt>
      <trkpt lat="43.66099" lon="3.39421">
        <ele>227.01</ele>
        <time>2013-08-16T10:21:54Z</time>
      </trkpt>
      <trkpt lat="43.66099" lon="3.39421">
        <ele>231.33</ele>
        <time>2013-08-16T10:21:55Z</time>
      </trkpt>
      <trkpt lat="43.66103" lon="3.39405">
        <ele>228.93</ele>
        <time>2013-08-16T10:22:17Z</time>
      </trkpt>
      <trkpt lat="43.66128" lon="3.39358">
        <ele>228.45</ele>
        <time>2013-08-16T10:22:31Z</time>
      </trkpt>
      <trkpt lat="43.66151" lon="3.39311">
        <ele>226.53</ele>
        <time>2013-08-16T10:22:44Z</time>
      </trkpt>
      <trkpt lat="43.66164" lon="3.39283">
        <ele>225.57</ele>
        <time>2013-08-16T10:22:55Z</time>
      </trkpt>
      <trkpt lat="43.66168" lon="3.39273">
        <ele>224.61</ele>
        <time>2013-08-16T10:22:59Z</time>
      </trkpt>
      <trkpt lat="43.66173" lon="3.39248">
        <ele>222.68</ele>
        <time>2013-08-16T10:23:05Z</time>
      </trkpt>
      <trkpt lat="43.66173" lon="3.39242">
        <ele>223.16</ele>
        <time>2013-08-16T10:23:06Z</time>
      </trkpt>
      <trkpt lat="43.66173" lon="3.39235">
        <ele>222.68</ele>
        <time>2013-08-16T10:23:07Z</time>
      </trkpt>
      <trkpt lat="43.6617" lon="3.39219">
        <ele>221.24</ele>
        <time>2013-08-16T10:23:09Z</time>
      </trkpt>
      <trkpt lat="43.66168" lon="3.39211">
        <ele>221.72</ele>
        <time>2013-08-16T10:23:10Z</time>
      </trkpt>
      <trkpt lat="43.66164" lon="3.39192">
        <ele>218.84</ele>
        <time>2013-08-16T10:23:12Z</time>
      </trkpt>
      <trkpt lat="43.66162" lon="3.39183">
        <ele>219.32</ele>
        <time>2013-08-16T10:23:13Z</time>
      </trkpt>
      <trkpt lat="43.66159" lon="3.39167">
        <ele>217.4</ele>
        <time>2013-08-16T10:23:15Z</time>
      </trkpt>
      <trkpt lat="43.66158" lon="3.39159">
        <ele>217.4</ele>
        <time>2013-08-16T10:23:16Z</time>
      </trkpt>
      <trkpt lat="43.66159" lon="3.3915">
        <ele>216.43</ele>
        <time>2013-08-16T10:23:17Z</time>
      </trkpt>
      <trkpt lat="43.66169" lon="3.39083">
        <ele>214.51</ele>
        <time>2013-08-16T10:23:24Z</time>
      </trkpt>
      <trkpt lat="43.66173" lon="3.39065">
        <ele>214.51</ele>
        <time>2013-08-16T10:23:26Z</time>
      </trkpt>
      <trkpt lat="43.66175" lon="3.39047">
        <ele>213.55</ele>
        <time>2013-08-16T10:23:28Z</time>
      </trkpt>
      <trkpt lat="43.66178" lon="3.39028">
        <ele>212.59</ele>
        <time>2013-08-16T10:23:30Z</time>
      </trkpt>
      <trkpt lat="43.6619" lon="3.38979">
        <ele>211.63</ele>
        <time>2013-08-16T10:23:35Z</time>
      </trkpt>
      <trkpt lat="43.662" lon="3.38953">
        <ele>210.67</ele>
        <time>2013-08-16T10:23:38Z</time>
      </trkpt>
      <trkpt lat="43.66226" lon="3.38899">
        <ele>208.26</ele>
        <time>2013-08-16T10:23:47Z</time>
      </trkpt>
      <trkpt lat="43.66253" lon="3.38836">
        <ele>206.82</ele>
        <time>2013-08-16T10:23:58Z</time>
      </trkpt>
      <trkpt lat="43.66257" lon="3.3883">
        <ele>206.34</ele>
        <time>2013-08-16T10:23:59Z</time>
      </trkpt>
      <trkpt lat="43.6626" lon="3.38824">
        <ele>206.34</ele>
        <time>2013-08-16T10:24:00Z</time>
      </trkpt>
      <trkpt lat="43.66262" lon="3.38819">
        <ele>205.86</ele>
        <time>2013-08-16T10:24:01Z</time>
      </trkpt>
      <trkpt lat="43.66264" lon="3.38813">
        <ele>205.86</ele>
        <time>2013-08-16T10:24:02Z</time>
      </trkpt>
      <trkpt lat="43.66265" lon="3.38806">
        <ele>205.38</ele>
        <time>2013-08-16T10:24:03Z</time>
      </trkpt>
      <trkpt lat="43.66279" lon="3.3877">
        <ele>203.94</ele>
        <time>2013-08-16T10:24:11Z</time>
      </trkpt>
      <trkpt lat="43.66282" lon="3.38765">
        <ele>203.46</ele>
        <time>2013-08-16T10:24:12Z</time>
      </trkpt>
      <trkpt lat="43.66284" lon="3.3876">
        <ele>202.98</ele>
        <time>2013-08-16T10:24:13Z</time>
      </trkpt>
      <trkpt lat="43.66285" lon="3.38754">
        <ele>202.49</ele>
        <time>2013-08-16T10:24:14Z</time>
      </trkpt>
      <trkpt lat="43.66286" lon="3.38749">
        <ele>202.01</ele>
        <time>2013-08-16T10:24:15Z</time>
      </trkpt>
      <trkpt lat="43.66285" lon="3.38745">
        <ele>202.98</ele>
        <time>2013-08-16T10:24:16Z</time>
      </trkpt>
      <trkpt lat="43.66283" lon="3.38742">
        <ele>202.49</ele>
        <time>2013-08-16T10:24:17Z</time>
      </trkpt>
      <trkpt lat="43.66282" lon="3.3874">
        <ele>202.49</ele>
        <time>2013-08-16T10:24:18Z</time>
      </trkpt>
      <trkpt lat="43.6628" lon="3.38739">
        <ele>202.01</ele>
        <time>2013-08-16T10:24:19Z</time>
      </trkpt>
      <trkpt lat="43.66279" lon="3.38736">
        <ele>202.49</ele>
        <time>2013-08-16T10:24:20Z</time>
      </trkpt>
      <trkpt lat="43.66278" lon="3.38733">
        <ele>202.49</ele>
        <time>2013-08-16T10:24:21Z</time>
      </trkpt>
      <trkpt lat="43.66276" lon="3.38731">
        <ele>202.01</ele>
        <time>2013-08-16T10:24:22Z</time>
      </trkpt>
      <trkpt lat="43.66274" lon="3.38728">
        <ele>202.49</ele>
        <time>2013-08-16T10:24:23Z</time>
      </trkpt>
      <trkpt lat="43.66255" lon="3.3869">
        <ele>201.05</ele>
        <time>2013-08-16T10:24:37Z</time>
      </trkpt>
      <trkpt lat="43.66252" lon="3.38645">
        <ele>200.09</ele>
        <time>2013-08-16T10:24:49Z</time>
      </trkpt>
      <trkpt lat="43.66249" lon="3.38584">
        <ele>196.73</ele>
        <time>2013-08-16T10:25:01Z</time>
      </trkpt>
      <trkpt lat="43.66249" lon="3.38554">
        <ele>196.73</ele>
        <time>2013-08-16T10:25:11Z</time>
      </trkpt>
      <trkpt lat="43.66257" lon="3.38491">
        <ele>194.32</ele>
        <time>2013-08-16T10:25:25Z</time>
      </trkpt>
      <trkpt lat="43.66261" lon="3.38481">
        <ele>193.84</ele>
        <time>2013-08-16T10:25:35Z</time>
      </trkpt>
      <trkpt lat="43.6626" lon="3.38481">
        <ele>189.04</ele>
        <time>2013-08-16T10:25:42Z</time>
      </trkpt>
      <trkpt lat="43.6626" lon="3.38481">
        <ele>197.69</ele>
        <time>2013-08-16T10:25:43Z</time>
      </trkpt>
      <trkpt lat="43.6626" lon="3.38481">
        <ele>194.8</ele>
        <time>2013-08-16T10:25:44Z</time>
      </trkpt>
      <trkpt lat="43.6626" lon="3.38481">
        <ele>190</ele>
        <time>2013-08-16T10:25:46Z</time>
      </trkpt>
      <trkpt lat="43.6626" lon="3.38481">
        <ele>195.77</ele>
        <time>2013-08-16T10:25:47Z</time>
      </trkpt>
      <trkpt lat="43.6626" lon="3.38481">
        <ele>191.92</ele>
        <time>2013-08-16T10:25:52Z</time>
      </trkpt>
      <trkpt lat="43.66262" lon="3.38462">
        <ele>192.4</ele>
        <time>2013-08-16T10:26:01Z</time>
      </trkpt>
      <trkpt lat="43.66262" lon="3.3846">
        <ele>192.88</ele>
        <time>2013-08-16T10:26:03Z</time>
      </trkpt>
      <trkpt lat="43.66262" lon="3.38458">
        <ele>192.4</ele>
        <time>2013-08-16T10:26:04Z</time>
      </trkpt>
      <trkpt lat="43.66254" lon="3.38414">
        <ele>190.48</ele>
        <time>2013-08-16T10:26:18Z</time>
      </trkpt>
      <trkpt lat="43.6625" lon="3.38397">
        <ele>190.48</ele>
        <time>2013-08-16T10:26:28Z</time>
      </trkpt>
      <trkpt lat="43.6625" lon="3.38399">
        <ele>190.96</ele>
        <time>2013-08-16T10:26:45Z</time>
      </trkpt>
      <trkpt lat="43.6625" lon="3.38399">
        <ele>189.52</ele>
        <time>2013-08-16T10:26:53Z</time>
      </trkpt>
      <trkpt lat="43.66251" lon="3.38398">
        <ele>189.52</ele>
        <time>2013-08-16T10:27:29Z</time>
      </trkpt>
      <trkpt lat="43.6625" lon="3.38398">
        <ele>190</ele>
        <time>2013-08-16T10:27:49Z</time>
      </trkpt>
      <trkpt lat="43.66251" lon="3.38397">
        <ele>189.52</ele>
        <time>2013-08-16T10:28:18Z</time>
      </trkpt>
      <trkpt lat="43.66252" lon="3.38397">
        <ele>190.48</ele>
        <time>2013-08-16T10:28:48Z</time>
      </trkpt>
      <trkpt lat="43.66252" lon="3.38396">
        <ele>189.52</ele>
        <time>2013-08-16T10:28:49Z</time>
      </trkpt>
      <trkpt lat="43.66252" lon="3.38393">
        <ele>190</ele>
        <time>2013-08-16T10:28:50Z</time>
      </trkpt>
      <trkpt lat="43.66252" lon="3.38391">
        <ele>189.52</ele>
        <time>2013-08-16T10:28:51Z</time>
      </trkpt>
      <trkpt lat="43.66252" lon="3.38388">
        <ele>189.52</ele>
        <time>2013-08-16T10:28:52Z</time>
      </trkpt>
      <trkpt lat="43.66253" lon="3.38385">
        <ele>189.52</ele>
        <time>2013-08-16T10:28:53Z</time>
      </trkpt>
      <trkpt lat="43.66258" lon="3.38343">
        <ele>188.56</ele>
        <time>2013-08-16T10:29:02Z</time>
      </trkpt>
      <trkpt lat="43.66257" lon="3.38337">
        <ele>188.56</ele>
        <time>2013-08-16T10:29:03Z</time>
      </trkpt>
      <trkpt lat="43.66256" lon="3.38331">
        <ele>188.56</ele>
        <time>2013-08-16T10:29:04Z</time>
      </trkpt>
      <trkpt lat="43.66253" lon="3.3832">
        <ele>188.56</ele>
        <time>2013-08-16T10:29:06Z</time>
      </trkpt>
      <trkpt lat="43.66239" lon="3.38247">
        <ele>188.08</ele>
        <time>2013-08-16T10:29:22Z</time>
      </trkpt>
      <trkpt lat="43.66242" lon="3.38182">
        <ele>187.59</ele>
        <time>2013-08-16T10:29:36Z</time>
      </trkpt>
      <trkpt lat="43.6626" lon="3.38123">
        <ele>189.04</ele>
        <time>2013-08-16T10:29:50Z</time>
      </trkpt>
      <trkpt lat="43.66286" lon="3.38065">
        <ele>188.56</ele>
        <time>2013-08-16T10:30:05Z</time>
      </trkpt>
      <trkpt lat="43.66319" lon="3.38014">
        <ele>188.56</ele>
        <time>2013-08-16T10:30:19Z</time>
      </trkpt>
      <trkpt lat="43.66358" lon="3.37971">
        <ele>188.56</ele>
        <time>2013-08-16T10:30:33Z</time>
      </trkpt>
      <trkpt lat="43.664" lon="3.37954">
        <ele>188.08</ele>
        <time>2013-08-16T10:30:46Z</time>
      </trkpt>
      <trkpt lat="43.66455" lon="3.37946">
        <ele>188.56</ele>
        <time>2013-08-16T10:31:01Z</time>
      </trkpt>
      <trkpt lat="43.66495" lon="3.37932">
        <ele>188.56</ele>
        <time>2013-08-16T10:31:14Z</time>
      </trkpt>
      <trkpt lat="43.66496" lon="3.37926">
        <ele>188.08</ele>
        <time>2013-08-16T10:31:15Z</time>
      </trkpt>
      <trkpt lat="43.66495" lon="3.3792">
        <ele>187.59</ele>
        <time>2013-08-16T10:31:16Z</time>
      </trkpt>
      <trkpt lat="43.66493" lon="3.37915">
        <ele>187.11</ele>
        <time>2013-08-16T10:31:17Z</time>
      </trkpt>
      <trkpt lat="43.6649" lon="3.3791">
        <ele>188.08</ele>
        <time>2013-08-16T10:31:18Z</time>
      </trkpt>
      <trkpt lat="43.66485" lon="3.37901">
        <ele>187.59</ele>
        <time>2013-08-16T10:31:20Z</time>
      </trkpt>
      <trkpt lat="43.66463" lon="3.37859">
        <ele>187.59</ele>
        <time>2013-08-16T10:31:29Z</time>
      </trkpt>
      <trkpt lat="43.66439" lon="3.37806">
        <ele>188.08</ele>
        <time>2013-08-16T10:31:42Z</time>
      </trkpt>
      <trkpt lat="43.66416" lon="3.37732">
        <ele>188.08</ele>
        <time>2013-08-16T10:31:58Z</time>
      </trkpt>
      <trkpt lat="43.6641" lon="3.37683">
        <ele>188.56</ele>
        <time>2013-08-16T10:32:10Z</time>
      </trkpt>
      <trkpt lat="43.66414" lon="3.37619">
        <ele>189.04</ele>
        <time>2013-08-16T10:32:25Z</time>
      </trkpt>
      <trkpt lat="43.66419" lon="3.37575">
        <ele>188.56</ele>
        <time>2013-08-16T10:32:38Z</time>
      </trkpt>
      <trkpt lat="43.66421" lon="3.37575">
        <ele>188.56</ele>
        <time>2013-08-16T10:32:58Z</time>
      </trkpt>
      <trkpt lat="43.66426" lon="3.37555">
        <ele>188.56</ele>
        <time>2013-08-16T10:33:10Z</time>
      </trkpt>
      <trkpt lat="43.66434" lon="3.37531">
        <ele>188.56</ele>
        <time>2013-08-16T10:33:15Z</time>
      </trkpt>
      <trkpt lat="43.66437" lon="3.37526">
        <ele>189.04</ele>
        <time>2013-08-16T10:33:16Z</time>
      </trkpt>
      <trkpt lat="43.66438" lon="3.37521">
        <ele>189.52</ele>
        <time>2013-08-16T10:33:17Z</time>
      </trkpt>
      <trkpt lat="43.66467" lon="3.37452">
        <ele>189.52</ele>
        <time>2013-08-16T10:33:31Z</time>
      </trkpt>
      <trkpt lat="43.66472" lon="3.37444">
        <ele>188.56</ele>
        <time>2013-08-16T10:33:33Z</time>
      </trkpt>
      <trkpt lat="43.66491" lon="3.37427">
        <ele>189.04</ele>
        <time>2013-08-16T10:33:38Z</time>
      </trkpt>
      <trkpt lat="43.66495" lon="3.37425">
        <ele>189.52</ele>
        <time>2013-08-16T10:33:39Z</time>
      </trkpt>
      <trkpt lat="43.66514" lon="3.3741">
        <ele>188.56</ele>
        <time>2013-08-16T10:33:45Z</time>
      </trkpt>
      <trkpt lat="43.66517" lon="3.37406">
        <ele>189.04</ele>
        <time>2013-08-16T10:33:46Z</time>
      </trkpt>
      <trkpt lat="43.6652" lon="3.37402">
        <ele>188.56</ele>
        <time>2013-08-16T10:33:47Z</time>
      </trkpt>
      <trkpt lat="43.66545" lon="3.37359">
        <ele>189.04</ele>
        <time>2013-08-16T10:33:57Z</time>
      </trkpt>
      <trkpt lat="43.66587" lon="3.37309">
        <ele>190</ele>
        <time>2013-08-16T10:34:11Z</time>
      </trkpt>
      <trkpt lat="43.66618" lon="3.37269">
        <ele>190.48</ele>
        <time>2013-08-16T10:34:25Z</time>
      </trkpt>
      <trkpt lat="43.66651" lon="3.37224">
        <ele>188.56</ele>
        <time>2013-08-16T10:34:36Z</time>
      </trkpt>
      <trkpt lat="43.66672" lon="3.37183">
        <ele>188.56</ele>
        <time>2013-08-16T10:34:46Z</time>
      </trkpt>
      <trkpt lat="43.66674" lon="3.37177">
        <ele>188.56</ele>
        <time>2013-08-16T10:34:47Z</time>
      </trkpt>
      <trkpt lat="43.66674" lon="3.3717">
        <ele>189.04</ele>
        <time>2013-08-16T10:34:48Z</time>
      </trkpt>
      <trkpt lat="43.66673" lon="3.37164">
        <ele>188.08</ele>
        <time>2013-08-16T10:34:49Z</time>
      </trkpt>
      <trkpt lat="43.66669" lon="3.37158">
        <ele>188.56</ele>
        <time>2013-08-16T10:34:50Z</time>
      </trkpt>
      <trkpt lat="43.66665" lon="3.37154">
        <ele>187.59</ele>
        <time>2013-08-16T10:34:51Z</time>
      </trkpt>
      <trkpt lat="43.6666" lon="3.37152">
        <ele>187.11</ele>
        <time>2013-08-16T10:34:52Z</time>
      </trkpt>
      <trkpt lat="43.66655" lon="3.3715">
        <ele>188.08</ele>
        <time>2013-08-16T10:34:53Z</time>
      </trkpt>
      <trkpt lat="43.66651" lon="3.37149">
        <ele>188.08</ele>
        <time>2013-08-16T10:34:54Z</time>
      </trkpt>
      <trkpt lat="43.66646" lon="3.37149">
        <ele>187.11</ele>
        <time>2013-08-16T10:34:55Z</time>
      </trkpt>
      <trkpt lat="43.66641" lon="3.37149">
        <ele>187.59</ele>
        <time>2013-08-16T10:34:56Z</time>
      </trkpt>
      <trkpt lat="43.66636" lon="3.37149">
        <ele>187.59</ele>
        <time>2013-08-16T10:34:57Z</time>
      </trkpt>
      <trkpt lat="43.66621" lon="3.37147">
        <ele>186.63</ele>
        <time>2013-08-16T10:35:00Z</time>
      </trkpt>
      <trkpt lat="43.66616" lon="3.37145">
        <ele>186.15</ele>
        <time>2013-08-16T10:35:01Z</time>
      </trkpt>
      <trkpt lat="43.66611" lon="3.37142">
        <ele>185.19</ele>
        <time>2013-08-16T10:35:02Z</time>
      </trkpt>
      <trkpt lat="43.66606" lon="3.37137">
        <ele>185.67</ele>
        <time>2013-08-16T10:35:03Z</time>
      </trkpt>
      <trkpt lat="43.66601" lon="3.37133">
        <ele>186.15</ele>
        <time>2013-08-16T10:35:04Z</time>
      </trkpt>
      <trkpt lat="43.66587" lon="3.3712">
        <ele>185.19</ele>
        <time>2013-08-16T10:35:07Z</time>
      </trkpt>
      <trkpt lat="43.66584" lon="3.37114">
        <ele>185.19</ele>
        <time>2013-08-16T10:35:08Z</time>
      </trkpt>
      <trkpt lat="43.66581" lon="3.37109">
        <ele>184.71</ele>
        <time>2013-08-16T10:35:09Z</time>
      </trkpt>
      <trkpt lat="43.66574" lon="3.37091">
        <ele>184.23</ele>
        <time>2013-08-16T10:35:12Z</time>
      </trkpt>
      <trkpt lat="43.66571" lon="3.37084">
        <ele>184.71</ele>
        <time>2013-08-16T10:35:13Z</time>
      </trkpt>
      <trkpt lat="43.66568" lon="3.37078">
        <ele>184.23</ele>
        <time>2013-08-16T10:35:14Z</time>
      </trkpt>
      <trkpt lat="43.66565" lon="3.37072">
        <ele>183.75</ele>
        <time>2013-08-16T10:35:15Z</time>
      </trkpt>
      <trkpt lat="43.66561" lon="3.37067">
        <ele>184.23</ele>
        <time>2013-08-16T10:35:16Z</time>
      </trkpt>
      <trkpt lat="43.66556" lon="3.37062">
        <ele>183.75</ele>
        <time>2013-08-16T10:35:17Z</time>
      </trkpt>
      <trkpt lat="43.66552" lon="3.37056">
        <ele>182.79</ele>
        <time>2013-08-16T10:35:18Z</time>
      </trkpt>
      <trkpt lat="43.66547" lon="3.37051">
        <ele>182.31</ele>
        <time>2013-08-16T10:35:19Z</time>
      </trkpt>
      <trkpt lat="43.66543" lon="3.37044">
        <ele>182.31</ele>
        <time>2013-08-16T10:35:20Z</time>
      </trkpt>
      <trkpt lat="43.66541" lon="3.37036">
        <ele>182.31</ele>
        <time>2013-08-16T10:35:21Z</time>
      </trkpt>
      <trkpt lat="43.66538" lon="3.37028">
        <ele>181.83</ele>
        <time>2013-08-16T10:35:22Z</time>
      </trkpt>
      <trkpt lat="43.66533" lon="3.37021">
        <ele>181.83</ele>
        <time>2013-08-16T10:35:23Z</time>
      </trkpt>
      <trkpt lat="43.66528" lon="3.37015">
        <ele>180.38</ele>
        <time>2013-08-16T10:35:24Z</time>
      </trkpt>
      <trkpt lat="43.66523" lon="3.37009">
        <ele>180.38</ele>
        <time>2013-08-16T10:35:25Z</time>
      </trkpt>
      <trkpt lat="43.66488" lon="3.36967">
        <ele>179.9</ele>
        <time>2013-08-16T10:35:34Z</time>
      </trkpt>
      <trkpt lat="43.66487" lon="3.36962">
        <ele>178.94</ele>
        <time>2013-08-16T10:35:35Z</time>
      </trkpt>
      <trkpt lat="43.66486" lon="3.36956">
        <ele>179.42</ele>
        <time>2013-08-16T10:35:36Z</time>
      </trkpt>
      <trkpt lat="43.66486" lon="3.3695">
        <ele>178.94</ele>
        <time>2013-08-16T10:35:37Z</time>
      </trkpt>
      <trkpt lat="43.66487" lon="3.36944">
        <ele>179.42</ele>
        <time>2013-08-16T10:35:38Z</time>
      </trkpt>
      <trkpt lat="43.66489" lon="3.36938">
        <ele>178.46</ele>
        <time>2013-08-16T10:35:39Z</time>
      </trkpt>
      <trkpt lat="43.66492" lon="3.36933">
        <ele>177.98</ele>
        <time>2013-08-16T10:35:40Z</time>
      </trkpt>
      <trkpt lat="43.66496" lon="3.36929">
        <ele>178.46</ele>
        <time>2013-08-16T10:35:41Z</time>
      </trkpt>
      <trkpt lat="43.665" lon="3.36924">
        <ele>178.46</ele>
        <time>2013-08-16T10:35:42Z</time>
      </trkpt>
      <trkpt lat="43.66504" lon="3.36919">
        <ele>177.5</ele>
        <time>2013-08-16T10:35:43Z</time>
      </trkpt>
      <trkpt lat="43.66508" lon="3.36913">
        <ele>177.02</ele>
        <time>2013-08-16T10:35:44Z</time>
      </trkpt>
      <trkpt lat="43.6651" lon="3.36907">
        <ele>178.46</ele>
        <time>2013-08-16T10:35:45Z</time>
      </trkpt>
      <trkpt lat="43.66511" lon="3.369">
        <ele>177.5</ele>
        <time>2013-08-16T10:35:46Z</time>
      </trkpt>
      <trkpt lat="43.66512" lon="3.36894">
        <ele>177.02</ele>
        <time>2013-08-16T10:35:47Z</time>
      </trkpt>
      <trkpt lat="43.66512" lon="3.36888">
        <ele>177.98</ele>
        <time>2013-08-16T10:35:48Z</time>
      </trkpt>
      <trkpt lat="43.66521" lon="3.36839">
        <ele>178.46</ele>
        <time>2013-08-16T10:35:59Z</time>
      </trkpt>
      <trkpt lat="43.66534" lon="3.36797">
        <ele>178.46</ele>
        <time>2013-08-16T10:36:14Z</time>
      </trkpt>
      <trkpt lat="43.66538" lon="3.36784">
        <ele>177.98</ele>
        <time>2013-08-16T10:36:20Z</time>
      </trkpt>
      <trkpt lat="43.66549" lon="3.36756">
        <ele>177.98</ele>
        <time>2013-08-16T10:36:33Z</time>
      </trkpt>
      <trkpt lat="43.66555" lon="3.36744">
        <ele>178.94</ele>
        <time>2013-08-16T10:36:38Z</time>
      </trkpt>
      <trkpt lat="43.66555" lon="3.3674">
        <ele>178.46</ele>
        <time>2013-08-16T10:36:39Z</time>
      </trkpt>
      <trkpt lat="43.66555" lon="3.36737">
        <ele>179.42</ele>
        <time>2013-08-16T10:36:40Z</time>
      </trkpt>
      <trkpt lat="43.66554" lon="3.36735">
        <ele>178.94</ele>
        <time>2013-08-16T10:36:41Z</time>
      </trkpt>
      <trkpt lat="43.66553" lon="3.36731">
        <ele>178.46</ele>
        <time>2013-08-16T10:36:52Z</time>
      </trkpt>
      <trkpt lat="43.66554" lon="3.36731">
        <ele>178.46</ele>
        <time>2013-08-16T10:37:28Z</time>
      </trkpt>
      <trkpt lat="43.66554" lon="3.36731">
        <ele>178.46</ele>
        <time>2013-08-16T10:37:58Z</time>
      </trkpt>
      <trkpt lat="43.66555" lon="3.3673">
        <ele>178.46</ele>
        <time>2013-08-16T10:38:07Z</time>
      </trkpt>
      <trkpt lat="43.66556" lon="3.36729">
        <ele>178.94</ele>
        <time>2013-08-16T10:38:08Z</time>
      </trkpt>
      <trkpt lat="43.66557" lon="3.36728">
        <ele>178.46</ele>
        <time>2013-08-16T10:38:09Z</time>
      </trkpt>
      <trkpt lat="43.66559" lon="3.36725">
        <ele>178.94</ele>
        <time>2013-08-16T10:38:10Z</time>
      </trkpt>
      <trkpt lat="43.66561" lon="3.36723">
        <ele>178.46</ele>
        <time>2013-08-16T10:38:11Z</time>
      </trkpt>
      <trkpt lat="43.66563" lon="3.36722">
        <ele>178.94</ele>
        <time>2013-08-16T10:38:12Z</time>
      </trkpt>
      <trkpt lat="43.66565" lon="3.36719">
        <ele>178.94</ele>
        <time>2013-08-16T10:38:13Z</time>
      </trkpt>
      <trkpt lat="43.66567" lon="3.36717">
        <ele>178.94</ele>
        <time>2013-08-16T10:38:14Z</time>
      </trkpt>
      <trkpt lat="43.66568" lon="3.36713">
        <ele>178.94</ele>
        <time>2013-08-16T10:38:15Z</time>
      </trkpt>
      <trkpt lat="43.6657" lon="3.3671">
        <ele>177.98</ele>
        <time>2013-08-16T10:38:16Z</time>
      </trkpt>
      <trkpt lat="43.66572" lon="3.36706">
        <ele>178.46</ele>
        <time>2013-08-16T10:38:17Z</time>
      </trkpt>
      <trkpt lat="43.66575" lon="3.36703">
        <ele>178.94</ele>
        <time>2013-08-16T10:38:18Z</time>
      </trkpt>
      <trkpt lat="43.66611" lon="3.36654">
        <ele>177.98</ele>
        <time>2013-08-16T10:38:32Z</time>
      </trkpt>
      <trkpt lat="43.66644" lon="3.36606">
        <ele>178.46</ele>
        <time>2013-08-16T10:38:45Z</time>
      </trkpt>
      <trkpt lat="43.6668" lon="3.36558">
        <ele>179.9</ele>
        <time>2013-08-16T10:38:59Z</time>
      </trkpt>
      <trkpt lat="43.66719" lon="3.36506">
        <ele>179.42</ele>
        <time>2013-08-16T10:39:13Z</time>
      </trkpt>
      <trkpt lat="43.66746" lon="3.3649">
        <ele>180.38</ele>
        <time>2013-08-16T10:39:21Z</time>
      </trkpt>
      <trkpt lat="43.66748" lon="3.36485">
        <ele>179.9</ele>
        <time>2013-08-16T10:39:22Z</time>
      </trkpt>
      <trkpt lat="43.66748" lon="3.3648">
        <ele>180.38</ele>
        <time>2013-08-16T10:39:23Z</time>
      </trkpt>
      <trkpt lat="43.66748" lon="3.36475">
        <ele>180.87</ele>
        <time>2013-08-16T10:39:24Z</time>
      </trkpt>
      <trkpt lat="43.66747" lon="3.3647">
        <ele>180.87</ele>
        <time>2013-08-16T10:39:25Z</time>
      </trkpt>
      <trkpt lat="43.66761" lon="3.36434">
        <ele>181.35</ele>
        <time>2013-08-16T10:39:34Z</time>
      </trkpt>
      <trkpt lat="43.6678" lon="3.36401">
        <ele>181.83</ele>
        <time>2013-08-16T10:39:45Z</time>
      </trkpt>
      <trkpt lat="43.66803" lon="3.36351">
        <ele>181.83</ele>
        <time>2013-08-16T10:39:59Z</time>
      </trkpt>
      <trkpt lat="43.6682" lon="3.36305">
        <ele>184.23</ele>
        <time>2013-08-16T10:40:13Z</time>
      </trkpt>
      <trkpt lat="43.66824" lon="3.36293">
        <ele>182.79</ele>
        <time>2013-08-16T10:40:19Z</time>
      </trkpt>
      <trkpt lat="43.66842" lon="3.36274">
        <ele>183.27</ele>
        <time>2013-08-16T10:40:32Z</time>
      </trkpt>
      <trkpt lat="43.66843" lon="3.3627">
        <ele>179.9</ele>
        <time>2013-08-16T10:40:42Z</time>
      </trkpt>
      <trkpt lat="43.66843" lon="3.3627">
        <ele>184.23</ele>
        <time>2013-08-16T10:40:43Z</time>
      </trkpt>
      <trkpt lat="43.66843" lon="3.3627">
        <ele>179.9</ele>
        <time>2013-08-16T10:40:49Z</time>
      </trkpt>
      <trkpt lat="43.66843" lon="3.3627">
        <ele>184.23</ele>
        <time>2013-08-16T10:40:50Z</time>
      </trkpt>
      <trkpt lat="43.66844" lon="3.3627">
        <ele>188.08</ele>
        <time>2013-08-16T10:40:53Z</time>
      </trkpt>
      <trkpt lat="43.66844" lon="3.3627">
        <ele>182.79</ele>
        <time>2013-08-16T10:40:54Z</time>
      </trkpt>
      <trkpt lat="43.66844" lon="3.3627">
        <ele>183.27</ele>
        <time>2013-08-16T10:40:55Z</time>
      </trkpt>
      <trkpt lat="43.66844" lon="3.36269">
        <ele>188.08</ele>
        <time>2013-08-16T10:40:56Z</time>
      </trkpt>
      <trkpt lat="43.66844" lon="3.36269">
        <ele>187.59</ele>
        <time>2013-08-16T10:40:57Z</time>
      </trkpt>
      <trkpt lat="43.66844" lon="3.36269">
        <ele>183.27</ele>
        <time>2013-08-16T10:40:58Z</time>
      </trkpt>
      <trkpt lat="43.66844" lon="3.36269">
        <ele>183.75</ele>
        <time>2013-08-16T10:40:59Z</time>
      </trkpt>
      <trkpt lat="43.66844" lon="3.36269">
        <ele>187.59</ele>
        <time>2013-08-16T10:41:00Z</time>
      </trkpt>
      <trkpt lat="43.66844" lon="3.36269">
        <ele>182.31</ele>
        <time>2013-08-16T10:41:01Z</time>
      </trkpt>
      <trkpt lat="43.66844" lon="3.36269">
        <ele>188.08</ele>
        <time>2013-08-16T10:41:02Z</time>
      </trkpt>
      <trkpt lat="43.66843" lon="3.36269">
        <ele>177.5</ele>
        <time>2013-08-16T10:41:04Z</time>
      </trkpt>
      <trkpt lat="43.66843" lon="3.36269">
        <ele>185.19</ele>
        <time>2013-08-16T10:41:05Z</time>
      </trkpt>
      <trkpt lat="43.66843" lon="3.36268">
        <ele>177.98</ele>
        <time>2013-08-16T10:41:28Z</time>
      </trkpt>
      <trkpt lat="43.66843" lon="3.36268">
        <ele>182.31</ele>
        <time>2013-08-16T10:41:29Z</time>
      </trkpt>
      <trkpt lat="43.66843" lon="3.36268">
        <ele>186.15</ele>
        <time>2013-08-16T10:41:30Z</time>
      </trkpt>
      <trkpt lat="43.66843" lon="3.36268">
        <ele>184.23</ele>
        <time>2013-08-16T10:41:31Z</time>
      </trkpt>
      <trkpt lat="43.66844" lon="3.36268">
        <ele>188.08</ele>
        <time>2013-08-16T10:41:32Z</time>
      </trkpt>
      <trkpt lat="43.66844" lon="3.36268">
        <ele>179.9</ele>
        <time>2013-08-16T10:41:33Z</time>
      </trkpt>
      <trkpt lat="43.66844" lon="3.36268">
        <ele>186.63</ele>
        <time>2013-08-16T10:41:34Z</time>
      </trkpt>
      <trkpt lat="43.66844" lon="3.36268">
        <ele>182.31</ele>
        <time>2013-08-16T10:41:35Z</time>
      </trkpt>
      <trkpt lat="43.66843" lon="3.36268">
        <ele>186.63</ele>
        <time>2013-08-16T10:41:37Z</time>
      </trkpt>
      <trkpt lat="43.66843" lon="3.36268">
        <ele>180.87</ele>
        <time>2013-08-16T10:41:38Z</time>
      </trkpt>
      <trkpt lat="43.66843" lon="3.36268">
        <ele>189.52</ele>
        <time>2013-08-16T10:41:39Z</time>
      </trkpt>
      <trkpt lat="43.66843" lon="3.36269">
        <ele>183.75</ele>
        <time>2013-08-16T10:41:40Z</time>
      </trkpt>
      <trkpt lat="43.66843" lon="3.36269">
        <ele>187.59</ele>
        <time>2013-08-16T10:41:42Z</time>
      </trkpt>
      <trkpt lat="43.66843" lon="3.36269">
        <ele>179.42</ele>
        <time>2013-08-16T10:41:43Z</time>
      </trkpt>
      <trkpt lat="43.66843" lon="3.36269">
        <ele>185.67</ele>
        <time>2013-08-16T10:41:44Z</time>
      </trkpt>
      <trkpt lat="43.66843" lon="3.3627">
        <ele>189.52</ele>
        <time>2013-08-16T10:42:01Z</time>
      </trkpt>
      <trkpt lat="43.66843" lon="3.3627">
        <ele>182.79</ele>
        <time>2013-08-16T10:42:02Z</time>
      </trkpt>
      <trkpt lat="43.66842" lon="3.36271">
        <ele>187.59</ele>
        <time>2013-08-16T10:42:26Z</time>
      </trkpt>
      <trkpt lat="43.66842" lon="3.36271">
        <ele>183.75</ele>
        <time>2013-08-16T10:42:27Z</time>
      </trkpt>
      <trkpt lat="43.66842" lon="3.36271">
        <ele>178.94</ele>
        <time>2013-08-16T10:42:43Z</time>
      </trkpt>
      <trkpt lat="43.66842" lon="3.36271">
        <ele>184.71</ele>
        <time>2013-08-16T10:42:44Z</time>
      </trkpt>
      <trkpt lat="43.66844" lon="3.3627">
        <ele>183.75</ele>
        <time>2013-08-16T10:42:50Z</time>
      </trkpt>
      <trkpt lat="43.66868" lon="3.36244">
        <ele>184.23</ele>
        <time>2013-08-16T10:43:03Z</time>
      </trkpt>
      <trkpt lat="43.66903" lon="3.36205">
        <ele>186.63</ele>
        <time>2013-08-16T10:43:19Z</time>
      </trkpt>
      <trkpt lat="43.66935" lon="3.36196">
        <ele>186.63</ele>
        <time>2013-08-16T10:43:29Z</time>
      </trkpt>
      <trkpt lat="43.66937" lon="3.36191">
        <ele>186.15</ele>
        <time>2013-08-16T10:43:30Z</time>
      </trkpt>
      <trkpt lat="43.66938" lon="3.36185">
        <ele>185.67</ele>
        <time>2013-08-16T10:43:31Z</time>
      </trkpt>
      <trkpt lat="43.66938" lon="3.3618">
        <ele>185.19</ele>
        <time>2013-08-16T10:43:32Z</time>
      </trkpt>
      <trkpt lat="43.66938" lon="3.36174">
        <ele>185.19</ele>
        <time>2013-08-16T10:43:33Z</time>
      </trkpt>
      <trkpt lat="43.66936" lon="3.36169">
        <ele>185.19</ele>
        <time>2013-08-16T10:43:34Z</time>
      </trkpt>
      <trkpt lat="43.66939" lon="3.36099">
        <ele>186.63</ele>
        <time>2013-08-16T10:43:48Z</time>
      </trkpt>
      <trkpt lat="43.66943" lon="3.36091">
        <ele>186.63</ele>
        <time>2013-08-16T10:43:50Z</time>
      </trkpt>
      <trkpt lat="43.66946" lon="3.36087">
        <ele>187.11</ele>
        <time>2013-08-16T10:43:51Z</time>
      </trkpt>
      <trkpt lat="43.66995" lon="3.36022">
        <ele>185.19</ele>
        <time>2013-08-16T10:44:05Z</time>
      </trkpt>
      <trkpt lat="43.67045" lon="3.35959">
        <ele>186.63</ele>
        <time>2013-08-16T10:44:22Z</time>
      </trkpt>
      <trkpt lat="43.67048" lon="3.35955">
        <ele>186.15</ele>
        <time>2013-08-16T10:44:23Z</time>
      </trkpt>
      <trkpt lat="43.67059" lon="3.35942">
        <ele>186.15</ele>
        <time>2013-08-16T10:44:26Z</time>
      </trkpt>
      <trkpt lat="43.67064" lon="3.35933">
        <ele>185.67</ele>
        <time>2013-08-16T10:44:28Z</time>
      </trkpt>
      <trkpt lat="43.67067" lon="3.35928">
        <ele>185.67</ele>
        <time>2013-08-16T10:44:29Z</time>
      </trkpt>
      <trkpt lat="43.67094" lon="3.35899">
        <ele>186.15</ele>
        <time>2013-08-16T10:44:38Z</time>
      </trkpt>
      <trkpt lat="43.67156" lon="3.35895">
        <ele>187.11</ele>
        <time>2013-08-16T10:44:53Z</time>
      </trkpt>
      <trkpt lat="43.67169" lon="3.35896">
        <ele>186.63</ele>
        <time>2013-08-16T10:44:56Z</time>
      </trkpt>
      <trkpt lat="43.67173" lon="3.35895">
        <ele>187.11</ele>
        <time>2013-08-16T10:44:57Z</time>
      </trkpt>
      <trkpt lat="43.67178" lon="3.35893">
        <ele>187.11</ele>
        <time>2013-08-16T10:44:58Z</time>
      </trkpt>
      <trkpt lat="43.67182" lon="3.35889">
        <ele>186.63</ele>
        <time>2013-08-16T10:44:59Z</time>
      </trkpt>
      <trkpt lat="43.67185" lon="3.35885">
        <ele>186.63</ele>
        <time>2013-08-16T10:45:00Z</time>
      </trkpt>
      <trkpt lat="43.67195" lon="3.35875">
        <ele>187.59</ele>
        <time>2013-08-16T10:45:03Z</time>
      </trkpt>
      <trkpt lat="43.67199" lon="3.35875">
        <ele>187.11</ele>
        <time>2013-08-16T10:45:04Z</time>
      </trkpt>
      <trkpt lat="43.67203" lon="3.35877">
        <ele>187.11</ele>
        <time>2013-08-16T10:45:05Z</time>
      </trkpt>
      <trkpt lat="43.67206" lon="3.35881">
        <ele>186.63</ele>
        <time>2013-08-16T10:45:06Z</time>
      </trkpt>
      <trkpt lat="43.6721" lon="3.35885">
        <ele>187.11</ele>
        <time>2013-08-16T10:45:07Z</time>
      </trkpt>
      <trkpt lat="43.67214" lon="3.35888">
        <ele>186.15</ele>
        <time>2013-08-16T10:45:08Z</time>
      </trkpt>
      <trkpt lat="43.67219" lon="3.35888">
        <ele>185.67</ele>
        <time>2013-08-16T10:45:09Z</time>
      </trkpt>
      <trkpt lat="43.67224" lon="3.35886">
        <ele>186.15</ele>
        <time>2013-08-16T10:45:10Z</time>
      </trkpt>
      <trkpt lat="43.67228" lon="3.35883">
        <ele>187.11</ele>
        <time>2013-08-16T10:45:11Z</time>
      </trkpt>
      <trkpt lat="43.67232" lon="3.35879">
        <ele>187.11</ele>
        <time>2013-08-16T10:45:12Z</time>
      </trkpt>
      <trkpt lat="43.67262" lon="3.35847">
        <ele>186.63</ele>
        <time>2013-08-16T10:45:20Z</time>
      </trkpt>
      <trkpt lat="43.67264" lon="3.35841">
        <ele>185.67</ele>
        <time>2013-08-16T10:45:21Z</time>
      </trkpt>
      <trkpt lat="43.67265" lon="3.35834">
        <ele>186.63</ele>
        <time>2013-08-16T10:45:22Z</time>
      </trkpt>
      <trkpt lat="43.67264" lon="3.35827">
        <ele>186.15</ele>
        <time>2013-08-16T10:45:23Z</time>
      </trkpt>
      <trkpt lat="43.67263" lon="3.35821">
        <ele>185.67</ele>
        <time>2013-08-16T10:45:24Z</time>
      </trkpt>
      <trkpt lat="43.67261" lon="3.35815">
        <ele>186.63</ele>
        <time>2013-08-16T10:45:25Z</time>
      </trkpt>
      <trkpt lat="43.6726" lon="3.35808">
        <ele>186.15</ele>
        <time>2013-08-16T10:45:26Z</time>
      </trkpt>
      <trkpt lat="43.67258" lon="3.35802">
        <ele>185.67</ele>
        <time>2013-08-16T10:45:27Z</time>
      </trkpt>
      <trkpt lat="43.67249" lon="3.35742">
        <ele>182.79</ele>
        <time>2013-08-16T10:45:34Z</time>
      </trkpt>
      <trkpt lat="43.67249" lon="3.35733">
        <ele>181.83</ele>
        <time>2013-08-16T10:45:35Z</time>
      </trkpt>
      <trkpt lat="43.67251" lon="3.35723">
        <ele>181.35</ele>
        <time>2013-08-16T10:45:36Z</time>
      </trkpt>
      <trkpt lat="43.67254" lon="3.35713">
        <ele>179.9</ele>
        <time>2013-08-16T10:45:37Z</time>
      </trkpt>
      <trkpt lat="43.67257" lon="3.35703">
        <ele>179.42</ele>
        <time>2013-08-16T10:45:38Z</time>
      </trkpt>
      <trkpt lat="43.67277" lon="3.35646">
        <ele>176.06</ele>
        <time>2013-08-16T10:45:43Z</time>
      </trkpt>
      <trkpt lat="43.67283" lon="3.35635">
        <ele>175.1</ele>
        <time>2013-08-16T10:45:44Z</time>
      </trkpt>
      <trkpt lat="43.6729" lon="3.35625">
        <ele>174.62</ele>
        <time>2013-08-16T10:45:45Z</time>
      </trkpt>
      <trkpt lat="43.67298" lon="3.35619">
        <ele>174.14</ele>
        <time>2013-08-16T10:45:46Z</time>
      </trkpt>
      <trkpt lat="43.6731" lon="3.3561">
        <ele>172.69</ele>
        <time>2013-08-16T10:45:48Z</time>
      </trkpt>
      <trkpt lat="43.67311" lon="3.35604">
        <ele>173.17</ele>
        <time>2013-08-16T10:45:49Z</time>
      </trkpt>
      <trkpt lat="43.67311" lon="3.35598">
        <ele>172.21</ele>
        <time>2013-08-16T10:45:50Z</time>
      </trkpt>
      <trkpt lat="43.67311" lon="3.35593">
        <ele>171.73</ele>
        <time>2013-08-16T10:45:51Z</time>
      </trkpt>
      <trkpt lat="43.67308" lon="3.35588">
        <ele>171.73</ele>
        <time>2013-08-16T10:45:52Z</time>
      </trkpt>
      <trkpt lat="43.67306" lon="3.35585">
        <ele>171.25</ele>
        <time>2013-08-16T10:45:53Z</time>
      </trkpt>
      <trkpt lat="43.67303" lon="3.35583">
        <ele>170.29</ele>
        <time>2013-08-16T10:45:54Z</time>
      </trkpt>
      <trkpt lat="43.673" lon="3.35581">
        <ele>169.81</ele>
        <time>2013-08-16T10:45:55Z</time>
      </trkpt>
      <trkpt lat="43.67296" lon="3.35578">
        <ele>169.33</ele>
        <time>2013-08-16T10:45:56Z</time>
      </trkpt>
      <trkpt lat="43.67286" lon="3.35574">
        <ele>168.85</ele>
        <time>2013-08-16T10:45:58Z</time>
      </trkpt>
      <trkpt lat="43.67246" lon="3.35564">
        <ele>166.45</ele>
        <time>2013-08-16T10:46:04Z</time>
      </trkpt>
      <trkpt lat="43.67232" lon="3.35564">
        <ele>164.52</ele>
        <time>2013-08-16T10:46:06Z</time>
      </trkpt>
      <trkpt lat="43.67224" lon="3.35566">
        <ele>165</ele>
        <time>2013-08-16T10:46:07Z</time>
      </trkpt>
      <trkpt lat="43.67217" lon="3.35569">
        <ele>163.08</ele>
        <time>2013-08-16T10:46:08Z</time>
      </trkpt>
      <trkpt lat="43.67212" lon="3.35572">
        <ele>163.56</ele>
        <time>2013-08-16T10:46:09Z</time>
      </trkpt>
      <trkpt lat="43.67207" lon="3.35574">
        <ele>163.56</ele>
        <time>2013-08-16T10:46:10Z</time>
      </trkpt>
      <trkpt lat="43.67201" lon="3.35574">
        <ele>162.6</ele>
        <time>2013-08-16T10:46:11Z</time>
      </trkpt>
      <trkpt lat="43.67195" lon="3.35571">
        <ele>161.64</ele>
        <time>2013-08-16T10:46:12Z</time>
      </trkpt>
      <trkpt lat="43.67189" lon="3.35565">
        <ele>160.68</ele>
        <time>2013-08-16T10:46:13Z</time>
      </trkpt>
      <trkpt lat="43.67184" lon="3.35557">
        <ele>160.2</ele>
        <time>2013-08-16T10:46:14Z</time>
      </trkpt>
      <trkpt lat="43.67179" lon="3.35548">
        <ele>159.72</ele>
        <time>2013-08-16T10:46:15Z</time>
      </trkpt>
      <trkpt lat="43.67169" lon="3.35532">
        <ele>158.75</ele>
        <time>2013-08-16T10:46:17Z</time>
      </trkpt>
      <trkpt lat="43.67158" lon="3.35513">
        <ele>156.83</ele>
        <time>2013-08-16T10:46:20Z</time>
      </trkpt>
      <trkpt lat="43.67143" lon="3.35489">
        <ele>155.39</ele>
        <time>2013-08-16T10:46:25Z</time>
      </trkpt>
      <trkpt lat="43.6714" lon="3.35483">
        <ele>154.43</ele>
        <time>2013-08-16T10:46:26Z</time>
      </trkpt>
      <trkpt lat="43.67139" lon="3.35476">
        <ele>153.95</ele>
        <time>2013-08-16T10:46:27Z</time>
      </trkpt>
      <trkpt lat="43.67138" lon="3.35468">
        <ele>153.95</ele>
        <time>2013-08-16T10:46:28Z</time>
      </trkpt>
      <trkpt lat="43.67138" lon="3.3546">
        <ele>153.95</ele>
        <time>2013-08-16T10:46:29Z</time>
      </trkpt>
      <trkpt lat="43.6714" lon="3.35452">
        <ele>152.51</ele>
        <time>2013-08-16T10:46:30Z</time>
      </trkpt>
      <trkpt lat="43.67145" lon="3.35446">
        <ele>152.51</ele>
        <time>2013-08-16T10:46:31Z</time>
      </trkpt>
      <trkpt lat="43.67151" lon="3.35442">
        <ele>152.51</ele>
        <time>2013-08-16T10:46:32Z</time>
      </trkpt>
      <trkpt lat="43.67158" lon="3.35441">
        <ele>152.03</ele>
        <time>2013-08-16T10:46:33Z</time>
      </trkpt>
      <trkpt lat="43.67165" lon="3.35441">
        <ele>151.06</ele>
        <time>2013-08-16T10:46:34Z</time>
      </trkpt>
      <trkpt lat="43.67172" lon="3.3544">
        <ele>150.58</ele>
        <time>2013-08-16T10:46:35Z</time>
      </trkpt>
      <trkpt lat="43.6718" lon="3.35435">
        <ele>149.14</ele>
        <time>2013-08-16T10:46:36Z</time>
      </trkpt>
      <trkpt lat="43.67186" lon="3.35426">
        <ele>148.18</ele>
        <time>2013-08-16T10:46:37Z</time>
      </trkpt>
      <trkpt lat="43.67193" lon="3.35417">
        <ele>147.7</ele>
        <time>2013-08-16T10:46:38Z</time>
      </trkpt>
      <trkpt lat="43.67211" lon="3.35384">
        <ele>144.82</ele>
        <time>2013-08-16T10:46:41Z</time>
      </trkpt>
      <trkpt lat="43.67217" lon="3.35373">
        <ele>144.34</ele>
        <time>2013-08-16T10:46:42Z</time>
      </trkpt>
      <trkpt lat="43.67225" lon="3.35365">
        <ele>144.34</ele>
        <time>2013-08-16T10:46:43Z</time>
      </trkpt>
      <trkpt lat="43.67233" lon="3.35361">
        <ele>144.34</ele>
        <time>2013-08-16T10:46:44Z</time>
      </trkpt>
      <trkpt lat="43.67242" lon="3.35358">
        <ele>144.34</ele>
        <time>2013-08-16T10:46:45Z</time>
      </trkpt>
      <trkpt lat="43.67332" lon="3.35332">
        <ele>144.82</ele>
        <time>2013-08-16T10:46:57Z</time>
      </trkpt>
      <trkpt lat="43.67414" lon="3.35308">
        <ele>140.97</ele>
        <time>2013-08-16T10:47:11Z</time>
      </trkpt>
      <trkpt lat="43.67491" lon="3.35286">
        <ele>140.01</ele>
        <time>2013-08-16T10:47:23Z</time>
      </trkpt>
      <trkpt lat="43.67605" lon="3.35251">
        <ele>136.64</ele>
        <time>2013-08-16T10:47:40Z</time>
      </trkpt>
      <trkpt lat="43.67612" lon="3.35249">
        <ele>136.16</ele>
        <time>2013-08-16T10:47:41Z</time>
      </trkpt>
      <trkpt lat="43.6773" lon="3.35213">
        <ele>135.2</ele>
        <time>2013-08-16T10:47:58Z</time>
      </trkpt>
      <trkpt lat="43.67736" lon="3.35212">
        <ele>134.24</ele>
        <time>2013-08-16T10:47:59Z</time>
      </trkpt>
      <trkpt lat="43.67742" lon="3.35212">
        <ele>134.72</ele>
        <time>2013-08-16T10:48:00Z</time>
      </trkpt>
      <trkpt lat="43.67747" lon="3.35213">
        <ele>134.24</ele>
        <time>2013-08-16T10:48:01Z</time>
      </trkpt>
      <trkpt lat="43.67751" lon="3.35215">
        <ele>134.24</ele>
        <time>2013-08-16T10:48:02Z</time>
      </trkpt>
      <trkpt lat="43.67754" lon="3.35216">
        <ele>134.24</ele>
        <time>2013-08-16T10:48:03Z</time>
      </trkpt>
      <trkpt lat="43.6776" lon="3.35216">
        <ele>133.76</ele>
        <time>2013-08-16T10:48:06Z</time>
      </trkpt>
      <trkpt lat="43.6776" lon="3.35214">
        <ele>134.24</ele>
        <time>2013-08-16T10:48:18Z</time>
      </trkpt>
      <trkpt lat="43.67761" lon="3.35214">
        <ele>134.72</ele>
        <time>2013-08-16T10:48:32Z</time>
      </trkpt>
      <trkpt lat="43.67763" lon="3.35212">
        <ele>134.24</ele>
        <time>2013-08-16T10:48:33Z</time>
      </trkpt>
      <trkpt lat="43.67765" lon="3.3521">
        <ele>134.24</ele>
        <time>2013-08-16T10:48:34Z</time>
      </trkpt>
      <trkpt lat="43.67766" lon="3.35207">
        <ele>133.76</ele>
        <time>2013-08-16T10:48:35Z</time>
      </trkpt>
      <trkpt lat="43.67766" lon="3.35203">
        <ele>133.76</ele>
        <time>2013-08-16T10:48:36Z</time>
      </trkpt>
      <trkpt lat="43.67766" lon="3.35197">
        <ele>133.28</ele>
        <time>2013-08-16T10:48:37Z</time>
      </trkpt>
      <trkpt lat="43.67766" lon="3.35192">
        <ele>132.8</ele>
        <time>2013-08-16T10:48:38Z</time>
      </trkpt>
      <trkpt lat="43.67765" lon="3.35186">
        <ele>132.8</ele>
        <time>2013-08-16T10:48:39Z</time>
      </trkpt>
      <trkpt lat="43.67764" lon="3.35181">
        <ele>133.76</ele>
        <time>2013-08-16T10:48:40Z</time>
      </trkpt>
      <trkpt lat="43.67763" lon="3.35175">
        <ele>133.28</ele>
        <time>2013-08-16T10:48:41Z</time>
      </trkpt>
      <trkpt lat="43.6776" lon="3.35148">
        <ele>132.8</ele>
        <time>2013-08-16T10:48:45Z</time>
      </trkpt>
      <trkpt lat="43.67767" lon="3.35028">
        <ele>132.8</ele>
        <time>2013-08-16T10:49:03Z</time>
      </trkpt>
      <trkpt lat="43.67786" lon="3.34896">
        <ele>132.32</ele>
        <time>2013-08-16T10:49:22Z</time>
      </trkpt>
      <trkpt lat="43.67808" lon="3.34755">
        <ele>131.84</ele>
        <time>2013-08-16T10:49:42Z</time>
      </trkpt>
      <trkpt lat="43.67824" lon="3.34638">
        <ele>131.36</ele>
        <time>2013-08-16T10:49:58Z</time>
      </trkpt>
      <trkpt lat="43.67843" lon="3.34487">
        <ele>130.4</ele>
        <time>2013-08-16T10:50:18Z</time>
      </trkpt>
      <trkpt lat="43.67861" lon="3.3434">
        <ele>131.36</ele>
        <time>2013-08-16T10:50:38Z</time>
      </trkpt>
      <trkpt lat="43.67859" lon="3.34224">
        <ele>133.76</ele>
        <time>2013-08-16T10:50:55Z</time>
      </trkpt>
      <trkpt lat="43.6784" lon="3.34113">
        <ele>135.2</ele>
        <time>2013-08-16T10:51:12Z</time>
      </trkpt>
      <trkpt lat="43.6782" lon="3.3401">
        <ele>137.61</ele>
        <time>2013-08-16T10:51:28Z</time>
      </trkpt>
      <trkpt lat="43.67815" lon="3.33994">
        <ele>138.57</ele>
        <time>2013-08-16T10:51:31Z</time>
      </trkpt>
      <trkpt lat="43.67813" lon="3.33988">
        <ele>138.57</ele>
        <time>2013-08-16T10:51:32Z</time>
      </trkpt>
      <trkpt lat="43.67803" lon="3.33961">
        <ele>138.57</ele>
        <time>2013-08-16T10:51:37Z</time>
      </trkpt>
      <trkpt lat="43.67797" lon="3.33946">
        <ele>139.05</ele>
        <time>2013-08-16T10:51:40Z</time>
      </trkpt>
      <trkpt lat="43.67792" lon="3.33935">
        <ele>140.01</ele>
        <time>2013-08-16T10:51:42Z</time>
      </trkpt>
      <trkpt lat="43.67757" lon="3.3387">
        <ele>142.41</ele>
        <time>2013-08-16T10:51:55Z</time>
      </trkpt>
      <trkpt lat="43.67754" lon="3.33865">
        <ele>141.93</ele>
        <time>2013-08-16T10:51:56Z</time>
      </trkpt>
      <trkpt lat="43.67752" lon="3.3386">
        <ele>142.89</ele>
        <time>2013-08-16T10:51:57Z</time>
      </trkpt>
      <trkpt lat="43.67707" lon="3.33783">
        <ele>145.78</ele>
        <time>2013-08-16T10:52:13Z</time>
      </trkpt>
      <trkpt lat="43.67666" lon="3.33713">
        <ele>146.74</ele>
        <time>2013-08-16T10:52:28Z</time>
      </trkpt>
      <trkpt lat="43.67633" lon="3.33671">
        <ele>146.26</ele>
        <time>2013-08-16T10:52:38Z</time>
      </trkpt>
      <trkpt lat="43.67594" lon="3.33627">
        <ele>145.78</ele>
        <time>2013-08-16T10:52:51Z</time>
      </trkpt>
      <trkpt lat="43.67589" lon="3.33622">
        <ele>145.78</ele>
        <time>2013-08-16T10:52:55Z</time>
      </trkpt>
      <trkpt lat="43.67588" lon="3.3362">
        <ele>146.26</ele>
        <time>2013-08-16T10:52:56Z</time>
      </trkpt>
      <trkpt lat="43.67587" lon="3.33619">
        <ele>145.78</ele>
        <time>2013-08-16T10:52:57Z</time>
      </trkpt>
      <trkpt lat="43.67586" lon="3.33619">
        <ele>145.78</ele>
        <time>2013-08-16T10:52:58Z</time>
      </trkpt>
      <trkpt lat="43.6759" lon="3.33632">
        <ele>145.3</ele>
        <time>2013-08-16T10:53:03Z</time>
      </trkpt>
      <trkpt lat="43.67637" lon="3.33685">
        <ele>145.78</ele>
        <time>2013-08-16T10:53:18Z</time>
      </trkpt>
      <trkpt lat="43.67651" lon="3.33699">
        <ele>146.26</ele>
        <time>2013-08-16T10:53:25Z</time>
      </trkpt>
      <trkpt lat="43.67651" lon="3.33693">
        <ele>147.22</ele>
        <time>2013-08-16T10:53:28Z</time>
      </trkpt>
      <trkpt lat="43.67639" lon="3.33678">
        <ele>146.74</ele>
        <time>2013-08-16T10:53:40Z</time>
      </trkpt>
      <trkpt lat="43.67639" lon="3.33678">
        <ele>146.74</ele>
        <time>2013-08-16T10:54:02Z</time>
      </trkpt>
      <trkpt lat="43.67636" lon="3.33676">
        <ele>146.74</ele>
        <time>2013-08-16T10:54:04Z</time>
      </trkpt>
      <trkpt lat="43.67616" lon="3.33649">
        <ele>146.26</ele>
        <time>2013-08-16T10:54:12Z</time>
      </trkpt>
      <trkpt lat="43.67613" lon="3.33645">
        <ele>146.26</ele>
        <time>2013-08-16T10:54:13Z</time>
      </trkpt>
      <trkpt lat="43.67606" lon="3.33638">
        <ele>145.3</ele>
        <time>2013-08-16T10:54:15Z</time>
      </trkpt>
      <trkpt lat="43.67584" lon="3.33613">
        <ele>146.26</ele>
        <time>2013-08-16T10:54:22Z</time>
      </trkpt>
      <trkpt lat="43.6758" lon="3.33609">
        <ele>145.3</ele>
        <time>2013-08-16T10:54:23Z</time>
      </trkpt>
      <trkpt lat="43.67526" lon="3.33553">
        <ele>145.3</ele>
        <time>2013-08-16T10:54:39Z</time>
      </trkpt>
      <trkpt lat="43.67463" lon="3.33488">
        <ele>147.7</ele>
        <time>2013-08-16T10:54:57Z</time>
      </trkpt>
      <trkpt lat="43.67423" lon="3.33463">
        <ele>149.62</ele>
        <time>2013-08-16T10:55:07Z</time>
      </trkpt>
      <trkpt lat="43.67415" lon="3.33461">
        <ele>151.06</ele>
        <time>2013-08-16T10:55:09Z</time>
      </trkpt>
      <trkpt lat="43.67365" lon="3.33449">
        <ele>154.43</ele>
        <time>2013-08-16T10:55:23Z</time>
      </trkpt>
      <trkpt lat="43.67314" lon="3.33439">
        <ele>155.87</ele>
        <time>2013-08-16T10:55:38Z</time>
      </trkpt>
      <trkpt lat="43.67275" lon="3.33431">
        <ele>159.24</ele>
        <time>2013-08-16T10:55:50Z</time>
      </trkpt>
      <trkpt lat="43.67211" lon="3.33417">
        <ele>162.12</ele>
        <time>2013-08-16T10:56:10Z</time>
      </trkpt>
      <trkpt lat="43.67156" lon="3.33405">
        <ele>165.96</ele>
        <time>2013-08-16T10:56:27Z</time>
      </trkpt>
      <trkpt lat="43.67101" lon="3.33393">
        <ele>168.85</ele>
        <time>2013-08-16T10:56:44Z</time>
      </trkpt>
      <trkpt lat="43.67045" lon="3.33385">
        <ele>171.73</ele>
        <time>2013-08-16T10:57:02Z</time>
      </trkpt>
      <trkpt lat="43.66995" lon="3.33399">
        <ele>173.17</ele>
        <time>2013-08-16T10:57:18Z</time>
      </trkpt>
      <trkpt lat="43.66989" lon="3.33401">
        <ele>173.66</ele>
        <time>2013-08-16T10:57:20Z</time>
      </trkpt>
      <trkpt lat="43.6694" lon="3.33427">
        <ele>176.06</ele>
        <time>2013-08-16T10:57:36Z</time>
      </trkpt>
      <trkpt lat="43.669" lon="3.3345">
        <ele>178.46</ele>
        <time>2013-08-16T10:57:49Z</time>
      </trkpt>
      <trkpt lat="43.66858" lon="3.33476">
        <ele>180.38</ele>
        <time>2013-08-16T10:58:03Z</time>
      </trkpt>
      <trkpt lat="43.6682" lon="3.33511">
        <ele>182.79</ele>
        <time>2013-08-16T10:58:17Z</time>
      </trkpt>
      <trkpt lat="43.66793" lon="3.33538">
        <ele>183.75</ele>
        <time>2013-08-16T10:58:29Z</time>
      </trkpt>
      <trkpt lat="43.66775" lon="3.3356">
        <ele>184.23</ele>
        <time>2013-08-16T10:58:39Z</time>
      </trkpt>
      <trkpt lat="43.66775" lon="3.33559">
        <ele>184.23</ele>
        <time>2013-08-16T10:58:51Z</time>
      </trkpt>
      <trkpt lat="43.66775" lon="3.33559">
        <ele>184.23</ele>
        <time>2013-08-16T10:59:21Z</time>
      </trkpt>
      <trkpt lat="43.66776" lon="3.33557">
        <ele>184.71</ele>
        <time>2013-08-16T10:59:23Z</time>
      </trkpt>
      <trkpt lat="43.66777" lon="3.33556">
        <ele>184.71</ele>
        <time>2013-08-16T10:59:24Z</time>
      </trkpt>
      <trkpt lat="43.66779" lon="3.33555">
        <ele>184.23</ele>
        <time>2013-08-16T10:59:25Z</time>
      </trkpt>
      <trkpt lat="43.6678" lon="3.33554">
        <ele>184.23</ele>
        <time>2013-08-16T10:59:26Z</time>
      </trkpt>
      <trkpt lat="43.66781" lon="3.33553">
        <ele>183.75</ele>
        <time>2013-08-16T10:59:27Z</time>
      </trkpt>
      <trkpt lat="43.66784" lon="3.33553">
        <ele>184.71</ele>
        <time>2013-08-16T10:59:29Z</time>
      </trkpt>
      <trkpt lat="43.66785" lon="3.33553">
        <ele>184.23</ele>
        <time>2013-08-16T10:59:30Z</time>
      </trkpt>
      <trkpt lat="43.66786" lon="3.33553">
        <ele>184.71</ele>
        <time>2013-08-16T10:59:31Z</time>
      </trkpt>
      <trkpt lat="43.66786" lon="3.33555">
        <ele>184.71</ele>
        <time>2013-08-16T10:59:32Z</time>
      </trkpt>
      <trkpt lat="43.66785" lon="3.33556">
        <ele>184.23</ele>
        <time>2013-08-16T10:59:33Z</time>
      </trkpt>
      <trkpt lat="43.66784" lon="3.33557">
        <ele>184.71</ele>
        <time>2013-08-16T10:59:34Z</time>
      </trkpt>
      <trkpt lat="43.66782" lon="3.33558">
        <ele>184.23</ele>
        <time>2013-08-16T10:59:36Z</time>
      </trkpt>
      <trkpt lat="43.6678" lon="3.33557">
        <ele>185.19</ele>
        <time>2013-08-16T10:59:37Z</time>
      </trkpt>
      <trkpt lat="43.66779" lon="3.33557">
        <ele>184.23</ele>
        <time>2013-08-16T10:59:38Z</time>
      </trkpt>
      <trkpt lat="43.66776" lon="3.33557">
        <ele>184.71</ele>
        <time>2013-08-16T10:59:41Z</time>
      </trkpt>
      <trkpt lat="43.66772" lon="3.33559">
        <ele>184.71</ele>
        <time>2013-08-16T10:59:53Z</time>
      </trkpt>
      <trkpt lat="43.66773" lon="3.33555">
        <ele>185.19</ele>
        <time>2013-08-16T11:00:05Z</time>
      </trkpt>
      <trkpt lat="43.66775" lon="3.33553">
        <ele>184.71</ele>
        <time>2013-08-16T11:00:06Z</time>
      </trkpt>
      <trkpt lat="43.66777" lon="3.33553">
        <ele>184.71</ele>
        <time>2013-08-16T11:00:07Z</time>
      </trkpt>
      <trkpt lat="43.66779" lon="3.33554">
        <ele>184.71</ele>
        <time>2013-08-16T11:00:08Z</time>
      </trkpt>
      <trkpt lat="43.66781" lon="3.33555">
        <ele>184.71</ele>
        <time>2013-08-16T11:00:09Z</time>
      </trkpt>
      <trkpt lat="43.66784" lon="3.33558">
        <ele>184.23</ele>
        <time>2013-08-16T11:00:10Z</time>
      </trkpt>
      <trkpt lat="43.66786" lon="3.33561">
        <ele>184.71</ele>
        <time>2013-08-16T11:00:11Z</time>
      </trkpt>
      <trkpt lat="43.66787" lon="3.33565">
        <ele>184.71</ele>
        <time>2013-08-16T11:00:12Z</time>
      </trkpt>
      <trkpt lat="43.66787" lon="3.3357">
        <ele>184.71</ele>
        <time>2013-08-16T11:00:13Z</time>
      </trkpt>
      <trkpt lat="43.66786" lon="3.33574">
        <ele>184.71</ele>
        <time>2013-08-16T11:00:14Z</time>
      </trkpt>
      <trkpt lat="43.66784" lon="3.33578">
        <ele>184.71</ele>
        <time>2013-08-16T11:00:15Z</time>
      </trkpt>
      <trkpt lat="43.66782" lon="3.33582">
        <ele>184.23</ele>
        <time>2013-08-16T11:00:16Z</time>
      </trkpt>
      <trkpt lat="43.66773" lon="3.33638">
        <ele>184.71</ele>
        <time>2013-08-16T11:00:29Z</time>
      </trkpt>
      <trkpt lat="43.66775" lon="3.3365">
        <ele>185.19</ele>
        <time>2013-08-16T11:00:33Z</time>
      </trkpt>
      <trkpt lat="43.66774" lon="3.33653">
        <ele>185.67</ele>
        <time>2013-08-16T11:00:34Z</time>
      </trkpt>
      <trkpt lat="43.66774" lon="3.33655">
        <ele>185.19</ele>
        <time>2013-08-16T11:00:35Z</time>
      </trkpt>
      <trkpt lat="43.66773" lon="3.33657">
        <ele>185.19</ele>
        <time>2013-08-16T11:00:36Z</time>
      </trkpt>
      <trkpt lat="43.66771" lon="3.33658">
        <ele>184.71</ele>
        <time>2013-08-16T11:00:37Z</time>
      </trkpt>
      <trkpt lat="43.66769" lon="3.33658">
        <ele>185.19</ele>
        <time>2013-08-16T11:00:38Z</time>
      </trkpt>
      <trkpt lat="43.66765" lon="3.33661">
        <ele>185.67</ele>
        <time>2013-08-16T11:00:40Z</time>
      </trkpt>
      <trkpt lat="43.66744" lon="3.33687">
        <ele>187.59</ele>
        <time>2013-08-16T11:00:51Z</time>
      </trkpt>
      <trkpt lat="43.66742" lon="3.33689">
        <ele>188.08</ele>
        <time>2013-08-16T11:00:52Z</time>
      </trkpt>
      <trkpt lat="43.66735" lon="3.33696">
        <ele>189.04</ele>
        <time>2013-08-16T11:00:56Z</time>
      </trkpt>
      <trkpt lat="43.66706" lon="3.33725">
        <ele>189.04</ele>
        <time>2013-08-16T11:01:09Z</time>
      </trkpt>
      <trkpt lat="43.66699" lon="3.33732">
        <ele>188.56</ele>
        <time>2013-08-16T11:01:11Z</time>
      </trkpt>
      <trkpt lat="43.66696" lon="3.33737">
        <ele>189.04</ele>
        <time>2013-08-16T11:01:12Z</time>
      </trkpt>
      <trkpt lat="43.66694" lon="3.33742">
        <ele>188.08</ele>
        <time>2013-08-16T11:01:13Z</time>
      </trkpt>
      <trkpt lat="43.66693" lon="3.33747">
        <ele>187.59</ele>
        <time>2013-08-16T11:01:14Z</time>
      </trkpt>
      <trkpt lat="43.66692" lon="3.33752">
        <ele>188.56</ele>
        <time>2013-08-16T11:01:15Z</time>
      </trkpt>
      <trkpt lat="43.6669" lon="3.33757">
        <ele>188.56</ele>
        <time>2013-08-16T11:01:16Z</time>
      </trkpt>
      <trkpt lat="43.66688" lon="3.33761">
        <ele>188.08</ele>
        <time>2013-08-16T11:01:17Z</time>
      </trkpt>
      <trkpt lat="43.66685" lon="3.33766">
        <ele>187.11</ele>
        <time>2013-08-16T11:01:18Z</time>
      </trkpt>
      <trkpt lat="43.66681" lon="3.3377">
        <ele>186.63</ele>
        <time>2013-08-16T11:01:19Z</time>
      </trkpt>
      <trkpt lat="43.66662" lon="3.33788">
        <ele>185.19</ele>
        <time>2013-08-16T11:01:23Z</time>
      </trkpt>
      <trkpt lat="43.66659" lon="3.33793">
        <ele>184.71</ele>
        <time>2013-08-16T11:01:24Z</time>
      </trkpt>
      <trkpt lat="43.66657" lon="3.33799">
        <ele>184.23</ele>
        <time>2013-08-16T11:01:25Z</time>
      </trkpt>
      <trkpt lat="43.66655" lon="3.33806">
        <ele>184.71</ele>
        <time>2013-08-16T11:01:26Z</time>
      </trkpt>
      <trkpt lat="43.66652" lon="3.33811">
        <ele>184.23</ele>
        <time>2013-08-16T11:01:27Z</time>
      </trkpt>
      <trkpt lat="43.66649" lon="3.33816">
        <ele>183.75</ele>
        <time>2013-08-16T11:01:28Z</time>
      </trkpt>
      <trkpt lat="43.66645" lon="3.33819">
        <ele>184.71</ele>
        <time>2013-08-16T11:01:29Z</time>
      </trkpt>
      <trkpt lat="43.66641" lon="3.33821">
        <ele>184.23</ele>
        <time>2013-08-16T11:01:30Z</time>
      </trkpt>
      <trkpt lat="43.66638" lon="3.33821">
        <ele>183.27</ele>
        <time>2013-08-16T11:01:31Z</time>
      </trkpt>
      <trkpt lat="43.66635" lon="3.3382">
        <ele>183.27</ele>
        <time>2013-08-16T11:01:32Z</time>
      </trkpt>
      <trkpt lat="43.66631" lon="3.33819">
        <ele>183.27</ele>
        <time>2013-08-16T11:01:33Z</time>
      </trkpt>
      <trkpt lat="43.66627" lon="3.33819">
        <ele>182.31</ele>
        <time>2013-08-16T11:01:35Z</time>
      </trkpt>
      <trkpt lat="43.66624" lon="3.3382">
        <ele>183.27</ele>
        <time>2013-08-16T11:01:36Z</time>
      </trkpt>
      <trkpt lat="43.66621" lon="3.33821">
        <ele>182.79</ele>
        <time>2013-08-16T11:01:37Z</time>
      </trkpt>
      <trkpt lat="43.66618" lon="3.33821">
        <ele>181.35</ele>
        <time>2013-08-16T11:01:38Z</time>
      </trkpt>
      <trkpt lat="43.66616" lon="3.3382">
        <ele>181.83</ele>
        <time>2013-08-16T11:01:39Z</time>
      </trkpt>
      <trkpt lat="43.66595" lon="3.33822">
        <ele>178.46</ele>
        <time>2013-08-16T11:01:51Z</time>
      </trkpt>
      <trkpt lat="43.66573" lon="3.33826">
        <ele>175.58</ele>
        <time>2013-08-16T11:02:01Z</time>
      </trkpt>
      <trkpt lat="43.66569" lon="3.33827">
        <ele>175.1</ele>
        <time>2013-08-16T11:02:06Z</time>
      </trkpt>
      <trkpt lat="43.66566" lon="3.33828">
        <ele>173.66</ele>
        <time>2013-08-16T11:02:07Z</time>
      </trkpt>
      <trkpt lat="43.66563" lon="3.33828">
        <ele>173.66</ele>
        <time>2013-08-16T11:02:08Z</time>
      </trkpt>
      <trkpt lat="43.66541" lon="3.33827">
        <ele>171.25</ele>
        <time>2013-08-16T11:02:17Z</time>
      </trkpt>
      <trkpt lat="43.66536" lon="3.33827">
        <ele>170.77</ele>
        <time>2013-08-16T11:02:20Z</time>
      </trkpt>
      <trkpt lat="43.66535" lon="3.33826">
        <ele>170.77</ele>
        <time>2013-08-16T11:02:21Z</time>
      </trkpt>
      <trkpt lat="43.66533" lon="3.33824">
        <ele>169.81</ele>
        <time>2013-08-16T11:02:22Z</time>
      </trkpt>
      <trkpt lat="43.66532" lon="3.33823">
        <ele>169.81</ele>
        <time>2013-08-16T11:02:23Z</time>
      </trkpt>
      <trkpt lat="43.6653" lon="3.33822">
        <ele>170.29</ele>
        <time>2013-08-16T11:02:24Z</time>
      </trkpt>
      <trkpt lat="43.66528" lon="3.33821">
        <ele>169.33</ele>
        <time>2013-08-16T11:02:25Z</time>
      </trkpt>
      <trkpt lat="43.66526" lon="3.33821">
        <ele>168.37</ele>
        <time>2013-08-16T11:02:26Z</time>
      </trkpt>
      <trkpt lat="43.66523" lon="3.33821">
        <ele>169.33</ele>
        <time>2013-08-16T11:02:27Z</time>
      </trkpt>
      <trkpt lat="43.66521" lon="3.3382">
        <ele>168.85</ele>
        <time>2013-08-16T11:02:28Z</time>
      </trkpt>
      <trkpt lat="43.66497" lon="3.33832">
        <ele>165</ele>
        <time>2013-08-16T11:02:36Z</time>
      </trkpt>
      <trkpt lat="43.6649" lon="3.3384">
        <ele>165.96</ele>
        <time>2013-08-16T11:02:41Z</time>
      </trkpt>
      <trkpt lat="43.6649" lon="3.33842">
        <ele>165</ele>
        <time>2013-08-16T11:02:42Z</time>
      </trkpt>
      <trkpt lat="43.66489" lon="3.33843">
        <ele>165</ele>
        <time>2013-08-16T11:02:43Z</time>
      </trkpt>
      <trkpt lat="43.66489" lon="3.33846">
        <ele>165</ele>
        <time>2013-08-16T11:02:45Z</time>
      </trkpt>
      <trkpt lat="43.66489" lon="3.33856">
        <ele>162.6</ele>
        <time>2013-08-16T11:02:51Z</time>
      </trkpt>
      <trkpt lat="43.66489" lon="3.3386">
        <ele>163.08</ele>
        <time>2013-08-16T11:02:53Z</time>
      </trkpt>
      <trkpt lat="43.6647" lon="3.33879">
        <ele>161.64</ele>
        <time>2013-08-16T11:03:03Z</time>
      </trkpt>
      <trkpt lat="43.66463" lon="3.33884">
        <ele>160.68</ele>
        <time>2013-08-16T11:03:05Z</time>
      </trkpt>
      <trkpt lat="43.66459" lon="3.33884">
        <ele>160.2</ele>
        <time>2013-08-16T11:03:06Z</time>
      </trkpt>
      <trkpt lat="43.66427" lon="3.3389">
        <ele>162.12</ele>
        <time>2013-08-16T11:03:15Z</time>
      </trkpt>
      <trkpt lat="43.6642" lon="3.33894">
        <ele>160.68</ele>
        <time>2013-08-16T11:03:17Z</time>
      </trkpt>
      <trkpt lat="43.66417" lon="3.33899">
        <ele>160.2</ele>
        <time>2013-08-16T11:03:18Z</time>
      </trkpt>
      <trkpt lat="43.66411" lon="3.33913">
        <ele>156.83</ele>
        <time>2013-08-16T11:03:20Z</time>
      </trkpt>
      <trkpt lat="43.66408" lon="3.33919">
        <ele>156.83</ele>
        <time>2013-08-16T11:03:21Z</time>
      </trkpt>
      <trkpt lat="43.66401" lon="3.3393">
        <ele>156.83</ele>
        <time>2013-08-16T11:03:23Z</time>
      </trkpt>
      <trkpt lat="43.66393" lon="3.33948">
        <ele>154.43</ele>
        <time>2013-08-16T11:03:26Z</time>
      </trkpt>
      <trkpt lat="43.6639" lon="3.33951">
        <ele>153.95</ele>
        <time>2013-08-16T11:03:27Z</time>
      </trkpt>
      <trkpt lat="43.66386" lon="3.33952">
        <ele>154.43</ele>
        <time>2013-08-16T11:03:28Z</time>
      </trkpt>
      <trkpt lat="43.66382" lon="3.33951">
        <ele>155.87</ele>
        <time>2013-08-16T11:03:29Z</time>
      </trkpt>
      <trkpt lat="43.66378" lon="3.3395">
        <ele>154.43</ele>
        <time>2013-08-16T11:03:30Z</time>
      </trkpt>
      <trkpt lat="43.66374" lon="3.33948">
        <ele>154.43</ele>
        <time>2013-08-16T11:03:31Z</time>
      </trkpt>
      <trkpt lat="43.6637" lon="3.33948">
        <ele>156.83</ele>
        <time>2013-08-16T11:03:32Z</time>
      </trkpt>
      <trkpt lat="43.66366" lon="3.33948">
        <ele>156.35</ele>
        <time>2013-08-16T11:03:33Z</time>
      </trkpt>
      <trkpt lat="43.66354" lon="3.33951">
        <ele>157.31</ele>
        <time>2013-08-16T11:03:36Z</time>
      </trkpt>
      <trkpt lat="43.66347" lon="3.33956">
        <ele>156.35</ele>
        <time>2013-08-16T11:03:38Z</time>
      </trkpt>
      <trkpt lat="43.66343" lon="3.33958">
        <ele>155.87</ele>
        <time>2013-08-16T11:03:39Z</time>
      </trkpt>
      <trkpt lat="43.66339" lon="3.3396">
        <ele>155.39</ele>
        <time>2013-08-16T11:03:40Z</time>
      </trkpt>
      <trkpt lat="43.66336" lon="3.33962">
        <ele>155.39</ele>
        <time>2013-08-16T11:03:41Z</time>
      </trkpt>
      <trkpt lat="43.66334" lon="3.33965">
        <ele>154.91</ele>
        <time>2013-08-16T11:03:42Z</time>
      </trkpt>
      <trkpt lat="43.66331" lon="3.33967">
        <ele>154.91</ele>
        <time>2013-08-16T11:03:43Z</time>
      </trkpt>
      <trkpt lat="43.66329" lon="3.33969">
        <ele>155.39</ele>
        <time>2013-08-16T11:03:44Z</time>
      </trkpt>
      <trkpt lat="43.66325" lon="3.33971">
        <ele>154.91</ele>
        <time>2013-08-16T11:03:45Z</time>
      </trkpt>
      <trkpt lat="43.66321" lon="3.33974">
        <ele>152.99</ele>
        <time>2013-08-16T11:03:46Z</time>
      </trkpt>
      <trkpt lat="43.66316" lon="3.33976">
        <ele>153.95</ele>
        <time>2013-08-16T11:03:47Z</time>
      </trkpt>
      <trkpt lat="43.66311" lon="3.33978">
        <ele>152.51</ele>
        <time>2013-08-16T11:03:48Z</time>
      </trkpt>
      <trkpt lat="43.66307" lon="3.33981">
        <ele>152.03</ele>
        <time>2013-08-16T11:03:49Z</time>
      </trkpt>
      <trkpt lat="43.66302" lon="3.33982">
        <ele>152.51</ele>
        <time>2013-08-16T11:03:50Z</time>
      </trkpt>
      <trkpt lat="43.66297" lon="3.33983">
        <ele>152.51</ele>
        <time>2013-08-16T11:03:51Z</time>
      </trkpt>
      <trkpt lat="43.66254" lon="3.33995">
        <ele>150.1</ele>
        <time>2013-08-16T11:03:59Z</time>
      </trkpt>
      <trkpt lat="43.6625" lon="3.33997">
        <ele>150.1</ele>
        <time>2013-08-16T11:04:00Z</time>
      </trkpt>
      <trkpt lat="43.66246" lon="3.33997">
        <ele>151.06</ele>
        <time>2013-08-16T11:04:01Z</time>
      </trkpt>
      <trkpt lat="43.66242" lon="3.33995">
        <ele>150.1</ele>
        <time>2013-08-16T11:04:02Z</time>
      </trkpt>
      <trkpt lat="43.66238" lon="3.33995">
        <ele>150.1</ele>
        <time>2013-08-16T11:04:03Z</time>
      </trkpt>
      <trkpt lat="43.66235" lon="3.33994">
        <ele>150.1</ele>
        <time>2013-08-16T11:04:04Z</time>
      </trkpt>
      <trkpt lat="43.66232" lon="3.33993">
        <ele>149.62</ele>
        <time>2013-08-16T11:04:05Z</time>
      </trkpt>
      <trkpt lat="43.66229" lon="3.33992">
        <ele>149.14</ele>
        <time>2013-08-16T11:04:06Z</time>
      </trkpt>
      <trkpt lat="43.66225" lon="3.33991">
        <ele>147.7</ele>
        <time>2013-08-16T11:04:07Z</time>
      </trkpt>
      <trkpt lat="43.66221" lon="3.33992">
        <ele>147.22</ele>
        <time>2013-08-16T11:04:08Z</time>
      </trkpt>
      <trkpt lat="43.66217" lon="3.33995">
        <ele>147.22</ele>
        <time>2013-08-16T11:04:09Z</time>
      </trkpt>
      <trkpt lat="43.66202" lon="3.34002">
        <ele>147.7</ele>
        <time>2013-08-16T11:04:12Z</time>
      </trkpt>
      <trkpt lat="43.66198" lon="3.34004">
        <ele>147.22</ele>
        <time>2013-08-16T11:04:13Z</time>
      </trkpt>
      <trkpt lat="43.66195" lon="3.34006">
        <ele>147.22</ele>
        <time>2013-08-16T11:04:14Z</time>
      </trkpt>
      <trkpt lat="43.66195" lon="3.34004">
        <ele>147.22</ele>
        <time>2013-08-16T11:04:21Z</time>
      </trkpt>
      <trkpt lat="43.66196" lon="3.34002">
        <ele>147.22</ele>
        <time>2013-08-16T11:04:33Z</time>
      </trkpt>
      <trkpt lat="43.66197" lon="3.34003">
        <ele>147.22</ele>
        <time>2013-08-16T11:04:54Z</time>
      </trkpt>
      <trkpt lat="43.66198" lon="3.34003">
        <ele>147.22</ele>
        <time>2013-08-16T11:05:19Z</time>
      </trkpt>
      <trkpt lat="43.66197" lon="3.34002">
        <ele>146.74</ele>
        <time>2013-08-16T11:05:22Z</time>
      </trkpt>
      <trkpt lat="43.66196" lon="3.34001">
        <ele>146.74</ele>
        <time>2013-08-16T11:05:23Z</time>
      </trkpt>
      <trkpt lat="43.66195" lon="3.33999">
        <ele>146.74</ele>
        <time>2013-08-16T11:05:24Z</time>
      </trkpt>
      <trkpt lat="43.66194" lon="3.33996">
        <ele>146.74</ele>
        <time>2013-08-16T11:05:25Z</time>
      </trkpt>
      <trkpt lat="43.66192" lon="3.33993">
        <ele>146.26</ele>
        <time>2013-08-16T11:05:26Z</time>
      </trkpt>
      <trkpt lat="43.6619" lon="3.33989">
        <ele>145.3</ele>
        <time>2013-08-16T11:05:27Z</time>
      </trkpt>
      <trkpt lat="43.66185" lon="3.33984">
        <ele>145.3</ele>
        <time>2013-08-16T11:05:29Z</time>
      </trkpt>
      <trkpt lat="43.66181" lon="3.33983">
        <ele>145.3</ele>
        <time>2013-08-16T11:05:30Z</time>
      </trkpt>
      <trkpt lat="43.66178" lon="3.33983">
        <ele>144.34</ele>
        <time>2013-08-16T11:05:31Z</time>
      </trkpt>
      <trkpt lat="43.66174" lon="3.33984">
        <ele>144.82</ele>
        <time>2013-08-16T11:05:32Z</time>
      </trkpt>
      <trkpt lat="43.66171" lon="3.33985">
        <ele>144.82</ele>
        <time>2013-08-16T11:05:33Z</time>
      </trkpt>
      <trkpt lat="43.66168" lon="3.33987">
        <ele>144.82</ele>
        <time>2013-08-16T11:05:34Z</time>
      </trkpt>
      <trkpt lat="43.66165" lon="3.33988">
        <ele>144.82</ele>
        <time>2013-08-16T11:05:35Z</time>
      </trkpt>
      <trkpt lat="43.66163" lon="3.3399">
        <ele>145.3</ele>
        <time>2013-08-16T11:05:36Z</time>
      </trkpt>
      <trkpt lat="43.66141" lon="3.34015">
        <ele>146.26</ele>
        <time>2013-08-16T11:05:50Z</time>
      </trkpt>
      <trkpt lat="43.66121" lon="3.34054">
        <ele>144.82</ele>
        <time>2013-08-16T11:06:03Z</time>
      </trkpt>
      <trkpt lat="43.66116" lon="3.34086">
        <ele>146.26</ele>
        <time>2013-08-16T11:06:13Z</time>
      </trkpt>
      <trkpt lat="43.66115" lon="3.34089">
        <ele>146.26</ele>
        <time>2013-08-16T11:06:14Z</time>
      </trkpt>
      <trkpt lat="43.66117" lon="3.34098">
        <ele>146.74</ele>
        <time>2013-08-16T11:06:18Z</time>
      </trkpt>
      <trkpt lat="43.66117" lon="3.34104">
        <ele>146.74</ele>
        <time>2013-08-16T11:06:20Z</time>
      </trkpt>
      <trkpt lat="43.66123" lon="3.34104">
        <ele>147.22</ele>
        <time>2013-08-16T11:06:26Z</time>
      </trkpt>
      <trkpt lat="43.66114" lon="3.34115">
        <ele>146.74</ele>
        <time>2013-08-16T11:06:36Z</time>
      </trkpt>
      <trkpt lat="43.66114" lon="3.34118">
        <ele>146.74</ele>
        <time>2013-08-16T11:06:38Z</time>
      </trkpt>
      <trkpt lat="43.66117" lon="3.34132">
        <ele>147.22</ele>
        <time>2013-08-16T11:06:48Z</time>
      </trkpt>
      <trkpt lat="43.66119" lon="3.34132">
        <ele>146.26</ele>
        <time>2013-08-16T11:06:56Z</time>
      </trkpt>
      <trkpt lat="43.6612" lon="3.34123">
        <ele>146.26</ele>
        <time>2013-08-16T11:07:00Z</time>
      </trkpt>
      <trkpt lat="43.66118" lon="3.34095">
        <ele>146.74</ele>
        <time>2013-08-16T11:07:11Z</time>
      </trkpt>
      <trkpt lat="43.6612" lon="3.34089">
        <ele>146.74</ele>
        <time>2013-08-16T11:07:15Z</time>
      </trkpt>
      <trkpt lat="43.66118" lon="3.34078">
        <ele>146.26</ele>
        <time>2013-08-16T11:07:29Z</time>
      </trkpt>
      <trkpt lat="43.66119" lon="3.34078">
        <ele>145.78</ele>
        <time>2013-08-16T11:07:33Z</time>
      </trkpt>
      <trkpt lat="43.66116" lon="3.34077">
        <ele>145.78</ele>
        <time>2013-08-16T11:07:45Z</time>
      </trkpt>
      <trkpt lat="43.66115" lon="3.34077">
        <ele>146.26</ele>
        <time>2013-08-16T11:08:18Z</time>
      </trkpt>
      <trkpt lat="43.66115" lon="3.34076">
        <ele>146.26</ele>
        <time>2013-08-16T11:08:46Z</time>
      </trkpt>
      <trkpt lat="43.66115" lon="3.34076">
        <ele>146.26</ele>
        <time>2013-08-16T11:08:47Z</time>
      </trkpt>
      <trkpt lat="43.66117" lon="3.34076">
        <ele>146.26</ele>
        <time>2013-08-16T11:08:57Z</time>
      </trkpt>
      <trkpt lat="43.66123" lon="3.34055">
        <ele>145.78</ele>
        <time>2013-08-16T11:09:04Z</time>
      </trkpt>
      <trkpt lat="43.66127" lon="3.34042">
        <ele>145.78</ele>
        <time>2013-08-16T11:09:08Z</time>
      </trkpt>
      <trkpt lat="43.66154" lon="3.34002">
        <ele>146.74</ele>
        <time>2013-08-16T11:09:22Z</time>
      </trkpt>
      <trkpt lat="43.66163" lon="3.3399">
        <ele>144.82</ele>
        <time>2013-08-16T11:09:25Z</time>
      </trkpt>
      <trkpt lat="43.66167" lon="3.33987">
        <ele>144.82</ele>
        <time>2013-08-16T11:09:26Z</time>
      </trkpt>
      <trkpt lat="43.66172" lon="3.33985">
        <ele>144.82</ele>
        <time>2013-08-16T11:09:27Z</time>
      </trkpt>
      <trkpt lat="43.66177" lon="3.33985">
        <ele>143.85</ele>
        <time>2013-08-16T11:09:28Z</time>
      </trkpt>
      <trkpt lat="43.6618" lon="3.33985">
        <ele>145.3</ele>
        <time>2013-08-16T11:09:29Z</time>
      </trkpt>
      <trkpt lat="43.66184" lon="3.33985">
        <ele>145.3</ele>
        <time>2013-08-16T11:09:30Z</time>
      </trkpt>
      <trkpt lat="43.66187" lon="3.33987">
        <ele>145.78</ele>
        <time>2013-08-16T11:09:31Z</time>
      </trkpt>
      <trkpt lat="43.66189" lon="3.33989">
        <ele>145.3</ele>
        <time>2013-08-16T11:09:32Z</time>
      </trkpt>
      <trkpt lat="43.66199" lon="3.33999">
        <ele>147.22</ele>
        <time>2013-08-16T11:09:38Z</time>
      </trkpt>
      <trkpt lat="43.66198" lon="3.34001">
        <ele>147.7</ele>
        <time>2013-08-16T11:09:39Z</time>
      </trkpt>
      <trkpt lat="43.66198" lon="3.34003">
        <ele>148.18</ele>
        <time>2013-08-16T11:09:48Z</time>
      </trkpt>
      <trkpt lat="43.66198" lon="3.34003">
        <ele>147.22</ele>
        <time>2013-08-16T11:09:51Z</time>
      </trkpt>
    </trkseg>
  </trk>
</gpx>